<?xml version="1.0" encoding="UTF-8" standalone="no" ?>
<gpx xmlns="http://www.topografix.com/GPX/1/1" xmlns:xsi="http://www.w3.org/2001/XMLSchema-instance" xsi:schemaLocation="http://www.topografix.com/GPX/1/1 http://www.topografix.com/GPX/1/1/gpx.xsd" version="1.1" creator="VisuGPX - https://www.visugpx.com">
  <metadata>
    <name>Forêt de Meudon Ouest </name>
    <desc><![CDATA[Chêne de la Vierge à Viroflay.]]></desc>
  </metadata>
  <trk>
    <name><![CDATA[Forêt de Meudon Ouest _1]]></name>
    <trkseg>
      <trkpt lat="48.80486" lon="2.18815">
        <ele>133</ele>
        <time>2016-02-21T12:15:03.000Z</time>
      </trkpt>
      <trkpt lat="48.80486" lon="2.18815">
        <ele>133</ele>
        <time>2016-02-21T12:15:14.000Z</time>
      </trkpt>
      <trkpt lat="48.80486" lon="2.18829">
        <ele>159</ele>
        <time>2016-02-21T12:15:18.000Z</time>
      </trkpt>
      <trkpt lat="48.80486" lon="2.18829">
        <ele>159</ele>
        <time>2016-02-21T12:15:20.000Z</time>
      </trkpt>
      <trkpt lat="48.80486" lon="2.18829">
        <ele>159</ele>
        <time>2016-02-21T12:15:22.000Z</time>
      </trkpt>
      <trkpt lat="48.80475" lon="2.18826">
        <ele>154</ele>
        <time>2016-02-21T12:15:25.000Z</time>
      </trkpt>
      <trkpt lat="48.80475" lon="2.18826">
        <ele>154</ele>
        <time>2016-02-21T12:15:34.000Z</time>
      </trkpt>
      <trkpt lat="48.80464" lon="2.18823">
        <ele>156</ele>
        <time>2016-02-21T12:15:44.000Z</time>
      </trkpt>
      <trkpt lat="48.80464" lon="2.18823">
        <ele>156</ele>
        <time>2016-02-21T12:15:46.000Z</time>
      </trkpt>
      <trkpt lat="48.80464" lon="2.18823">
        <ele>156</ele>
        <time>2016-02-21T12:15:48.000Z</time>
      </trkpt>
      <trkpt lat="48.80464" lon="2.18823">
        <ele>156</ele>
        <time>2016-02-21T12:15:50.000Z</time>
      </trkpt>
      <trkpt lat="48.80464" lon="2.18823">
        <ele>156</ele>
        <time>2016-02-21T12:15:52.000Z</time>
      </trkpt>
      <trkpt lat="48.80412" lon="2.1886">
        <ele>152</ele>
        <time>2016-02-21T12:16:36.000Z</time>
      </trkpt>
      <trkpt lat="48.80412" lon="2.1886">
        <ele>152</ele>
        <time>2016-02-21T12:16:38.000Z</time>
      </trkpt>
      <trkpt lat="48.80412" lon="2.1886">
        <ele>152</ele>
        <time>2016-02-21T12:16:43.000Z</time>
      </trkpt>
      <trkpt lat="48.80412" lon="2.1886">
        <ele>152</ele>
        <time>2016-02-21T12:16:45.000Z</time>
      </trkpt>
      <trkpt lat="48.80421" lon="2.18873">
        <ele>151</ele>
        <time>2016-02-21T12:16:47.000Z</time>
      </trkpt>
      <trkpt lat="48.80424" lon="2.18881">
        <ele>151</ele>
        <time>2016-02-21T12:16:53.000Z</time>
      </trkpt>
      <trkpt lat="48.80434" lon="2.18892">
        <ele>151</ele>
        <time>2016-02-21T12:17:02.000Z</time>
      </trkpt>
      <trkpt lat="48.80434" lon="2.18892">
        <ele>151</ele>
        <time>2016-02-21T12:17:04.000Z</time>
      </trkpt>
      <trkpt lat="48.80434" lon="2.18892">
        <ele>151</ele>
        <time>2016-02-21T12:17:06.000Z</time>
      </trkpt>
      <trkpt lat="48.80434" lon="2.18892">
        <ele>151</ele>
        <time>2016-02-21T12:17:08.000Z</time>
      </trkpt>
      <trkpt lat="48.80434" lon="2.18892">
        <ele>151</ele>
        <time>2016-02-21T12:17:10.000Z</time>
      </trkpt>
      <trkpt lat="48.80443" lon="2.189">
        <ele>151</ele>
        <time>2016-02-21T12:17:12.000Z</time>
      </trkpt>
      <trkpt lat="48.80443" lon="2.189">
        <ele>151</ele>
        <time>2016-02-21T12:17:14.000Z</time>
      </trkpt>
      <trkpt lat="48.80443" lon="2.189">
        <ele>151</ele>
        <time>2016-02-21T12:17:16.000Z</time>
      </trkpt>
      <trkpt lat="48.80447" lon="2.18902">
        <ele>151</ele>
        <time>2016-02-21T12:17:18.000Z</time>
      </trkpt>
      <trkpt lat="48.80452" lon="2.18907">
        <ele>150</ele>
        <time>2016-02-21T12:17:23.000Z</time>
      </trkpt>
      <trkpt lat="48.80456" lon="2.18911">
        <ele>151</ele>
        <time>2016-02-21T12:17:25.000Z</time>
      </trkpt>
      <trkpt lat="48.8046" lon="2.18917">
        <ele>151</ele>
        <time>2016-02-21T12:17:29.000Z</time>
      </trkpt>
      <trkpt lat="48.8046" lon="2.18917">
        <ele>151</ele>
        <time>2016-02-21T12:17:31.000Z</time>
      </trkpt>
      <trkpt lat="48.80463" lon="2.18923">
        <ele>152</ele>
        <time>2016-02-21T12:17:33.000Z</time>
      </trkpt>
      <trkpt lat="48.80465" lon="2.18928">
        <ele>153</ele>
        <time>2016-02-21T12:17:37.000Z</time>
      </trkpt>
      <trkpt lat="48.80465" lon="2.18928">
        <ele>153</ele>
        <time>2016-02-21T12:17:39.000Z</time>
      </trkpt>
      <trkpt lat="48.80468" lon="2.18934">
        <ele>153</ele>
        <time>2016-02-21T12:17:43.000Z</time>
      </trkpt>
      <trkpt lat="48.80468" lon="2.18934">
        <ele>153</ele>
        <time>2016-02-21T12:17:45.000Z</time>
      </trkpt>
      <trkpt lat="48.80468" lon="2.18934">
        <ele>153</ele>
        <time>2016-02-21T12:17:47.000Z</time>
      </trkpt>
      <trkpt lat="48.80471" lon="2.18939">
        <ele>154</ele>
        <time>2016-02-21T12:17:49.000Z</time>
      </trkpt>
      <trkpt lat="48.80473" lon="2.18944">
        <ele>154</ele>
        <time>2016-02-21T12:17:51.000Z</time>
      </trkpt>
      <trkpt lat="48.80473" lon="2.18944">
        <ele>154</ele>
        <time>2016-02-21T12:17:55.000Z</time>
      </trkpt>
      <trkpt lat="48.80473" lon="2.18944">
        <ele>154</ele>
        <time>2016-02-21T12:17:57.000Z</time>
      </trkpt>
      <trkpt lat="48.80473" lon="2.18944">
        <ele>154</ele>
        <time>2016-02-21T12:17:59.000Z</time>
      </trkpt>
      <trkpt lat="48.80476" lon="2.18951">
        <ele>155</ele>
        <time>2016-02-21T12:18:03.000Z</time>
      </trkpt>
      <trkpt lat="48.80476" lon="2.18951">
        <ele>155</ele>
        <time>2016-02-21T12:18:07.000Z</time>
      </trkpt>
      <trkpt lat="48.80476" lon="2.18951">
        <ele>155</ele>
        <time>2016-02-21T12:18:09.000Z</time>
      </trkpt>
      <trkpt lat="48.80476" lon="2.18951">
        <ele>155</ele>
        <time>2016-02-21T12:18:11.000Z</time>
      </trkpt>
      <trkpt lat="48.80476" lon="2.18951">
        <ele>155</ele>
        <time>2016-02-21T12:18:13.000Z</time>
      </trkpt>
      <trkpt lat="48.80476" lon="2.18951">
        <ele>155</ele>
        <time>2016-02-21T12:18:15.000Z</time>
      </trkpt>
      <trkpt lat="48.80476" lon="2.18951">
        <ele>155</ele>
        <time>2016-02-21T12:18:17.000Z</time>
      </trkpt>
      <trkpt lat="48.8049" lon="2.18978">
        <ele>157</ele>
        <time>2016-02-21T12:18:37.000Z</time>
      </trkpt>
      <trkpt lat="48.80499" lon="2.18993">
        <ele>157</ele>
        <time>2016-02-21T12:18:39.000Z</time>
      </trkpt>
      <trkpt lat="48.80505" lon="2.19003">
        <ele>157</ele>
        <time>2016-02-21T12:18:43.000Z</time>
      </trkpt>
      <trkpt lat="48.80508" lon="2.19009">
        <ele>157</ele>
        <time>2016-02-21T12:18:45.000Z</time>
      </trkpt>
      <trkpt lat="48.80508" lon="2.19009">
        <ele>157</ele>
        <time>2016-02-21T12:18:47.000Z</time>
      </trkpt>
      <trkpt lat="48.80511" lon="2.19016">
        <ele>157</ele>
        <time>2016-02-21T12:18:49.000Z</time>
      </trkpt>
      <trkpt lat="48.80511" lon="2.19016">
        <ele>157</ele>
        <time>2016-02-21T12:18:51.000Z</time>
      </trkpt>
      <trkpt lat="48.80514" lon="2.19021">
        <ele>157</ele>
        <time>2016-02-21T12:18:53.000Z</time>
      </trkpt>
      <trkpt lat="48.80517" lon="2.19025">
        <ele>158</ele>
        <time>2016-02-21T12:18:55.000Z</time>
      </trkpt>
      <trkpt lat="48.8052" lon="2.19031">
        <ele>158</ele>
        <time>2016-02-21T12:18:59.000Z</time>
      </trkpt>
      <trkpt lat="48.80525" lon="2.19036">
        <ele>160</ele>
        <time>2016-02-21T12:19:05.000Z</time>
      </trkpt>
      <trkpt lat="48.80525" lon="2.19036">
        <ele>160</ele>
        <time>2016-02-21T12:19:07.000Z</time>
      </trkpt>
      <trkpt lat="48.80528" lon="2.19043">
        <ele>160</ele>
        <time>2016-02-21T12:19:09.000Z</time>
      </trkpt>
      <trkpt lat="48.8053" lon="2.19047">
        <ele>161</ele>
        <time>2016-02-21T12:19:11.000Z</time>
      </trkpt>
      <trkpt lat="48.80532" lon="2.19051">
        <ele>161</ele>
        <time>2016-02-21T12:19:13.000Z</time>
      </trkpt>
      <trkpt lat="48.80532" lon="2.19051">
        <ele>161</ele>
        <time>2016-02-21T12:19:15.000Z</time>
      </trkpt>
      <trkpt lat="48.80532" lon="2.19051">
        <ele>161</ele>
        <time>2016-02-21T12:19:17.000Z</time>
      </trkpt>
      <trkpt lat="48.80534" lon="2.19058">
        <ele>161</ele>
        <time>2016-02-21T12:19:19.000Z</time>
      </trkpt>
      <trkpt lat="48.80537" lon="2.19065">
        <ele>163</ele>
        <time>2016-02-21T12:19:23.000Z</time>
      </trkpt>
      <trkpt lat="48.80537" lon="2.19065">
        <ele>163</ele>
        <time>2016-02-21T12:19:25.000Z</time>
      </trkpt>
      <trkpt lat="48.80538" lon="2.1907">
        <ele>163</ele>
        <time>2016-02-21T12:19:27.000Z</time>
      </trkpt>
      <trkpt lat="48.80538" lon="2.1907">
        <ele>163</ele>
        <time>2016-02-21T12:19:29.000Z</time>
      </trkpt>
      <trkpt lat="48.80538" lon="2.1907">
        <ele>163</ele>
        <time>2016-02-21T12:19:31.000Z</time>
      </trkpt>
      <trkpt lat="48.80538" lon="2.1907">
        <ele>163</ele>
        <time>2016-02-21T12:19:33.000Z</time>
      </trkpt>
      <trkpt lat="48.80538" lon="2.1907">
        <ele>163</ele>
        <time>2016-02-21T12:19:35.000Z</time>
      </trkpt>
      <trkpt lat="48.80539" lon="2.19075">
        <ele>164</ele>
        <time>2016-02-21T12:19:37.000Z</time>
      </trkpt>
      <trkpt lat="48.80539" lon="2.19075">
        <ele>164</ele>
        <time>2016-02-21T12:19:39.000Z</time>
      </trkpt>
      <trkpt lat="48.8054" lon="2.19081">
        <ele>164</ele>
        <time>2016-02-21T12:19:43.000Z</time>
      </trkpt>
      <trkpt lat="48.8054" lon="2.19081">
        <ele>164</ele>
        <time>2016-02-21T12:19:47.000Z</time>
      </trkpt>
      <trkpt lat="48.80544" lon="2.1909">
        <ele>164</ele>
        <time>2016-02-21T12:19:49.000Z</time>
      </trkpt>
      <trkpt lat="48.80547" lon="2.19096">
        <ele>164</ele>
        <time>2016-02-21T12:19:51.000Z</time>
      </trkpt>
      <trkpt lat="48.80549" lon="2.19104">
        <ele>164</ele>
        <time>2016-02-21T12:19:55.000Z</time>
      </trkpt>
      <trkpt lat="48.80551" lon="2.19109">
        <ele>164</ele>
        <time>2016-02-21T12:19:57.000Z</time>
      </trkpt>
      <trkpt lat="48.80551" lon="2.19109">
        <ele>164</ele>
        <time>2016-02-21T12:19:59.000Z</time>
      </trkpt>
      <trkpt lat="48.80554" lon="2.19115">
        <ele>164</ele>
        <time>2016-02-21T12:20:03.000Z</time>
      </trkpt>
      <trkpt lat="48.80556" lon="2.1912">
        <ele>164</ele>
        <time>2016-02-21T12:20:05.000Z</time>
      </trkpt>
      <trkpt lat="48.80558" lon="2.19124">
        <ele>164</ele>
        <time>2016-02-21T12:20:07.000Z</time>
      </trkpt>
      <trkpt lat="48.8056" lon="2.19128">
        <ele>164</ele>
        <time>2016-02-21T12:20:09.000Z</time>
      </trkpt>
      <trkpt lat="48.80562" lon="2.19136">
        <ele>165</ele>
        <time>2016-02-21T12:20:15.000Z</time>
      </trkpt>
      <trkpt lat="48.80563" lon="2.19141">
        <ele>166</ele>
        <time>2016-02-21T12:20:17.000Z</time>
      </trkpt>
      <trkpt lat="48.80563" lon="2.19146">
        <ele>167</ele>
        <time>2016-02-21T12:20:23.000Z</time>
      </trkpt>
      <trkpt lat="48.80563" lon="2.19146">
        <ele>167</ele>
        <time>2016-02-21T12:20:25.000Z</time>
      </trkpt>
      <trkpt lat="48.80561" lon="2.19152">
        <ele>167</ele>
        <time>2016-02-21T12:20:27.000Z</time>
      </trkpt>
      <trkpt lat="48.80559" lon="2.19157">
        <ele>168</ele>
        <time>2016-02-21T12:20:29.000Z</time>
      </trkpt>
      <trkpt lat="48.80559" lon="2.19157">
        <ele>168</ele>
        <time>2016-02-21T12:20:31.000Z</time>
      </trkpt>
      <trkpt lat="48.80559" lon="2.19157">
        <ele>168</ele>
        <time>2016-02-21T12:20:35.000Z</time>
      </trkpt>
      <trkpt lat="48.80555" lon="2.19162">
        <ele>168</ele>
        <time>2016-02-21T12:20:37.000Z</time>
      </trkpt>
      <trkpt lat="48.80552" lon="2.19167">
        <ele>168</ele>
        <time>2016-02-21T12:20:39.000Z</time>
      </trkpt>
      <trkpt lat="48.80552" lon="2.19167">
        <ele>168</ele>
        <time>2016-02-21T12:20:42.000Z</time>
      </trkpt>
      <trkpt lat="48.80546" lon="2.19177">
        <ele>168</ele>
        <time>2016-02-21T12:20:46.000Z</time>
      </trkpt>
      <trkpt lat="48.80542" lon="2.19182">
        <ele>168</ele>
        <time>2016-02-21T12:20:48.000Z</time>
      </trkpt>
      <trkpt lat="48.80538" lon="2.19185">
        <ele>169</ele>
        <time>2016-02-21T12:20:52.000Z</time>
      </trkpt>
      <trkpt lat="48.80534" lon="2.19188">
        <ele>169</ele>
        <time>2016-02-21T12:20:54.000Z</time>
      </trkpt>
      <trkpt lat="48.80531" lon="2.19191">
        <ele>169</ele>
        <time>2016-02-21T12:20:56.000Z</time>
      </trkpt>
      <trkpt lat="48.80531" lon="2.19191">
        <ele>169</ele>
        <time>2016-02-21T12:20:58.000Z</time>
      </trkpt>
      <trkpt lat="48.80531" lon="2.19191">
        <ele>169</ele>
        <time>2016-02-21T12:21:00.000Z</time>
      </trkpt>
      <trkpt lat="48.80528" lon="2.19197">
        <ele>170</ele>
        <time>2016-02-21T12:21:02.000Z</time>
      </trkpt>
      <trkpt lat="48.80526" lon="2.192">
        <ele>170</ele>
        <time>2016-02-21T12:21:06.000Z</time>
      </trkpt>
      <trkpt lat="48.80526" lon="2.192">
        <ele>170</ele>
        <time>2016-02-21T12:21:10.000Z</time>
      </trkpt>
      <trkpt lat="48.80526" lon="2.192">
        <ele>170</ele>
        <time>2016-02-21T12:21:12.000Z</time>
      </trkpt>
      <trkpt lat="48.80526" lon="2.192">
        <ele>170</ele>
        <time>2016-02-21T12:21:14.000Z</time>
      </trkpt>
      <trkpt lat="48.80523" lon="2.19203">
        <ele>171</ele>
        <time>2016-02-21T12:21:19.000Z</time>
      </trkpt>
      <trkpt lat="48.80523" lon="2.19203">
        <ele>171</ele>
        <time>2016-02-21T12:21:21.000Z</time>
      </trkpt>
      <trkpt lat="48.80523" lon="2.19203">
        <ele>171</ele>
        <time>2016-02-21T12:21:23.000Z</time>
      </trkpt>
      <trkpt lat="48.80523" lon="2.19203">
        <ele>171</ele>
        <time>2016-02-21T12:21:25.000Z</time>
      </trkpt>
      <trkpt lat="48.80523" lon="2.19203">
        <ele>171</ele>
        <time>2016-02-21T12:21:27.000Z</time>
      </trkpt>
      <trkpt lat="48.80523" lon="2.19203">
        <ele>171</ele>
        <time>2016-02-21T12:21:29.000Z</time>
      </trkpt>
      <trkpt lat="48.80523" lon="2.19203">
        <ele>171</ele>
        <time>2016-02-21T12:21:31.000Z</time>
      </trkpt>
      <trkpt lat="48.80497" lon="2.1925">
        <ele>169</ele>
        <time>2016-02-21T12:22:29.000Z</time>
      </trkpt>
      <trkpt lat="48.80497" lon="2.1925">
        <ele>169</ele>
        <time>2016-02-21T12:22:31.000Z</time>
      </trkpt>
      <trkpt lat="48.80497" lon="2.1925">
        <ele>169</ele>
        <time>2016-02-21T12:22:33.000Z</time>
      </trkpt>
      <trkpt lat="48.80497" lon="2.1925">
        <ele>169</ele>
        <time>2016-02-21T12:22:35.000Z</time>
      </trkpt>
      <trkpt lat="48.80497" lon="2.1925">
        <ele>169</ele>
        <time>2016-02-21T12:22:43.000Z</time>
      </trkpt>
      <trkpt lat="48.80497" lon="2.1925">
        <ele>169</ele>
        <time>2016-02-21T12:22:45.000Z</time>
      </trkpt>
      <trkpt lat="48.80497" lon="2.1925">
        <ele>169</ele>
        <time>2016-02-21T12:22:53.000Z</time>
      </trkpt>
      <trkpt lat="48.80497" lon="2.1925">
        <ele>169</ele>
        <time>2016-02-21T12:22:55.000Z</time>
      </trkpt>
      <trkpt lat="48.80497" lon="2.1925">
        <ele>169</ele>
        <time>2016-02-21T12:22:59.000Z</time>
      </trkpt>
      <trkpt lat="48.80497" lon="2.1925">
        <ele>169</ele>
        <time>2016-02-21T12:23:01.000Z</time>
      </trkpt>
      <trkpt lat="48.80462" lon="2.19324">
        <ele>176</ele>
        <time>2016-02-21T12:23:50.000Z</time>
      </trkpt>
      <trkpt lat="48.80444" lon="2.19362">
        <ele>176</ele>
        <time>2016-02-21T12:23:52.000Z</time>
      </trkpt>
      <trkpt lat="48.80434" lon="2.19383">
        <ele>176</ele>
        <time>2016-02-21T12:23:54.000Z</time>
      </trkpt>
      <trkpt lat="48.80434" lon="2.19383">
        <ele>176</ele>
        <time>2016-02-21T12:23:56.000Z</time>
      </trkpt>
      <trkpt lat="48.80434" lon="2.19383">
        <ele>176</ele>
        <time>2016-02-21T12:23:58.000Z</time>
      </trkpt>
      <trkpt lat="48.80434" lon="2.19383">
        <ele>176</ele>
        <time>2016-02-21T12:24:00.000Z</time>
      </trkpt>
      <trkpt lat="48.80423" lon="2.19389">
        <ele>178</ele>
        <time>2016-02-21T12:24:02.000Z</time>
      </trkpt>
      <trkpt lat="48.80417" lon="2.19391">
        <ele>178</ele>
        <time>2016-02-21T12:24:04.000Z</time>
      </trkpt>
      <trkpt lat="48.80414" lon="2.19392">
        <ele>178</ele>
        <time>2016-02-21T12:24:06.000Z</time>
      </trkpt>
      <trkpt lat="48.80411" lon="2.19389">
        <ele>179</ele>
        <time>2016-02-21T12:24:10.000Z</time>
      </trkpt>
      <trkpt lat="48.80411" lon="2.19389">
        <ele>179</ele>
        <time>2016-02-21T12:24:12.000Z</time>
      </trkpt>
      <trkpt lat="48.80411" lon="2.19389">
        <ele>179</ele>
        <time>2016-02-21T12:24:14.000Z</time>
      </trkpt>
      <trkpt lat="48.80411" lon="2.19389">
        <ele>179</ele>
        <time>2016-02-21T12:24:16.000Z</time>
      </trkpt>
      <trkpt lat="48.80411" lon="2.19389">
        <ele>179</ele>
        <time>2016-02-21T12:24:18.000Z</time>
      </trkpt>
      <trkpt lat="48.80411" lon="2.19389">
        <ele>179</ele>
        <time>2016-02-21T12:24:20.000Z</time>
      </trkpt>
      <trkpt lat="48.80411" lon="2.19389">
        <ele>179</ele>
        <time>2016-02-21T12:24:27.000Z</time>
      </trkpt>
      <trkpt lat="48.80407" lon="2.19385">
        <ele>185</ele>
        <time>2016-02-21T12:24:29.000Z</time>
      </trkpt>
      <trkpt lat="48.80407" lon="2.19385">
        <ele>185</ele>
        <time>2016-02-21T12:24:31.000Z</time>
      </trkpt>
      <trkpt lat="48.80402" lon="2.1938">
        <ele>185</ele>
        <time>2016-02-21T12:24:33.000Z</time>
      </trkpt>
      <trkpt lat="48.804" lon="2.19376">
        <ele>185</ele>
        <time>2016-02-21T12:24:35.000Z</time>
      </trkpt>
      <trkpt lat="48.804" lon="2.19376">
        <ele>185</ele>
        <time>2016-02-21T12:24:39.000Z</time>
      </trkpt>
      <trkpt lat="48.804" lon="2.19376">
        <ele>185</ele>
        <time>2016-02-21T12:24:41.000Z</time>
      </trkpt>
      <trkpt lat="48.804" lon="2.19376">
        <ele>185</ele>
        <time>2016-02-21T12:24:46.000Z</time>
      </trkpt>
      <trkpt lat="48.80394" lon="2.19358">
        <ele>188</ele>
        <time>2016-02-21T12:24:54.000Z</time>
      </trkpt>
      <trkpt lat="48.80391" lon="2.19347">
        <ele>189</ele>
        <time>2016-02-21T12:24:56.000Z</time>
      </trkpt>
      <trkpt lat="48.80389" lon="2.19341">
        <ele>189</ele>
        <time>2016-02-21T12:24:58.000Z</time>
      </trkpt>
      <trkpt lat="48.80389" lon="2.19341">
        <ele>189</ele>
        <time>2016-02-21T12:25:00.000Z</time>
      </trkpt>
      <trkpt lat="48.80386" lon="2.1933">
        <ele>191</ele>
        <time>2016-02-21T12:25:05.000Z</time>
      </trkpt>
      <trkpt lat="48.80383" lon="2.19323">
        <ele>191</ele>
        <time>2016-02-21T12:25:07.000Z</time>
      </trkpt>
      <trkpt lat="48.80379" lon="2.19317">
        <ele>191</ele>
        <time>2016-02-21T12:25:09.000Z</time>
      </trkpt>
      <trkpt lat="48.80376" lon="2.19309">
        <ele>192</ele>
        <time>2016-02-21T12:25:11.000Z</time>
      </trkpt>
      <trkpt lat="48.80374" lon="2.19301">
        <ele>192</ele>
        <time>2016-02-21T12:25:13.000Z</time>
      </trkpt>
      <trkpt lat="48.8037" lon="2.19288">
        <ele>192</ele>
        <time>2016-02-21T12:25:15.000Z</time>
      </trkpt>
      <trkpt lat="48.8037" lon="2.19288">
        <ele>192</ele>
        <time>2016-02-21T12:25:25.000Z</time>
      </trkpt>
      <trkpt lat="48.80363" lon="2.19274">
        <ele>193</ele>
        <time>2016-02-21T12:25:27.000Z</time>
      </trkpt>
      <trkpt lat="48.80359" lon="2.19266">
        <ele>194</ele>
        <time>2016-02-21T12:25:31.000Z</time>
      </trkpt>
      <trkpt lat="48.80352" lon="2.19255">
        <ele>194</ele>
        <time>2016-02-21T12:25:39.000Z</time>
      </trkpt>
      <trkpt lat="48.80346" lon="2.19244">
        <ele>193</ele>
        <time>2016-02-21T12:25:50.000Z</time>
      </trkpt>
      <trkpt lat="48.80342" lon="2.19235">
        <ele>193</ele>
        <time>2016-02-21T12:25:54.000Z</time>
      </trkpt>
      <trkpt lat="48.80338" lon="2.19224">
        <ele>193</ele>
        <time>2016-02-21T12:25:58.000Z</time>
      </trkpt>
      <trkpt lat="48.80337" lon="2.19206">
        <ele>191</ele>
        <time>2016-02-21T12:26:06.000Z</time>
      </trkpt>
      <trkpt lat="48.80337" lon="2.19206">
        <ele>191</ele>
        <time>2016-02-21T12:26:08.000Z</time>
      </trkpt>
      <trkpt lat="48.80337" lon="2.19206">
        <ele>191</ele>
        <time>2016-02-21T12:26:10.000Z</time>
      </trkpt>
      <trkpt lat="48.80335" lon="2.19197">
        <ele>190</ele>
        <time>2016-02-21T12:26:12.000Z</time>
      </trkpt>
      <trkpt lat="48.80335" lon="2.19197">
        <ele>190</ele>
        <time>2016-02-21T12:26:14.000Z</time>
      </trkpt>
      <trkpt lat="48.80332" lon="2.19187">
        <ele>189</ele>
        <time>2016-02-21T12:26:20.000Z</time>
      </trkpt>
      <trkpt lat="48.80332" lon="2.19187">
        <ele>189</ele>
        <time>2016-02-21T12:26:28.000Z</time>
      </trkpt>
      <trkpt lat="48.80324" lon="2.19178">
        <ele>188</ele>
        <time>2016-02-21T12:26:30.000Z</time>
      </trkpt>
      <trkpt lat="48.80324" lon="2.19178">
        <ele>188</ele>
        <time>2016-02-21T12:26:33.000Z</time>
      </trkpt>
      <trkpt lat="48.80319" lon="2.19173">
        <ele>188</ele>
        <time>2016-02-21T12:26:35.000Z</time>
      </trkpt>
      <trkpt lat="48.80319" lon="2.19173">
        <ele>188</ele>
        <time>2016-02-21T12:26:39.000Z</time>
      </trkpt>
      <trkpt lat="48.80319" lon="2.19173">
        <ele>188</ele>
        <time>2016-02-21T12:26:41.000Z</time>
      </trkpt>
      <trkpt lat="48.80306" lon="2.19171">
        <ele>186</ele>
        <time>2016-02-21T12:26:46.000Z</time>
      </trkpt>
      <trkpt lat="48.80306" lon="2.19171">
        <ele>186</ele>
        <time>2016-02-21T12:26:48.000Z</time>
      </trkpt>
      <trkpt lat="48.80306" lon="2.19171">
        <ele>186</ele>
        <time>2016-02-21T12:26:50.000Z</time>
      </trkpt>
      <trkpt lat="48.80306" lon="2.19171">
        <ele>186</ele>
        <time>2016-02-21T12:26:52.000Z</time>
      </trkpt>
      <trkpt lat="48.8031" lon="2.19179">
        <ele>182</ele>
        <time>2016-02-21T12:27:08.000Z</time>
      </trkpt>
      <trkpt lat="48.80311" lon="2.19183">
        <ele>182</ele>
        <time>2016-02-21T12:27:10.000Z</time>
      </trkpt>
      <trkpt lat="48.80311" lon="2.19183">
        <ele>182</ele>
        <time>2016-02-21T12:27:12.000Z</time>
      </trkpt>
      <trkpt lat="48.80311" lon="2.19183">
        <ele>182</ele>
        <time>2016-02-21T12:27:14.000Z</time>
      </trkpt>
      <trkpt lat="48.80311" lon="2.19183">
        <ele>182</ele>
        <time>2016-02-21T12:27:16.000Z</time>
      </trkpt>
      <trkpt lat="48.80309" lon="2.19187">
        <ele>182</ele>
        <time>2016-02-21T12:27:18.000Z</time>
      </trkpt>
      <trkpt lat="48.80309" lon="2.19187">
        <ele>182</ele>
        <time>2016-02-21T12:27:20.000Z</time>
      </trkpt>
      <trkpt lat="48.80309" lon="2.19187">
        <ele>182</ele>
        <time>2016-02-21T12:27:23.000Z</time>
      </trkpt>
      <trkpt lat="48.80301" lon="2.19189">
        <ele>182</ele>
        <time>2016-02-21T12:27:25.000Z</time>
      </trkpt>
      <trkpt lat="48.80296" lon="2.1919">
        <ele>182</ele>
        <time>2016-02-21T12:27:27.000Z</time>
      </trkpt>
      <trkpt lat="48.80292" lon="2.19191">
        <ele>182</ele>
        <time>2016-02-21T12:27:29.000Z</time>
      </trkpt>
      <trkpt lat="48.80289" lon="2.19193">
        <ele>182</ele>
        <time>2016-02-21T12:27:31.000Z</time>
      </trkpt>
      <trkpt lat="48.80289" lon="2.19193">
        <ele>182</ele>
        <time>2016-02-21T12:27:33.000Z</time>
      </trkpt>
      <trkpt lat="48.80289" lon="2.19193">
        <ele>182</ele>
        <time>2016-02-21T12:27:35.000Z</time>
      </trkpt>
      <trkpt lat="48.80282" lon="2.19198">
        <ele>181</ele>
        <time>2016-02-21T12:27:39.000Z</time>
      </trkpt>
      <trkpt lat="48.80277" lon="2.192">
        <ele>181</ele>
        <time>2016-02-21T12:27:41.000Z</time>
      </trkpt>
      <trkpt lat="48.80272" lon="2.19201">
        <ele>181</ele>
        <time>2016-02-21T12:27:48.000Z</time>
      </trkpt>
      <trkpt lat="48.80271" lon="2.19195">
        <ele>181</ele>
        <time>2016-02-21T12:27:54.000Z</time>
      </trkpt>
      <trkpt lat="48.80271" lon="2.19195">
        <ele>181</ele>
        <time>2016-02-21T12:27:56.000Z</time>
      </trkpt>
      <trkpt lat="48.80271" lon="2.19195">
        <ele>181</ele>
        <time>2016-02-21T12:27:58.000Z</time>
      </trkpt>
      <trkpt lat="48.80271" lon="2.19195">
        <ele>181</ele>
        <time>2016-02-21T12:28:00.000Z</time>
      </trkpt>
      <trkpt lat="48.80271" lon="2.19195">
        <ele>181</ele>
        <time>2016-02-21T12:28:08.000Z</time>
      </trkpt>
      <trkpt lat="48.80271" lon="2.19195">
        <ele>181</ele>
        <time>2016-02-21T12:28:10.000Z</time>
      </trkpt>
      <trkpt lat="48.80271" lon="2.19195">
        <ele>181</ele>
        <time>2016-02-21T12:28:12.000Z</time>
      </trkpt>
      <trkpt lat="48.80254" lon="2.19177">
        <ele>176</ele>
        <time>2016-02-21T12:28:48.000Z</time>
      </trkpt>
      <trkpt lat="48.80254" lon="2.19177">
        <ele>176</ele>
        <time>2016-02-21T12:28:50.000Z</time>
      </trkpt>
      <trkpt lat="48.80254" lon="2.19177">
        <ele>176</ele>
        <time>2016-02-21T12:28:52.000Z</time>
      </trkpt>
      <trkpt lat="48.80254" lon="2.19177">
        <ele>176</ele>
        <time>2016-02-21T12:28:54.000Z</time>
      </trkpt>
      <trkpt lat="48.80254" lon="2.19177">
        <ele>176</ele>
        <time>2016-02-21T12:28:56.000Z</time>
      </trkpt>
      <trkpt lat="48.80254" lon="2.19177">
        <ele>176</ele>
        <time>2016-02-21T12:28:58.000Z</time>
      </trkpt>
      <trkpt lat="48.80254" lon="2.19177">
        <ele>176</ele>
        <time>2016-02-21T12:29:00.000Z</time>
      </trkpt>
      <trkpt lat="48.80228" lon="2.1917">
        <ele>175</ele>
        <time>2016-02-21T12:29:28.000Z</time>
      </trkpt>
      <trkpt lat="48.80214" lon="2.19167">
        <ele>175</ele>
        <time>2016-02-21T12:29:30.000Z</time>
      </trkpt>
      <trkpt lat="48.80207" lon="2.19165">
        <ele>175</ele>
        <time>2016-02-21T12:29:32.000Z</time>
      </trkpt>
      <trkpt lat="48.80201" lon="2.19161">
        <ele>175</ele>
        <time>2016-02-21T12:29:34.000Z</time>
      </trkpt>
      <trkpt lat="48.80201" lon="2.19161">
        <ele>175</ele>
        <time>2016-02-21T12:29:36.000Z</time>
      </trkpt>
      <trkpt lat="48.80201" lon="2.19161">
        <ele>175</ele>
        <time>2016-02-21T12:29:38.000Z</time>
      </trkpt>
      <trkpt lat="48.80201" lon="2.19161">
        <ele>175</ele>
        <time>2016-02-21T12:29:48.000Z</time>
      </trkpt>
      <trkpt lat="48.80201" lon="2.19161">
        <ele>175</ele>
        <time>2016-02-21T12:29:52.000Z</time>
      </trkpt>
      <trkpt lat="48.80182" lon="2.19137">
        <ele>167</ele>
        <time>2016-02-21T12:30:32.000Z</time>
      </trkpt>
      <trkpt lat="48.80172" lon="2.19125">
        <ele>167</ele>
        <time>2016-02-21T12:30:34.000Z</time>
      </trkpt>
      <trkpt lat="48.80172" lon="2.19125">
        <ele>167</ele>
        <time>2016-02-21T12:30:36.000Z</time>
      </trkpt>
      <trkpt lat="48.80172" lon="2.19125">
        <ele>167</ele>
        <time>2016-02-21T12:30:38.000Z</time>
      </trkpt>
      <trkpt lat="48.80162" lon="2.19118">
        <ele>169</ele>
        <time>2016-02-21T12:30:42.000Z</time>
      </trkpt>
      <trkpt lat="48.80156" lon="2.19115">
        <ele>169</ele>
        <time>2016-02-21T12:30:44.000Z</time>
      </trkpt>
      <trkpt lat="48.80152" lon="2.19114">
        <ele>170</ele>
        <time>2016-02-21T12:30:46.000Z</time>
      </trkpt>
      <trkpt lat="48.80148" lon="2.19114">
        <ele>170</ele>
        <time>2016-02-21T12:30:50.000Z</time>
      </trkpt>
      <trkpt lat="48.80148" lon="2.19114">
        <ele>170</ele>
        <time>2016-02-21T12:30:52.000Z</time>
      </trkpt>
      <trkpt lat="48.80146" lon="2.19118">
        <ele>170</ele>
        <time>2016-02-21T12:30:54.000Z</time>
      </trkpt>
      <trkpt lat="48.80146" lon="2.19118">
        <ele>170</ele>
        <time>2016-02-21T12:30:56.000Z</time>
      </trkpt>
      <trkpt lat="48.80146" lon="2.19118">
        <ele>170</ele>
        <time>2016-02-21T12:30:58.000Z</time>
      </trkpt>
      <trkpt lat="48.80146" lon="2.19118">
        <ele>170</ele>
        <time>2016-02-21T12:31:00.000Z</time>
      </trkpt>
      <trkpt lat="48.80146" lon="2.19118">
        <ele>170</ele>
        <time>2016-02-21T12:31:02.000Z</time>
      </trkpt>
      <trkpt lat="48.80146" lon="2.19118">
        <ele>170</ele>
        <time>2016-02-21T12:31:17.000Z</time>
      </trkpt>
      <trkpt lat="48.80146" lon="2.19118">
        <ele>170</ele>
        <time>2016-02-21T12:31:19.000Z</time>
      </trkpt>
      <trkpt lat="48.80146" lon="2.19118">
        <ele>170</ele>
        <time>2016-02-21T12:31:21.000Z</time>
      </trkpt>
      <trkpt lat="48.80146" lon="2.19118">
        <ele>170</ele>
        <time>2016-02-21T12:31:28.000Z</time>
      </trkpt>
      <trkpt lat="48.80146" lon="2.19118">
        <ele>170</ele>
        <time>2016-02-21T12:31:46.000Z</time>
      </trkpt>
      <trkpt lat="48.80146" lon="2.19118">
        <ele>170</ele>
        <time>2016-02-21T12:32:05.000Z</time>
      </trkpt>
      <trkpt lat="48.80146" lon="2.19118">
        <ele>170</ele>
        <time>2016-02-21T12:32:08.000Z</time>
      </trkpt>
      <trkpt lat="48.80155" lon="2.1917">
        <ele>173</ele>
        <time>2016-02-21T12:32:20.000Z</time>
      </trkpt>
      <trkpt lat="48.8016" lon="2.19197">
        <ele>173</ele>
        <time>2016-02-21T12:32:22.000Z</time>
      </trkpt>
      <trkpt lat="48.80163" lon="2.19212">
        <ele>174</ele>
        <time>2016-02-21T12:32:24.000Z</time>
      </trkpt>
      <trkpt lat="48.80163" lon="2.19212">
        <ele>174</ele>
        <time>2016-02-21T12:32:28.000Z</time>
      </trkpt>
      <trkpt lat="48.80162" lon="2.19231">
        <ele>175</ele>
        <time>2016-02-21T12:32:42.000Z</time>
      </trkpt>
      <trkpt lat="48.80162" lon="2.19241">
        <ele>175</ele>
        <time>2016-02-21T12:32:44.000Z</time>
      </trkpt>
      <trkpt lat="48.80162" lon="2.19241">
        <ele>175</ele>
        <time>2016-02-21T12:32:48.000Z</time>
      </trkpt>
      <trkpt lat="48.80162" lon="2.19241">
        <ele>175</ele>
        <time>2016-02-21T12:33:14.000Z</time>
      </trkpt>
      <trkpt lat="48.8019" lon="2.19276">
        <ele>177</ele>
        <time>2016-02-21T12:34:01.000Z</time>
      </trkpt>
      <trkpt lat="48.80204" lon="2.19294">
        <ele>177</ele>
        <time>2016-02-21T12:34:03.000Z</time>
      </trkpt>
      <trkpt lat="48.80214" lon="2.19305">
        <ele>176</ele>
        <time>2016-02-21T12:34:05.000Z</time>
      </trkpt>
      <trkpt lat="48.80214" lon="2.19305">
        <ele>176</ele>
        <time>2016-02-21T12:34:09.000Z</time>
      </trkpt>
      <trkpt lat="48.80214" lon="2.19305">
        <ele>176</ele>
        <time>2016-02-21T12:34:11.000Z</time>
      </trkpt>
      <trkpt lat="48.80225" lon="2.19312">
        <ele>177</ele>
        <time>2016-02-21T12:34:17.000Z</time>
      </trkpt>
      <trkpt lat="48.80232" lon="2.19316">
        <ele>177</ele>
        <time>2016-02-21T12:34:19.000Z</time>
      </trkpt>
      <trkpt lat="48.80237" lon="2.1932">
        <ele>177</ele>
        <time>2016-02-21T12:34:21.000Z</time>
      </trkpt>
      <trkpt lat="48.80237" lon="2.1932">
        <ele>177</ele>
        <time>2016-02-21T12:34:23.000Z</time>
      </trkpt>
      <trkpt lat="48.80237" lon="2.1932">
        <ele>177</ele>
        <time>2016-02-21T12:34:25.000Z</time>
      </trkpt>
      <trkpt lat="48.80237" lon="2.1932">
        <ele>177</ele>
        <time>2016-02-21T12:34:49.000Z</time>
      </trkpt>
      <trkpt lat="48.80249" lon="2.19364">
        <ele>173</ele>
        <time>2016-02-21T12:35:14.000Z</time>
      </trkpt>
      <trkpt lat="48.80255" lon="2.19387">
        <ele>173</ele>
        <time>2016-02-21T12:35:16.000Z</time>
      </trkpt>
      <trkpt lat="48.80258" lon="2.19401">
        <ele>173</ele>
        <time>2016-02-21T12:35:18.000Z</time>
      </trkpt>
      <trkpt lat="48.80259" lon="2.19409">
        <ele>173</ele>
        <time>2016-02-21T12:35:20.000Z</time>
      </trkpt>
      <trkpt lat="48.80259" lon="2.19409">
        <ele>173</ele>
        <time>2016-02-21T12:35:22.000Z</time>
      </trkpt>
      <trkpt lat="48.80278" lon="2.19429">
        <ele>171</ele>
        <time>2016-02-21T12:36:09.000Z</time>
      </trkpt>
      <trkpt lat="48.80288" lon="2.19439">
        <ele>171</ele>
        <time>2016-02-21T12:36:11.000Z</time>
      </trkpt>
      <trkpt lat="48.80294" lon="2.19444">
        <ele>171</ele>
        <time>2016-02-21T12:36:13.000Z</time>
      </trkpt>
      <trkpt lat="48.80298" lon="2.19447">
        <ele>171</ele>
        <time>2016-02-21T12:36:15.000Z</time>
      </trkpt>
      <trkpt lat="48.80298" lon="2.19447">
        <ele>171</ele>
        <time>2016-02-21T12:36:17.000Z</time>
      </trkpt>
      <trkpt lat="48.80298" lon="2.19447">
        <ele>171</ele>
        <time>2016-02-21T12:36:19.000Z</time>
      </trkpt>
      <trkpt lat="48.80298" lon="2.19447">
        <ele>171</ele>
        <time>2016-02-21T12:36:21.000Z</time>
      </trkpt>
      <trkpt lat="48.80298" lon="2.19447">
        <ele>171</ele>
        <time>2016-02-21T12:36:23.000Z</time>
      </trkpt>
      <trkpt lat="48.80298" lon="2.19447">
        <ele>171</ele>
        <time>2016-02-21T12:36:35.000Z</time>
      </trkpt>
      <trkpt lat="48.80298" lon="2.19447">
        <ele>171</ele>
        <time>2016-02-21T12:36:37.000Z</time>
      </trkpt>
      <trkpt lat="48.80321" lon="2.19458">
        <ele>179</ele>
        <time>2016-02-21T12:36:57.000Z</time>
      </trkpt>
      <trkpt lat="48.80333" lon="2.19466">
        <ele>180</ele>
        <time>2016-02-21T12:36:59.000Z</time>
      </trkpt>
      <trkpt lat="48.80341" lon="2.19472">
        <ele>181</ele>
        <time>2016-02-21T12:37:01.000Z</time>
      </trkpt>
      <trkpt lat="48.80344" lon="2.19476">
        <ele>181</ele>
        <time>2016-02-21T12:37:03.000Z</time>
      </trkpt>
      <trkpt lat="48.8034" lon="2.19481">
        <ele>182</ele>
        <time>2016-02-21T12:37:09.000Z</time>
      </trkpt>
      <trkpt lat="48.8034" lon="2.19481">
        <ele>182</ele>
        <time>2016-02-21T12:37:11.000Z</time>
      </trkpt>
      <trkpt lat="48.8034" lon="2.19481">
        <ele>182</ele>
        <time>2016-02-21T12:37:13.000Z</time>
      </trkpt>
      <trkpt lat="48.8034" lon="2.19481">
        <ele>182</ele>
        <time>2016-02-21T12:37:15.000Z</time>
      </trkpt>
      <trkpt lat="48.8034" lon="2.19481">
        <ele>182</ele>
        <time>2016-02-21T12:37:19.000Z</time>
      </trkpt>
      <trkpt lat="48.8034" lon="2.19481">
        <ele>182</ele>
        <time>2016-02-21T12:37:21.000Z</time>
      </trkpt>
      <trkpt lat="48.8034" lon="2.19481">
        <ele>182</ele>
        <time>2016-02-21T12:37:29.000Z</time>
      </trkpt>
      <trkpt lat="48.8034" lon="2.19481">
        <ele>182</ele>
        <time>2016-02-21T12:37:47.000Z</time>
      </trkpt>
      <trkpt lat="48.8034" lon="2.19481">
        <ele>182</ele>
        <time>2016-02-21T12:37:49.000Z</time>
      </trkpt>
      <trkpt lat="48.80312" lon="2.19495">
        <ele>174</ele>
        <time>2016-02-21T12:38:05.000Z</time>
      </trkpt>
      <trkpt lat="48.80312" lon="2.19495">
        <ele>174</ele>
        <time>2016-02-21T12:38:10.000Z</time>
      </trkpt>
      <trkpt lat="48.80312" lon="2.19495">
        <ele>174</ele>
        <time>2016-02-21T12:38:22.000Z</time>
      </trkpt>
      <trkpt lat="48.80312" lon="2.19495">
        <ele>174</ele>
        <time>2016-02-21T12:38:31.000Z</time>
      </trkpt>
      <trkpt lat="48.80312" lon="2.19495">
        <ele>174</ele>
        <time>2016-02-21T12:38:33.000Z</time>
      </trkpt>
      <trkpt lat="48.80312" lon="2.19495">
        <ele>174</ele>
        <time>2016-02-21T12:38:35.000Z</time>
      </trkpt>
      <trkpt lat="48.80312" lon="2.19495">
        <ele>174</ele>
        <time>2016-02-21T12:38:37.000Z</time>
      </trkpt>
      <trkpt lat="48.80312" lon="2.19495">
        <ele>174</ele>
        <time>2016-02-21T12:38:43.000Z</time>
      </trkpt>
      <trkpt lat="48.80312" lon="2.19495">
        <ele>174</ele>
        <time>2016-02-21T12:38:45.000Z</time>
      </trkpt>
      <trkpt lat="48.80266" lon="2.19531">
        <ele>171</ele>
        <time>2016-02-21T12:39:13.000Z</time>
      </trkpt>
      <trkpt lat="48.80241" lon="2.1955">
        <ele>171</ele>
        <time>2016-02-21T12:39:15.000Z</time>
      </trkpt>
      <trkpt lat="48.80241" lon="2.1955">
        <ele>171</ele>
        <time>2016-02-21T12:39:17.000Z</time>
      </trkpt>
      <trkpt lat="48.80241" lon="2.1955">
        <ele>171</ele>
        <time>2016-02-21T12:39:54.000Z</time>
      </trkpt>
      <trkpt lat="48.80204" lon="2.19581">
        <ele>167</ele>
        <time>2016-02-21T12:40:15.000Z</time>
      </trkpt>
      <trkpt lat="48.80184" lon="2.19598">
        <ele>167</ele>
        <time>2016-02-21T12:40:17.000Z</time>
      </trkpt>
      <trkpt lat="48.80184" lon="2.19598">
        <ele>167</ele>
        <time>2016-02-21T12:40:19.000Z</time>
      </trkpt>
      <trkpt lat="48.8017" lon="2.19609">
        <ele>167</ele>
        <time>2016-02-21T12:40:23.000Z</time>
      </trkpt>
      <trkpt lat="48.80162" lon="2.19615">
        <ele>167</ele>
        <time>2016-02-21T12:40:25.000Z</time>
      </trkpt>
      <trkpt lat="48.80154" lon="2.1962">
        <ele>166</ele>
        <time>2016-02-21T12:40:30.000Z</time>
      </trkpt>
      <trkpt lat="48.80149" lon="2.19622">
        <ele>166</ele>
        <time>2016-02-21T12:40:32.000Z</time>
      </trkpt>
      <trkpt lat="48.80149" lon="2.19622">
        <ele>166</ele>
        <time>2016-02-21T12:40:34.000Z</time>
      </trkpt>
      <trkpt lat="48.80144" lon="2.19624">
        <ele>166</ele>
        <time>2016-02-21T12:40:36.000Z</time>
      </trkpt>
      <trkpt lat="48.8014" lon="2.19625">
        <ele>165</ele>
        <time>2016-02-21T12:40:38.000Z</time>
      </trkpt>
      <trkpt lat="48.80136" lon="2.19626">
        <ele>165</ele>
        <time>2016-02-21T12:40:40.000Z</time>
      </trkpt>
      <trkpt lat="48.80133" lon="2.19628">
        <ele>164</ele>
        <time>2016-02-21T12:40:42.000Z</time>
      </trkpt>
      <trkpt lat="48.80133" lon="2.19628">
        <ele>164</ele>
        <time>2016-02-21T12:40:44.000Z</time>
      </trkpt>
      <trkpt lat="48.8013" lon="2.19628">
        <ele>163</ele>
        <time>2016-02-21T12:40:46.000Z</time>
      </trkpt>
      <trkpt lat="48.8013" lon="2.19628">
        <ele>163</ele>
        <time>2016-02-21T12:40:54.000Z</time>
      </trkpt>
      <trkpt lat="48.8013" lon="2.19628">
        <ele>163</ele>
        <time>2016-02-21T12:40:56.000Z</time>
      </trkpt>
      <trkpt lat="48.8013" lon="2.19628">
        <ele>163</ele>
        <time>2016-02-21T12:40:58.000Z</time>
      </trkpt>
      <trkpt lat="48.8013" lon="2.19628">
        <ele>163</ele>
        <time>2016-02-21T12:41:11.000Z</time>
      </trkpt>
      <trkpt lat="48.8013" lon="2.19628">
        <ele>163</ele>
        <time>2016-02-21T12:41:13.000Z</time>
      </trkpt>
      <trkpt lat="48.8013" lon="2.19628">
        <ele>163</ele>
        <time>2016-02-21T12:41:17.000Z</time>
      </trkpt>
      <trkpt lat="48.8013" lon="2.19628">
        <ele>163</ele>
        <time>2016-02-21T12:41:19.000Z</time>
      </trkpt>
      <trkpt lat="48.8013" lon="2.19628">
        <ele>163</ele>
        <time>2016-02-21T12:41:21.000Z</time>
      </trkpt>
      <trkpt lat="48.8013" lon="2.19628">
        <ele>163</ele>
        <time>2016-02-21T12:41:23.000Z</time>
      </trkpt>
      <trkpt lat="48.80113" lon="2.19646">
        <ele>158</ele>
        <time>2016-02-21T12:42:15.000Z</time>
      </trkpt>
      <trkpt lat="48.80103" lon="2.19655">
        <ele>158</ele>
        <time>2016-02-21T12:42:17.000Z</time>
      </trkpt>
      <trkpt lat="48.80099" lon="2.19661">
        <ele>158</ele>
        <time>2016-02-21T12:42:19.000Z</time>
      </trkpt>
      <trkpt lat="48.80099" lon="2.19661">
        <ele>158</ele>
        <time>2016-02-21T12:42:21.000Z</time>
      </trkpt>
      <trkpt lat="48.80094" lon="2.19665">
        <ele>158</ele>
        <time>2016-02-21T12:42:23.000Z</time>
      </trkpt>
      <trkpt lat="48.80094" lon="2.19665">
        <ele>158</ele>
        <time>2016-02-21T12:42:25.000Z</time>
      </trkpt>
      <trkpt lat="48.80094" lon="2.19665">
        <ele>158</ele>
        <time>2016-02-21T12:42:27.000Z</time>
      </trkpt>
      <trkpt lat="48.80094" lon="2.19665">
        <ele>158</ele>
        <time>2016-02-21T12:42:30.000Z</time>
      </trkpt>
      <trkpt lat="48.8008" lon="2.19674">
        <ele>155</ele>
        <time>2016-02-21T12:42:38.000Z</time>
      </trkpt>
      <trkpt lat="48.80072" lon="2.19679">
        <ele>155</ele>
        <time>2016-02-21T12:42:40.000Z</time>
      </trkpt>
      <trkpt lat="48.80066" lon="2.19682">
        <ele>155</ele>
        <time>2016-02-21T12:42:42.000Z</time>
      </trkpt>
      <trkpt lat="48.80066" lon="2.19682">
        <ele>155</ele>
        <time>2016-02-21T12:42:44.000Z</time>
      </trkpt>
      <trkpt lat="48.8006" lon="2.19685">
        <ele>154</ele>
        <time>2016-02-21T12:42:46.000Z</time>
      </trkpt>
      <trkpt lat="48.80054" lon="2.19688">
        <ele>154</ele>
        <time>2016-02-21T12:42:50.000Z</time>
      </trkpt>
      <trkpt lat="48.80051" lon="2.19691">
        <ele>154</ele>
        <time>2016-02-21T12:42:52.000Z</time>
      </trkpt>
      <trkpt lat="48.80051" lon="2.19691">
        <ele>154</ele>
        <time>2016-02-21T12:42:54.000Z</time>
      </trkpt>
      <trkpt lat="48.80049" lon="2.19695">
        <ele>154</ele>
        <time>2016-02-21T12:42:56.000Z</time>
      </trkpt>
      <trkpt lat="48.80049" lon="2.19695">
        <ele>154</ele>
        <time>2016-02-21T12:42:58.000Z</time>
      </trkpt>
      <trkpt lat="48.80049" lon="2.19695">
        <ele>154</ele>
        <time>2016-02-21T12:43:00.000Z</time>
      </trkpt>
      <trkpt lat="48.80049" lon="2.19695">
        <ele>154</ele>
        <time>2016-02-21T12:43:02.000Z</time>
      </trkpt>
      <trkpt lat="48.80049" lon="2.19695">
        <ele>154</ele>
        <time>2016-02-21T12:43:14.000Z</time>
      </trkpt>
      <trkpt lat="48.80049" lon="2.19695">
        <ele>154</ele>
        <time>2016-02-21T12:43:16.000Z</time>
      </trkpt>
      <trkpt lat="48.80027" lon="2.1971">
        <ele>154</ele>
        <time>2016-02-21T12:43:42.000Z</time>
      </trkpt>
      <trkpt lat="48.80027" lon="2.1971">
        <ele>154</ele>
        <time>2016-02-21T12:43:44.000Z</time>
      </trkpt>
      <trkpt lat="48.80027" lon="2.1971">
        <ele>154</ele>
        <time>2016-02-21T12:43:46.000Z</time>
      </trkpt>
      <trkpt lat="48.80013" lon="2.19722">
        <ele>153</ele>
        <time>2016-02-21T12:43:50.000Z</time>
      </trkpt>
      <trkpt lat="48.80005" lon="2.19728">
        <ele>153</ele>
        <time>2016-02-21T12:43:52.000Z</time>
      </trkpt>
      <trkpt lat="48.8" lon="2.19732">
        <ele>152</ele>
        <time>2016-02-21T12:43:54.000Z</time>
      </trkpt>
      <trkpt lat="48.8" lon="2.19732">
        <ele>152</ele>
        <time>2016-02-21T12:43:56.000Z</time>
      </trkpt>
      <trkpt lat="48.79996" lon="2.19734">
        <ele>152</ele>
        <time>2016-02-21T12:43:58.000Z</time>
      </trkpt>
      <trkpt lat="48.79993" lon="2.19736">
        <ele>151</ele>
        <time>2016-02-21T12:44:00.000Z</time>
      </trkpt>
      <trkpt lat="48.79993" lon="2.19736">
        <ele>151</ele>
        <time>2016-02-21T12:44:02.000Z</time>
      </trkpt>
      <trkpt lat="48.7999" lon="2.19738">
        <ele>151</ele>
        <time>2016-02-21T12:44:04.000Z</time>
      </trkpt>
      <trkpt lat="48.79987" lon="2.1974">
        <ele>151</ele>
        <time>2016-02-21T12:44:06.000Z</time>
      </trkpt>
      <trkpt lat="48.79984" lon="2.19742">
        <ele>151</ele>
        <time>2016-02-21T12:44:08.000Z</time>
      </trkpt>
      <trkpt lat="48.79984" lon="2.19742">
        <ele>151</ele>
        <time>2016-02-21T12:44:12.000Z</time>
      </trkpt>
      <trkpt lat="48.79984" lon="2.19742">
        <ele>151</ele>
        <time>2016-02-21T12:44:14.000Z</time>
      </trkpt>
      <trkpt lat="48.79979" lon="2.19746">
        <ele>150</ele>
        <time>2016-02-21T12:44:16.000Z</time>
      </trkpt>
      <trkpt lat="48.79974" lon="2.19748">
        <ele>150</ele>
        <time>2016-02-21T12:44:18.000Z</time>
      </trkpt>
      <trkpt lat="48.7997" lon="2.19749">
        <ele>151</ele>
        <time>2016-02-21T12:44:20.000Z</time>
      </trkpt>
      <trkpt lat="48.79967" lon="2.19751">
        <ele>151</ele>
        <time>2016-02-21T12:44:22.000Z</time>
      </trkpt>
      <trkpt lat="48.79967" lon="2.19751">
        <ele>151</ele>
        <time>2016-02-21T12:44:24.000Z</time>
      </trkpt>
      <trkpt lat="48.79963" lon="2.19754">
        <ele>151</ele>
        <time>2016-02-21T12:44:26.000Z</time>
      </trkpt>
      <trkpt lat="48.79963" lon="2.19754">
        <ele>151</ele>
        <time>2016-02-21T12:44:28.000Z</time>
      </trkpt>
      <trkpt lat="48.79963" lon="2.19754">
        <ele>151</ele>
        <time>2016-02-21T12:44:30.000Z</time>
      </trkpt>
      <trkpt lat="48.79963" lon="2.19754">
        <ele>151</ele>
        <time>2016-02-21T12:44:32.000Z</time>
      </trkpt>
      <trkpt lat="48.79963" lon="2.19754">
        <ele>151</ele>
        <time>2016-02-21T12:44:38.000Z</time>
      </trkpt>
      <trkpt lat="48.79953" lon="2.19762">
        <ele>152</ele>
        <time>2016-02-21T12:44:52.000Z</time>
      </trkpt>
      <trkpt lat="48.79947" lon="2.19767">
        <ele>152</ele>
        <time>2016-02-21T12:44:54.000Z</time>
      </trkpt>
      <trkpt lat="48.79947" lon="2.19767">
        <ele>152</ele>
        <time>2016-02-21T12:44:56.000Z</time>
      </trkpt>
      <trkpt lat="48.79929" lon="2.19811">
        <ele>149</ele>
        <time>2016-02-21T12:46:06.000Z</time>
      </trkpt>
      <trkpt lat="48.79916" lon="2.19835">
        <ele>149</ele>
        <time>2016-02-21T12:46:08.000Z</time>
      </trkpt>
      <trkpt lat="48.79916" lon="2.19835">
        <ele>149</ele>
        <time>2016-02-21T12:46:10.000Z</time>
      </trkpt>
      <trkpt lat="48.79916" lon="2.19835">
        <ele>149</ele>
        <time>2016-02-21T12:46:16.000Z</time>
      </trkpt>
      <trkpt lat="48.79916" lon="2.19835">
        <ele>149</ele>
        <time>2016-02-21T12:46:18.000Z</time>
      </trkpt>
      <trkpt lat="48.79916" lon="2.19835">
        <ele>149</ele>
        <time>2016-02-21T12:46:24.000Z</time>
      </trkpt>
      <trkpt lat="48.79903" lon="2.19856">
        <ele>152</ele>
        <time>2016-02-21T12:46:56.000Z</time>
      </trkpt>
      <trkpt lat="48.79896" lon="2.19865">
        <ele>152</ele>
        <time>2016-02-21T12:46:58.000Z</time>
      </trkpt>
      <trkpt lat="48.79896" lon="2.19865">
        <ele>152</ele>
        <time>2016-02-21T12:47:00.000Z</time>
      </trkpt>
      <trkpt lat="48.79886" lon="2.19859">
        <ele>156</ele>
        <time>2016-02-21T12:47:22.000Z</time>
      </trkpt>
      <trkpt lat="48.79881" lon="2.19855">
        <ele>156</ele>
        <time>2016-02-21T12:47:24.000Z</time>
      </trkpt>
      <trkpt lat="48.79878" lon="2.19852">
        <ele>157</ele>
        <time>2016-02-21T12:47:26.000Z</time>
      </trkpt>
      <trkpt lat="48.79878" lon="2.19852">
        <ele>157</ele>
        <time>2016-02-21T12:47:28.000Z</time>
      </trkpt>
      <trkpt lat="48.79878" lon="2.19852">
        <ele>157</ele>
        <time>2016-02-21T12:47:30.000Z</time>
      </trkpt>
      <trkpt lat="48.79876" lon="2.19849">
        <ele>155</ele>
        <time>2016-02-21T12:47:38.000Z</time>
      </trkpt>
      <trkpt lat="48.79876" lon="2.19849">
        <ele>155</ele>
        <time>2016-02-21T12:47:40.000Z</time>
      </trkpt>
      <trkpt lat="48.79867" lon="2.19841">
        <ele>153</ele>
        <time>2016-02-21T12:47:58.000Z</time>
      </trkpt>
      <trkpt lat="48.79862" lon="2.19835">
        <ele>153</ele>
        <time>2016-02-21T12:48:00.000Z</time>
      </trkpt>
      <trkpt lat="48.79859" lon="2.19832">
        <ele>153</ele>
        <time>2016-02-21T12:48:02.000Z</time>
      </trkpt>
      <trkpt lat="48.79859" lon="2.19832">
        <ele>153</ele>
        <time>2016-02-21T12:48:04.000Z</time>
      </trkpt>
      <trkpt lat="48.79856" lon="2.19829">
        <ele>152</ele>
        <time>2016-02-21T12:48:06.000Z</time>
      </trkpt>
      <trkpt lat="48.79856" lon="2.19829">
        <ele>152</ele>
        <time>2016-02-21T12:48:08.000Z</time>
      </trkpt>
      <trkpt lat="48.79853" lon="2.19824">
        <ele>152</ele>
        <time>2016-02-21T12:48:10.000Z</time>
      </trkpt>
      <trkpt lat="48.79851" lon="2.1982">
        <ele>152</ele>
        <time>2016-02-21T12:48:12.000Z</time>
      </trkpt>
      <trkpt lat="48.79851" lon="2.1982">
        <ele>152</ele>
        <time>2016-02-21T12:48:14.000Z</time>
      </trkpt>
      <trkpt lat="48.79849" lon="2.19817">
        <ele>152</ele>
        <time>2016-02-21T12:48:16.000Z</time>
      </trkpt>
      <trkpt lat="48.79847" lon="2.19814">
        <ele>152</ele>
        <time>2016-02-21T12:48:18.000Z</time>
      </trkpt>
      <trkpt lat="48.79844" lon="2.19809">
        <ele>151</ele>
        <time>2016-02-21T12:48:22.000Z</time>
      </trkpt>
      <trkpt lat="48.79841" lon="2.19804">
        <ele>151</ele>
        <time>2016-02-21T12:48:26.000Z</time>
      </trkpt>
      <trkpt lat="48.79839" lon="2.198">
        <ele>151</ele>
        <time>2016-02-21T12:48:28.000Z</time>
      </trkpt>
      <trkpt lat="48.79836" lon="2.19794">
        <ele>151</ele>
        <time>2016-02-21T12:48:34.000Z</time>
      </trkpt>
      <trkpt lat="48.79833" lon="2.19789">
        <ele>151</ele>
        <time>2016-02-21T12:48:36.000Z</time>
      </trkpt>
      <trkpt lat="48.79831" lon="2.19785">
        <ele>151</ele>
        <time>2016-02-21T12:48:40.000Z</time>
      </trkpt>
      <trkpt lat="48.79829" lon="2.19781">
        <ele>151</ele>
        <time>2016-02-21T12:48:42.000Z</time>
      </trkpt>
      <trkpt lat="48.79829" lon="2.19781">
        <ele>151</ele>
        <time>2016-02-21T12:48:44.000Z</time>
      </trkpt>
      <trkpt lat="48.79827" lon="2.19777">
        <ele>151</ele>
        <time>2016-02-21T12:48:46.000Z</time>
      </trkpt>
      <trkpt lat="48.79825" lon="2.19773">
        <ele>151</ele>
        <time>2016-02-21T12:48:48.000Z</time>
      </trkpt>
      <trkpt lat="48.79825" lon="2.19773">
        <ele>151</ele>
        <time>2016-02-21T12:48:50.000Z</time>
      </trkpt>
      <trkpt lat="48.79822" lon="2.19768">
        <ele>151</ele>
        <time>2016-02-21T12:48:52.000Z</time>
      </trkpt>
      <trkpt lat="48.79822" lon="2.19768">
        <ele>151</ele>
        <time>2016-02-21T12:48:54.000Z</time>
      </trkpt>
      <trkpt lat="48.79819" lon="2.19768">
        <ele>150</ele>
        <time>2016-02-21T12:48:56.000Z</time>
      </trkpt>
      <trkpt lat="48.79815" lon="2.19768">
        <ele>150</ele>
        <time>2016-02-21T12:48:58.000Z</time>
      </trkpt>
      <trkpt lat="48.79811" lon="2.19768">
        <ele>149</ele>
        <time>2016-02-21T12:49:00.000Z</time>
      </trkpt>
      <trkpt lat="48.79808" lon="2.19768">
        <ele>149</ele>
        <time>2016-02-21T12:49:02.000Z</time>
      </trkpt>
      <trkpt lat="48.79805" lon="2.19766">
        <ele>148</ele>
        <time>2016-02-21T12:49:06.000Z</time>
      </trkpt>
      <trkpt lat="48.79805" lon="2.19766">
        <ele>148</ele>
        <time>2016-02-21T12:49:08.000Z</time>
      </trkpt>
      <trkpt lat="48.79805" lon="2.19766">
        <ele>148</ele>
        <time>2016-02-21T12:49:10.000Z</time>
      </trkpt>
      <trkpt lat="48.79805" lon="2.19766">
        <ele>148</ele>
        <time>2016-02-21T12:49:12.000Z</time>
      </trkpt>
      <trkpt lat="48.79805" lon="2.19766">
        <ele>148</ele>
        <time>2016-02-21T12:49:14.000Z</time>
      </trkpt>
      <trkpt lat="48.79805" lon="2.19766">
        <ele>148</ele>
        <time>2016-02-21T12:49:16.000Z</time>
      </trkpt>
      <trkpt lat="48.79795" lon="2.19747">
        <ele>151</ele>
        <time>2016-02-21T12:49:45.000Z</time>
      </trkpt>
      <trkpt lat="48.7979" lon="2.19736">
        <ele>151</ele>
        <time>2016-02-21T12:49:47.000Z</time>
      </trkpt>
      <trkpt lat="48.79786" lon="2.19729">
        <ele>151</ele>
        <time>2016-02-21T12:49:49.000Z</time>
      </trkpt>
      <trkpt lat="48.79783" lon="2.19723">
        <ele>151</ele>
        <time>2016-02-21T12:49:53.000Z</time>
      </trkpt>
      <trkpt lat="48.7978" lon="2.19719">
        <ele>151</ele>
        <time>2016-02-21T12:49:55.000Z</time>
      </trkpt>
      <trkpt lat="48.79778" lon="2.19716">
        <ele>151</ele>
        <time>2016-02-21T12:49:57.000Z</time>
      </trkpt>
      <trkpt lat="48.79776" lon="2.19712">
        <ele>152</ele>
        <time>2016-02-21T12:50:01.000Z</time>
      </trkpt>
      <trkpt lat="48.79776" lon="2.19712">
        <ele>152</ele>
        <time>2016-02-21T12:50:03.000Z</time>
      </trkpt>
      <trkpt lat="48.79776" lon="2.19712">
        <ele>152</ele>
        <time>2016-02-21T12:50:05.000Z</time>
      </trkpt>
      <trkpt lat="48.79773" lon="2.19707">
        <ele>152</ele>
        <time>2016-02-21T12:50:07.000Z</time>
      </trkpt>
      <trkpt lat="48.79771" lon="2.19703">
        <ele>152</ele>
        <time>2016-02-21T12:50:09.000Z</time>
      </trkpt>
      <trkpt lat="48.79768" lon="2.19699">
        <ele>152</ele>
        <time>2016-02-21T12:50:13.000Z</time>
      </trkpt>
      <trkpt lat="48.79766" lon="2.19696">
        <ele>153</ele>
        <time>2016-02-21T12:50:15.000Z</time>
      </trkpt>
      <trkpt lat="48.79764" lon="2.19692">
        <ele>153</ele>
        <time>2016-02-21T12:50:19.000Z</time>
      </trkpt>
      <trkpt lat="48.79762" lon="2.19688">
        <ele>153</ele>
        <time>2016-02-21T12:50:23.000Z</time>
      </trkpt>
      <trkpt lat="48.79762" lon="2.19688">
        <ele>153</ele>
        <time>2016-02-21T12:50:25.000Z</time>
      </trkpt>
      <trkpt lat="48.79761" lon="2.19684">
        <ele>154</ele>
        <time>2016-02-21T12:50:27.000Z</time>
      </trkpt>
      <trkpt lat="48.79761" lon="2.19684">
        <ele>154</ele>
        <time>2016-02-21T12:50:29.000Z</time>
      </trkpt>
      <trkpt lat="48.7976" lon="2.1968">
        <ele>154</ele>
        <time>2016-02-21T12:50:31.000Z</time>
      </trkpt>
      <trkpt lat="48.7976" lon="2.1968">
        <ele>154</ele>
        <time>2016-02-21T12:50:33.000Z</time>
      </trkpt>
      <trkpt lat="48.79758" lon="2.19676">
        <ele>154</ele>
        <time>2016-02-21T12:50:35.000Z</time>
      </trkpt>
      <trkpt lat="48.79758" lon="2.19676">
        <ele>154</ele>
        <time>2016-02-21T12:50:37.000Z</time>
      </trkpt>
      <trkpt lat="48.79758" lon="2.1967">
        <ele>154</ele>
        <time>2016-02-21T12:50:39.000Z</time>
      </trkpt>
      <trkpt lat="48.79757" lon="2.19666">
        <ele>154</ele>
        <time>2016-02-21T12:50:41.000Z</time>
      </trkpt>
      <trkpt lat="48.79757" lon="2.19666">
        <ele>154</ele>
        <time>2016-02-21T12:50:43.000Z</time>
      </trkpt>
      <trkpt lat="48.79755" lon="2.19661">
        <ele>154</ele>
        <time>2016-02-21T12:50:45.000Z</time>
      </trkpt>
      <trkpt lat="48.79755" lon="2.19661">
        <ele>154</ele>
        <time>2016-02-21T12:50:47.000Z</time>
      </trkpt>
      <trkpt lat="48.79755" lon="2.19661">
        <ele>154</ele>
        <time>2016-02-21T12:50:49.000Z</time>
      </trkpt>
      <trkpt lat="48.79755" lon="2.19661">
        <ele>154</ele>
        <time>2016-02-21T12:50:51.000Z</time>
      </trkpt>
      <trkpt lat="48.79755" lon="2.19661">
        <ele>154</ele>
        <time>2016-02-21T12:50:53.000Z</time>
      </trkpt>
      <trkpt lat="48.79755" lon="2.19661">
        <ele>154</ele>
        <time>2016-02-21T12:51:05.000Z</time>
      </trkpt>
      <trkpt lat="48.79755" lon="2.19661">
        <ele>154</ele>
        <time>2016-02-21T12:51:07.000Z</time>
      </trkpt>
      <trkpt lat="48.79753" lon="2.19643">
        <ele>156</ele>
        <time>2016-02-21T12:51:21.000Z</time>
      </trkpt>
      <trkpt lat="48.79752" lon="2.19634">
        <ele>156</ele>
        <time>2016-02-21T12:51:23.000Z</time>
      </trkpt>
      <trkpt lat="48.79751" lon="2.19629">
        <ele>156</ele>
        <time>2016-02-21T12:51:25.000Z</time>
      </trkpt>
      <trkpt lat="48.79751" lon="2.19629">
        <ele>156</ele>
        <time>2016-02-21T12:51:27.000Z</time>
      </trkpt>
      <trkpt lat="48.79751" lon="2.19629">
        <ele>156</ele>
        <time>2016-02-21T12:51:29.000Z</time>
      </trkpt>
      <trkpt lat="48.79751" lon="2.19629">
        <ele>156</ele>
        <time>2016-02-21T12:51:31.000Z</time>
      </trkpt>
      <trkpt lat="48.79751" lon="2.19629">
        <ele>156</ele>
        <time>2016-02-21T12:51:33.000Z</time>
      </trkpt>
      <trkpt lat="48.79751" lon="2.19629">
        <ele>156</ele>
        <time>2016-02-21T12:51:35.000Z</time>
      </trkpt>
      <trkpt lat="48.79751" lon="2.19629">
        <ele>156</ele>
        <time>2016-02-21T12:51:37.000Z</time>
      </trkpt>
      <trkpt lat="48.7975" lon="2.19618">
        <ele>156</ele>
        <time>2016-02-21T12:51:47.000Z</time>
      </trkpt>
      <trkpt lat="48.7975" lon="2.1961">
        <ele>155</ele>
        <time>2016-02-21T12:51:49.000Z</time>
      </trkpt>
      <trkpt lat="48.7975" lon="2.19605">
        <ele>155</ele>
        <time>2016-02-21T12:51:51.000Z</time>
      </trkpt>
      <trkpt lat="48.7975" lon="2.19601">
        <ele>155</ele>
        <time>2016-02-21T12:51:53.000Z</time>
      </trkpt>
      <trkpt lat="48.7975" lon="2.19596">
        <ele>155</ele>
        <time>2016-02-21T12:51:55.000Z</time>
      </trkpt>
      <trkpt lat="48.79749" lon="2.19585">
        <ele>155</ele>
        <time>2016-02-21T12:51:59.000Z</time>
      </trkpt>
      <trkpt lat="48.79749" lon="2.19574">
        <ele>156</ele>
        <time>2016-02-21T12:52:05.000Z</time>
      </trkpt>
      <trkpt lat="48.79749" lon="2.19574">
        <ele>156</ele>
        <time>2016-02-21T12:52:07.000Z</time>
      </trkpt>
      <trkpt lat="48.79749" lon="2.19574">
        <ele>156</ele>
        <time>2016-02-21T12:52:09.000Z</time>
      </trkpt>
      <trkpt lat="48.79748" lon="2.19565">
        <ele>156</ele>
        <time>2016-02-21T12:52:11.000Z</time>
      </trkpt>
      <trkpt lat="48.79748" lon="2.19565">
        <ele>156</ele>
        <time>2016-02-21T12:52:13.000Z</time>
      </trkpt>
      <trkpt lat="48.79748" lon="2.19565">
        <ele>156</ele>
        <time>2016-02-21T12:52:15.000Z</time>
      </trkpt>
      <trkpt lat="48.79749" lon="2.19554">
        <ele>156</ele>
        <time>2016-02-21T12:52:17.000Z</time>
      </trkpt>
      <trkpt lat="48.79749" lon="2.19554">
        <ele>156</ele>
        <time>2016-02-21T12:52:19.000Z</time>
      </trkpt>
      <trkpt lat="48.79749" lon="2.19554">
        <ele>156</ele>
        <time>2016-02-21T12:52:21.000Z</time>
      </trkpt>
      <trkpt lat="48.79751" lon="2.19543">
        <ele>156</ele>
        <time>2016-02-21T12:52:23.000Z</time>
      </trkpt>
      <trkpt lat="48.7975" lon="2.19533">
        <ele>156</ele>
        <time>2016-02-21T12:52:27.000Z</time>
      </trkpt>
      <trkpt lat="48.79749" lon="2.19524">
        <ele>156</ele>
        <time>2016-02-21T12:52:31.000Z</time>
      </trkpt>
      <trkpt lat="48.79747" lon="2.19514">
        <ele>156</ele>
        <time>2016-02-21T12:52:39.000Z</time>
      </trkpt>
      <trkpt lat="48.79747" lon="2.19514">
        <ele>156</ele>
        <time>2016-02-21T12:52:41.000Z</time>
      </trkpt>
      <trkpt lat="48.79747" lon="2.19514">
        <ele>156</ele>
        <time>2016-02-21T12:52:43.000Z</time>
      </trkpt>
      <trkpt lat="48.79746" lon="2.19502">
        <ele>156</ele>
        <time>2016-02-21T12:52:45.000Z</time>
      </trkpt>
      <trkpt lat="48.79746" lon="2.19502">
        <ele>156</ele>
        <time>2016-02-21T12:52:47.000Z</time>
      </trkpt>
      <trkpt lat="48.79747" lon="2.19493">
        <ele>156</ele>
        <time>2016-02-21T12:52:49.000Z</time>
      </trkpt>
      <trkpt lat="48.79747" lon="2.19484">
        <ele>156</ele>
        <time>2016-02-21T12:52:53.000Z</time>
      </trkpt>
      <trkpt lat="48.79747" lon="2.19474">
        <ele>156</ele>
        <time>2016-02-21T12:53:01.000Z</time>
      </trkpt>
      <trkpt lat="48.79747" lon="2.19474">
        <ele>156</ele>
        <time>2016-02-21T12:53:03.000Z</time>
      </trkpt>
      <trkpt lat="48.79747" lon="2.19464">
        <ele>156</ele>
        <time>2016-02-21T12:53:05.000Z</time>
      </trkpt>
      <trkpt lat="48.79747" lon="2.19464">
        <ele>156</ele>
        <time>2016-02-21T12:53:07.000Z</time>
      </trkpt>
      <trkpt lat="48.79747" lon="2.19464">
        <ele>156</ele>
        <time>2016-02-21T12:53:09.000Z</time>
      </trkpt>
      <trkpt lat="48.79747" lon="2.19464">
        <ele>156</ele>
        <time>2016-02-21T12:53:11.000Z</time>
      </trkpt>
      <trkpt lat="48.79748" lon="2.19453">
        <ele>155</ele>
        <time>2016-02-21T12:53:13.000Z</time>
      </trkpt>
      <trkpt lat="48.79748" lon="2.19453">
        <ele>155</ele>
        <time>2016-02-21T12:53:15.000Z</time>
      </trkpt>
      <trkpt lat="48.79748" lon="2.19442">
        <ele>155</ele>
        <time>2016-02-21T12:53:19.000Z</time>
      </trkpt>
      <trkpt lat="48.79748" lon="2.19442">
        <ele>155</ele>
        <time>2016-02-21T12:53:21.000Z</time>
      </trkpt>
      <trkpt lat="48.79748" lon="2.19432">
        <ele>154</ele>
        <time>2016-02-21T12:53:23.000Z</time>
      </trkpt>
      <trkpt lat="48.79748" lon="2.19432">
        <ele>154</ele>
        <time>2016-02-21T12:53:25.000Z</time>
      </trkpt>
      <trkpt lat="48.79748" lon="2.19432">
        <ele>154</ele>
        <time>2016-02-21T12:53:27.000Z</time>
      </trkpt>
      <trkpt lat="48.79748" lon="2.19432">
        <ele>154</ele>
        <time>2016-02-21T12:53:29.000Z</time>
      </trkpt>
      <trkpt lat="48.79748" lon="2.19432">
        <ele>154</ele>
        <time>2016-02-21T12:53:31.000Z</time>
      </trkpt>
      <trkpt lat="48.79748" lon="2.19425">
        <ele>154</ele>
        <time>2016-02-21T12:53:33.000Z</time>
      </trkpt>
      <trkpt lat="48.79748" lon="2.19419">
        <ele>154</ele>
        <time>2016-02-21T12:53:35.000Z</time>
      </trkpt>
      <trkpt lat="48.79747" lon="2.19414">
        <ele>154</ele>
        <time>2016-02-21T12:53:37.000Z</time>
      </trkpt>
      <trkpt lat="48.79747" lon="2.19408">
        <ele>154</ele>
        <time>2016-02-21T12:53:39.000Z</time>
      </trkpt>
      <trkpt lat="48.79747" lon="2.19408">
        <ele>154</ele>
        <time>2016-02-21T12:53:41.000Z</time>
      </trkpt>
      <trkpt lat="48.79746" lon="2.19401">
        <ele>154</ele>
        <time>2016-02-21T12:53:43.000Z</time>
      </trkpt>
      <trkpt lat="48.79745" lon="2.19395">
        <ele>153</ele>
        <time>2016-02-21T12:53:45.000Z</time>
      </trkpt>
      <trkpt lat="48.79744" lon="2.19389">
        <ele>153</ele>
        <time>2016-02-21T12:53:47.000Z</time>
      </trkpt>
      <trkpt lat="48.79744" lon="2.19389">
        <ele>153</ele>
        <time>2016-02-21T12:53:51.000Z</time>
      </trkpt>
      <trkpt lat="48.79743" lon="2.1938">
        <ele>153</ele>
        <time>2016-02-21T12:53:53.000Z</time>
      </trkpt>
      <trkpt lat="48.79742" lon="2.19373">
        <ele>152</ele>
        <time>2016-02-21T12:53:55.000Z</time>
      </trkpt>
      <trkpt lat="48.79742" lon="2.19367">
        <ele>152</ele>
        <time>2016-02-21T12:53:57.000Z</time>
      </trkpt>
      <trkpt lat="48.79742" lon="2.19362">
        <ele>152</ele>
        <time>2016-02-21T12:53:59.000Z</time>
      </trkpt>
      <trkpt lat="48.79742" lon="2.19356">
        <ele>152</ele>
        <time>2016-02-21T12:54:01.000Z</time>
      </trkpt>
      <trkpt lat="48.79742" lon="2.19356">
        <ele>152</ele>
        <time>2016-02-21T12:54:03.000Z</time>
      </trkpt>
      <trkpt lat="48.79741" lon="2.19346">
        <ele>152</ele>
        <time>2016-02-21T12:54:05.000Z</time>
      </trkpt>
      <trkpt lat="48.79741" lon="2.19346">
        <ele>152</ele>
        <time>2016-02-21T12:54:07.000Z</time>
      </trkpt>
      <trkpt lat="48.79741" lon="2.19332">
        <ele>152</ele>
        <time>2016-02-21T12:54:13.000Z</time>
      </trkpt>
      <trkpt lat="48.79741" lon="2.19332">
        <ele>152</ele>
        <time>2016-02-21T12:54:17.000Z</time>
      </trkpt>
      <trkpt lat="48.79741" lon="2.19332">
        <ele>152</ele>
        <time>2016-02-21T12:54:19.000Z</time>
      </trkpt>
      <trkpt lat="48.7974" lon="2.19317">
        <ele>152</ele>
        <time>2016-02-21T12:54:21.000Z</time>
      </trkpt>
      <trkpt lat="48.7974" lon="2.19317">
        <ele>152</ele>
        <time>2016-02-21T12:54:23.000Z</time>
      </trkpt>
      <trkpt lat="48.79741" lon="2.19306">
        <ele>152</ele>
        <time>2016-02-21T12:54:27.000Z</time>
      </trkpt>
      <trkpt lat="48.79741" lon="2.19306">
        <ele>152</ele>
        <time>2016-02-21T12:54:29.000Z</time>
      </trkpt>
      <trkpt lat="48.79741" lon="2.19306">
        <ele>152</ele>
        <time>2016-02-21T12:54:31.000Z</time>
      </trkpt>
      <trkpt lat="48.79741" lon="2.19306">
        <ele>152</ele>
        <time>2016-02-21T12:54:33.000Z</time>
      </trkpt>
      <trkpt lat="48.79741" lon="2.19306">
        <ele>152</ele>
        <time>2016-02-21T12:54:35.000Z</time>
      </trkpt>
      <trkpt lat="48.79737" lon="2.19261">
        <ele>153</ele>
        <time>2016-02-21T12:54:51.000Z</time>
      </trkpt>
      <trkpt lat="48.79737" lon="2.19261">
        <ele>153</ele>
        <time>2016-02-21T12:54:53.000Z</time>
      </trkpt>
      <trkpt lat="48.79737" lon="2.19261">
        <ele>153</ele>
        <time>2016-02-21T12:54:55.000Z</time>
      </trkpt>
      <trkpt lat="48.79734" lon="2.19247">
        <ele>153</ele>
        <time>2016-02-21T12:54:59.000Z</time>
      </trkpt>
      <trkpt lat="48.79734" lon="2.19247">
        <ele>153</ele>
        <time>2016-02-21T12:55:01.000Z</time>
      </trkpt>
      <trkpt lat="48.79734" lon="2.19247">
        <ele>153</ele>
        <time>2016-02-21T12:55:03.000Z</time>
      </trkpt>
      <trkpt lat="48.79734" lon="2.19247">
        <ele>153</ele>
        <time>2016-02-21T12:55:05.000Z</time>
      </trkpt>
      <trkpt lat="48.7973" lon="2.19228">
        <ele>153</ele>
        <time>2016-02-21T12:55:24.000Z</time>
      </trkpt>
      <trkpt lat="48.79728" lon="2.19218">
        <ele>153</ele>
        <time>2016-02-21T12:55:26.000Z</time>
      </trkpt>
      <trkpt lat="48.79727" lon="2.19212">
        <ele>153</ele>
        <time>2016-02-21T12:55:28.000Z</time>
      </trkpt>
      <trkpt lat="48.79727" lon="2.19212">
        <ele>153</ele>
        <time>2016-02-21T12:55:30.000Z</time>
      </trkpt>
      <trkpt lat="48.79727" lon="2.19212">
        <ele>153</ele>
        <time>2016-02-21T12:55:32.000Z</time>
      </trkpt>
      <trkpt lat="48.79727" lon="2.19205">
        <ele>153</ele>
        <time>2016-02-21T12:55:34.000Z</time>
      </trkpt>
      <trkpt lat="48.79727" lon="2.19205">
        <ele>153</ele>
        <time>2016-02-21T12:55:38.000Z</time>
      </trkpt>
      <trkpt lat="48.79727" lon="2.19205">
        <ele>153</ele>
        <time>2016-02-21T12:55:40.000Z</time>
      </trkpt>
      <trkpt lat="48.79728" lon="2.19187">
        <ele>152</ele>
        <time>2016-02-21T12:55:52.000Z</time>
      </trkpt>
      <trkpt lat="48.79729" lon="2.19175">
        <ele>152</ele>
        <time>2016-02-21T12:55:54.000Z</time>
      </trkpt>
      <trkpt lat="48.79729" lon="2.19166">
        <ele>152</ele>
        <time>2016-02-21T12:55:56.000Z</time>
      </trkpt>
      <trkpt lat="48.79729" lon="2.19161">
        <ele>152</ele>
        <time>2016-02-21T12:55:58.000Z</time>
      </trkpt>
      <trkpt lat="48.79729" lon="2.19161">
        <ele>152</ele>
        <time>2016-02-21T12:56:00.000Z</time>
      </trkpt>
      <trkpt lat="48.79729" lon="2.19161">
        <ele>152</ele>
        <time>2016-02-21T12:56:02.000Z</time>
      </trkpt>
      <trkpt lat="48.79729" lon="2.19161">
        <ele>152</ele>
        <time>2016-02-21T12:56:04.000Z</time>
      </trkpt>
      <trkpt lat="48.79729" lon="2.19161">
        <ele>152</ele>
        <time>2016-02-21T12:56:06.000Z</time>
      </trkpt>
      <trkpt lat="48.79726" lon="2.19133">
        <ele>153</ele>
        <time>2016-02-21T12:56:27.000Z</time>
      </trkpt>
      <trkpt lat="48.79725" lon="2.19117">
        <ele>153</ele>
        <time>2016-02-21T12:56:29.000Z</time>
      </trkpt>
      <trkpt lat="48.79726" lon="2.19108">
        <ele>153</ele>
        <time>2016-02-21T12:56:31.000Z</time>
      </trkpt>
      <trkpt lat="48.79726" lon="2.19101">
        <ele>153</ele>
        <time>2016-02-21T12:56:35.000Z</time>
      </trkpt>
      <trkpt lat="48.79727" lon="2.19096">
        <ele>153</ele>
        <time>2016-02-21T12:56:37.000Z</time>
      </trkpt>
      <trkpt lat="48.79727" lon="2.19096">
        <ele>153</ele>
        <time>2016-02-21T12:56:39.000Z</time>
      </trkpt>
      <trkpt lat="48.79728" lon="2.19089">
        <ele>153</ele>
        <time>2016-02-21T12:56:41.000Z</time>
      </trkpt>
      <trkpt lat="48.79729" lon="2.19084">
        <ele>153</ele>
        <time>2016-02-21T12:56:43.000Z</time>
      </trkpt>
      <trkpt lat="48.7973" lon="2.19077">
        <ele>153</ele>
        <time>2016-02-21T12:56:47.000Z</time>
      </trkpt>
      <trkpt lat="48.79731" lon="2.1907">
        <ele>153</ele>
        <time>2016-02-21T12:56:49.000Z</time>
      </trkpt>
      <trkpt lat="48.79731" lon="2.1907">
        <ele>153</ele>
        <time>2016-02-21T12:56:51.000Z</time>
      </trkpt>
      <trkpt lat="48.7973" lon="2.19057">
        <ele>154</ele>
        <time>2016-02-21T12:57:03.000Z</time>
      </trkpt>
      <trkpt lat="48.7973" lon="2.19049">
        <ele>154</ele>
        <time>2016-02-21T12:57:05.000Z</time>
      </trkpt>
      <trkpt lat="48.7973" lon="2.19044">
        <ele>154</ele>
        <time>2016-02-21T12:57:07.000Z</time>
      </trkpt>
      <trkpt lat="48.7973" lon="2.19044">
        <ele>154</ele>
        <time>2016-02-21T12:57:09.000Z</time>
      </trkpt>
      <trkpt lat="48.7973" lon="2.19039">
        <ele>154</ele>
        <time>2016-02-21T12:57:11.000Z</time>
      </trkpt>
      <trkpt lat="48.7973" lon="2.19039">
        <ele>154</ele>
        <time>2016-02-21T12:57:13.000Z</time>
      </trkpt>
      <trkpt lat="48.7973" lon="2.19039">
        <ele>154</ele>
        <time>2016-02-21T12:57:15.000Z</time>
      </trkpt>
      <trkpt lat="48.7973" lon="2.19039">
        <ele>154</ele>
        <time>2016-02-21T12:57:17.000Z</time>
      </trkpt>
      <trkpt lat="48.79732" lon="2.1903">
        <ele>154</ele>
        <time>2016-02-21T12:57:19.000Z</time>
      </trkpt>
      <trkpt lat="48.79733" lon="2.19023">
        <ele>154</ele>
        <time>2016-02-21T12:57:23.000Z</time>
      </trkpt>
      <trkpt lat="48.79734" lon="2.19018">
        <ele>154</ele>
        <time>2016-02-21T12:57:25.000Z</time>
      </trkpt>
      <trkpt lat="48.79734" lon="2.19018">
        <ele>154</ele>
        <time>2016-02-21T12:57:27.000Z</time>
      </trkpt>
      <trkpt lat="48.79734" lon="2.19011">
        <ele>154</ele>
        <time>2016-02-21T12:57:29.000Z</time>
      </trkpt>
      <trkpt lat="48.79734" lon="2.19011">
        <ele>154</ele>
        <time>2016-02-21T12:57:31.000Z</time>
      </trkpt>
      <trkpt lat="48.79734" lon="2.19011">
        <ele>154</ele>
        <time>2016-02-21T12:57:33.000Z</time>
      </trkpt>
      <trkpt lat="48.79735" lon="2.19002">
        <ele>154</ele>
        <time>2016-02-21T12:57:35.000Z</time>
      </trkpt>
      <trkpt lat="48.79735" lon="2.18997">
        <ele>154</ele>
        <time>2016-02-21T12:57:37.000Z</time>
      </trkpt>
      <trkpt lat="48.79735" lon="2.18997">
        <ele>154</ele>
        <time>2016-02-21T12:57:39.000Z</time>
      </trkpt>
      <trkpt lat="48.79735" lon="2.18997">
        <ele>154</ele>
        <time>2016-02-21T12:57:41.000Z</time>
      </trkpt>
      <trkpt lat="48.79735" lon="2.18997">
        <ele>154</ele>
        <time>2016-02-21T12:57:43.000Z</time>
      </trkpt>
      <trkpt lat="48.79735" lon="2.18997">
        <ele>154</ele>
        <time>2016-02-21T12:57:45.000Z</time>
      </trkpt>
      <trkpt lat="48.79732" lon="2.18967">
        <ele>153</ele>
        <time>2016-02-21T12:58:09.000Z</time>
      </trkpt>
      <trkpt lat="48.79731" lon="2.1895">
        <ele>153</ele>
        <time>2016-02-21T12:58:11.000Z</time>
      </trkpt>
      <trkpt lat="48.7973" lon="2.18939">
        <ele>153</ele>
        <time>2016-02-21T12:58:13.000Z</time>
      </trkpt>
      <trkpt lat="48.79729" lon="2.18932">
        <ele>153</ele>
        <time>2016-02-21T12:58:15.000Z</time>
      </trkpt>
      <trkpt lat="48.79729" lon="2.18927">
        <ele>153</ele>
        <time>2016-02-21T12:58:17.000Z</time>
      </trkpt>
      <trkpt lat="48.79729" lon="2.18927">
        <ele>153</ele>
        <time>2016-02-21T12:58:19.000Z</time>
      </trkpt>
      <trkpt lat="48.7973" lon="2.18914">
        <ele>152</ele>
        <time>2016-02-21T12:58:21.000Z</time>
      </trkpt>
      <trkpt lat="48.7973" lon="2.18914">
        <ele>152</ele>
        <time>2016-02-21T12:58:23.000Z</time>
      </trkpt>
      <trkpt lat="48.7973" lon="2.18914">
        <ele>152</ele>
        <time>2016-02-21T12:58:25.000Z</time>
      </trkpt>
      <trkpt lat="48.7973" lon="2.18899">
        <ele>152</ele>
        <time>2016-02-21T12:58:31.000Z</time>
      </trkpt>
      <trkpt lat="48.79731" lon="2.18887">
        <ele>152</ele>
        <time>2016-02-21T12:58:37.000Z</time>
      </trkpt>
      <trkpt lat="48.79729" lon="2.18878">
        <ele>152</ele>
        <time>2016-02-21T12:58:43.000Z</time>
      </trkpt>
      <trkpt lat="48.7973" lon="2.18869">
        <ele>152</ele>
        <time>2016-02-21T12:58:47.000Z</time>
      </trkpt>
      <trkpt lat="48.7973" lon="2.18869">
        <ele>152</ele>
        <time>2016-02-21T12:58:49.000Z</time>
      </trkpt>
      <trkpt lat="48.7973" lon="2.18869">
        <ele>152</ele>
        <time>2016-02-21T12:58:51.000Z</time>
      </trkpt>
      <trkpt lat="48.7973" lon="2.18869">
        <ele>152</ele>
        <time>2016-02-21T12:58:53.000Z</time>
      </trkpt>
      <trkpt lat="48.79733" lon="2.18859">
        <ele>151</ele>
        <time>2016-02-21T12:58:55.000Z</time>
      </trkpt>
      <trkpt lat="48.79731" lon="2.18844">
        <ele>151</ele>
        <time>2016-02-21T12:58:59.000Z</time>
      </trkpt>
      <trkpt lat="48.79731" lon="2.18834">
        <ele>151</ele>
        <time>2016-02-21T12:59:05.000Z</time>
      </trkpt>
      <trkpt lat="48.7973" lon="2.18825">
        <ele>151</ele>
        <time>2016-02-21T12:59:09.000Z</time>
      </trkpt>
      <trkpt lat="48.79731" lon="2.18815">
        <ele>151</ele>
        <time>2016-02-21T12:59:15.000Z</time>
      </trkpt>
      <trkpt lat="48.79731" lon="2.18815">
        <ele>151</ele>
        <time>2016-02-21T12:59:17.000Z</time>
      </trkpt>
      <trkpt lat="48.79731" lon="2.18815">
        <ele>151</ele>
        <time>2016-02-21T12:59:19.000Z</time>
      </trkpt>
      <trkpt lat="48.79731" lon="2.18805">
        <ele>151</ele>
        <time>2016-02-21T12:59:21.000Z</time>
      </trkpt>
      <trkpt lat="48.79731" lon="2.18805">
        <ele>151</ele>
        <time>2016-02-21T12:59:27.000Z</time>
      </trkpt>
      <trkpt lat="48.79732" lon="2.18795">
        <ele>150</ele>
        <time>2016-02-21T12:59:29.000Z</time>
      </trkpt>
      <trkpt lat="48.79732" lon="2.18795">
        <ele>150</ele>
        <time>2016-02-21T12:59:31.000Z</time>
      </trkpt>
      <trkpt lat="48.79732" lon="2.18795">
        <ele>150</ele>
        <time>2016-02-21T12:59:33.000Z</time>
      </trkpt>
      <trkpt lat="48.79732" lon="2.18795">
        <ele>150</ele>
        <time>2016-02-21T12:59:35.000Z</time>
      </trkpt>
      <trkpt lat="48.79732" lon="2.18785">
        <ele>150</ele>
        <time>2016-02-21T12:59:37.000Z</time>
      </trkpt>
      <trkpt lat="48.79733" lon="2.18776">
        <ele>149</ele>
        <time>2016-02-21T12:59:41.000Z</time>
      </trkpt>
      <trkpt lat="48.79733" lon="2.18776">
        <ele>149</ele>
        <time>2016-02-21T12:59:43.000Z</time>
      </trkpt>
      <trkpt lat="48.79733" lon="2.18776">
        <ele>149</ele>
        <time>2016-02-21T12:59:45.000Z</time>
      </trkpt>
      <trkpt lat="48.79733" lon="2.18776">
        <ele>149</ele>
        <time>2016-02-21T12:59:47.000Z</time>
      </trkpt>
      <trkpt lat="48.79733" lon="2.18776">
        <ele>149</ele>
        <time>2016-02-21T12:59:49.000Z</time>
      </trkpt>
      <trkpt lat="48.79733" lon="2.18776">
        <ele>149</ele>
        <time>2016-02-21T12:59:51.000Z</time>
      </trkpt>
      <trkpt lat="48.79734" lon="2.1876">
        <ele>149</ele>
        <time>2016-02-21T13:00:01.000Z</time>
      </trkpt>
      <trkpt lat="48.79735" lon="2.1875">
        <ele>149</ele>
        <time>2016-02-21T13:00:03.000Z</time>
      </trkpt>
      <trkpt lat="48.79736" lon="2.18744">
        <ele>149</ele>
        <time>2016-02-21T13:00:05.000Z</time>
      </trkpt>
      <trkpt lat="48.79736" lon="2.18737">
        <ele>149</ele>
        <time>2016-02-21T13:00:07.000Z</time>
      </trkpt>
      <trkpt lat="48.79735" lon="2.18732">
        <ele>149</ele>
        <time>2016-02-21T13:00:09.000Z</time>
      </trkpt>
      <trkpt lat="48.79735" lon="2.18732">
        <ele>149</ele>
        <time>2016-02-21T13:00:13.000Z</time>
      </trkpt>
      <trkpt lat="48.79734" lon="2.18717">
        <ele>149</ele>
        <time>2016-02-21T13:00:15.000Z</time>
      </trkpt>
      <trkpt lat="48.79734" lon="2.18717">
        <ele>149</ele>
        <time>2016-02-21T13:00:17.000Z</time>
      </trkpt>
      <trkpt lat="48.79733" lon="2.18707">
        <ele>149</ele>
        <time>2016-02-21T13:00:19.000Z</time>
      </trkpt>
      <trkpt lat="48.79733" lon="2.18698">
        <ele>149</ele>
        <time>2016-02-21T13:00:25.000Z</time>
      </trkpt>
      <trkpt lat="48.79731" lon="2.18683">
        <ele>148</ele>
        <time>2016-02-21T13:00:31.000Z</time>
      </trkpt>
      <trkpt lat="48.79731" lon="2.18683">
        <ele>148</ele>
        <time>2016-02-21T13:00:35.000Z</time>
      </trkpt>
      <trkpt lat="48.79731" lon="2.18683">
        <ele>148</ele>
        <time>2016-02-21T13:00:37.000Z</time>
      </trkpt>
      <trkpt lat="48.79731" lon="2.18683">
        <ele>148</ele>
        <time>2016-02-21T13:00:39.000Z</time>
      </trkpt>
      <trkpt lat="48.79731" lon="2.18683">
        <ele>148</ele>
        <time>2016-02-21T13:00:41.000Z</time>
      </trkpt>
      <trkpt lat="48.79728" lon="2.18633">
        <ele>147</ele>
        <time>2016-02-21T13:00:59.000Z</time>
      </trkpt>
      <trkpt lat="48.79727" lon="2.18624">
        <ele>147</ele>
        <time>2016-02-21T13:01:05.000Z</time>
      </trkpt>
      <trkpt lat="48.79727" lon="2.18624">
        <ele>147</ele>
        <time>2016-02-21T13:01:07.000Z</time>
      </trkpt>
      <trkpt lat="48.79726" lon="2.18612">
        <ele>147</ele>
        <time>2016-02-21T13:01:11.000Z</time>
      </trkpt>
      <trkpt lat="48.79726" lon="2.18612">
        <ele>147</ele>
        <time>2016-02-21T13:01:15.000Z</time>
      </trkpt>
      <trkpt lat="48.79726" lon="2.18612">
        <ele>147</ele>
        <time>2016-02-21T13:01:17.000Z</time>
      </trkpt>
      <trkpt lat="48.79725" lon="2.18601">
        <ele>146</ele>
        <time>2016-02-21T13:01:19.000Z</time>
      </trkpt>
      <trkpt lat="48.79728" lon="2.18586">
        <ele>147</ele>
        <time>2016-02-21T13:01:27.000Z</time>
      </trkpt>
      <trkpt lat="48.79728" lon="2.18586">
        <ele>147</ele>
        <time>2016-02-21T13:01:29.000Z</time>
      </trkpt>
      <trkpt lat="48.79728" lon="2.18586">
        <ele>147</ele>
        <time>2016-02-21T13:01:31.000Z</time>
      </trkpt>
      <trkpt lat="48.79728" lon="2.18586">
        <ele>147</ele>
        <time>2016-02-21T13:01:33.000Z</time>
      </trkpt>
      <trkpt lat="48.79729" lon="2.18578">
        <ele>147</ele>
        <time>2016-02-21T13:01:37.000Z</time>
      </trkpt>
      <trkpt lat="48.79729" lon="2.18578">
        <ele>147</ele>
        <time>2016-02-21T13:01:39.000Z</time>
      </trkpt>
      <trkpt lat="48.79729" lon="2.18578">
        <ele>147</ele>
        <time>2016-02-21T13:01:41.000Z</time>
      </trkpt>
      <trkpt lat="48.79729" lon="2.18578">
        <ele>147</ele>
        <time>2016-02-21T13:01:43.000Z</time>
      </trkpt>
      <trkpt lat="48.7973" lon="2.18569">
        <ele>148</ele>
        <time>2016-02-21T13:01:45.000Z</time>
      </trkpt>
      <trkpt lat="48.7973" lon="2.18569">
        <ele>148</ele>
        <time>2016-02-21T13:01:48.000Z</time>
      </trkpt>
      <trkpt lat="48.79729" lon="2.18558">
        <ele>148</ele>
        <time>2016-02-21T13:01:50.000Z</time>
      </trkpt>
      <trkpt lat="48.79728" lon="2.18551">
        <ele>147</ele>
        <time>2016-02-21T13:01:52.000Z</time>
      </trkpt>
      <trkpt lat="48.79728" lon="2.18545">
        <ele>147</ele>
        <time>2016-02-21T13:01:54.000Z</time>
      </trkpt>
      <trkpt lat="48.79728" lon="2.1854">
        <ele>147</ele>
        <time>2016-02-21T13:01:56.000Z</time>
      </trkpt>
      <trkpt lat="48.79728" lon="2.18536">
        <ele>147</ele>
        <time>2016-02-21T13:01:58.000Z</time>
      </trkpt>
      <trkpt lat="48.79728" lon="2.18536">
        <ele>147</ele>
        <time>2016-02-21T13:02:00.000Z</time>
      </trkpt>
      <trkpt lat="48.79727" lon="2.18526">
        <ele>147</ele>
        <time>2016-02-21T13:02:02.000Z</time>
      </trkpt>
      <trkpt lat="48.79727" lon="2.18526">
        <ele>147</ele>
        <time>2016-02-21T13:02:04.000Z</time>
      </trkpt>
      <trkpt lat="48.79727" lon="2.18526">
        <ele>147</ele>
        <time>2016-02-21T13:02:06.000Z</time>
      </trkpt>
      <trkpt lat="48.79727" lon="2.18526">
        <ele>147</ele>
        <time>2016-02-21T13:02:08.000Z</time>
      </trkpt>
      <trkpt lat="48.79727" lon="2.18509">
        <ele>147</ele>
        <time>2016-02-21T13:02:10.000Z</time>
      </trkpt>
      <trkpt lat="48.79727" lon="2.18509">
        <ele>147</ele>
        <time>2016-02-21T13:02:12.000Z</time>
      </trkpt>
      <trkpt lat="48.79727" lon="2.18509">
        <ele>147</ele>
        <time>2016-02-21T13:02:14.000Z</time>
      </trkpt>
      <trkpt lat="48.79727" lon="2.18509">
        <ele>147</ele>
        <time>2016-02-21T13:02:16.000Z</time>
      </trkpt>
      <trkpt lat="48.79727" lon="2.18509">
        <ele>147</ele>
        <time>2016-02-21T13:02:18.000Z</time>
      </trkpt>
      <trkpt lat="48.79727" lon="2.18509">
        <ele>147</ele>
        <time>2016-02-21T13:02:44.000Z</time>
      </trkpt>
      <trkpt lat="48.79727" lon="2.18509">
        <ele>147</ele>
        <time>2016-02-21T13:02:46.000Z</time>
      </trkpt>
      <trkpt lat="48.79721" lon="2.18431">
        <ele>144</ele>
        <time>2016-02-21T13:02:59.000Z</time>
      </trkpt>
      <trkpt lat="48.79721" lon="2.18431">
        <ele>144</ele>
        <time>2016-02-21T13:03:05.000Z</time>
      </trkpt>
      <trkpt lat="48.79721" lon="2.18419">
        <ele>144</ele>
        <time>2016-02-21T13:03:11.000Z</time>
      </trkpt>
      <trkpt lat="48.7972" lon="2.18411">
        <ele>144</ele>
        <time>2016-02-21T13:03:13.000Z</time>
      </trkpt>
      <trkpt lat="48.7972" lon="2.18404">
        <ele>144</ele>
        <time>2016-02-21T13:03:15.000Z</time>
      </trkpt>
      <trkpt lat="48.7972" lon="2.184">
        <ele>144</ele>
        <time>2016-02-21T13:03:17.000Z</time>
      </trkpt>
      <trkpt lat="48.7972" lon="2.184">
        <ele>144</ele>
        <time>2016-02-21T13:03:19.000Z</time>
      </trkpt>
      <trkpt lat="48.79721" lon="2.18394">
        <ele>144</ele>
        <time>2016-02-21T13:03:21.000Z</time>
      </trkpt>
      <trkpt lat="48.79721" lon="2.18394">
        <ele>144</ele>
        <time>2016-02-21T13:03:23.000Z</time>
      </trkpt>
      <trkpt lat="48.79721" lon="2.18389">
        <ele>145</ele>
        <time>2016-02-21T13:03:25.000Z</time>
      </trkpt>
      <trkpt lat="48.79721" lon="2.18389">
        <ele>145</ele>
        <time>2016-02-21T13:03:27.000Z</time>
      </trkpt>
      <trkpt lat="48.79721" lon="2.18383">
        <ele>145</ele>
        <time>2016-02-21T13:03:29.000Z</time>
      </trkpt>
      <trkpt lat="48.79721" lon="2.18383">
        <ele>145</ele>
        <time>2016-02-21T13:03:31.000Z</time>
      </trkpt>
      <trkpt lat="48.79721" lon="2.18383">
        <ele>145</ele>
        <time>2016-02-21T13:03:33.000Z</time>
      </trkpt>
      <trkpt lat="48.79721" lon="2.18383">
        <ele>145</ele>
        <time>2016-02-21T13:03:35.000Z</time>
      </trkpt>
      <trkpt lat="48.79721" lon="2.18377">
        <ele>144</ele>
        <time>2016-02-21T13:03:37.000Z</time>
      </trkpt>
      <trkpt lat="48.79722" lon="2.18372">
        <ele>144</ele>
        <time>2016-02-21T13:03:39.000Z</time>
      </trkpt>
      <trkpt lat="48.79723" lon="2.18366">
        <ele>144</ele>
        <time>2016-02-21T13:03:41.000Z</time>
      </trkpt>
      <trkpt lat="48.79723" lon="2.18366">
        <ele>144</ele>
        <time>2016-02-21T13:03:43.000Z</time>
      </trkpt>
      <trkpt lat="48.79723" lon="2.18366">
        <ele>144</ele>
        <time>2016-02-21T13:03:45.000Z</time>
      </trkpt>
      <trkpt lat="48.79723" lon="2.18366">
        <ele>144</ele>
        <time>2016-02-21T13:03:47.000Z</time>
      </trkpt>
      <trkpt lat="48.79723" lon="2.1835">
        <ele>144</ele>
        <time>2016-02-21T13:03:55.000Z</time>
      </trkpt>
      <trkpt lat="48.79724" lon="2.18338">
        <ele>144</ele>
        <time>2016-02-21T13:03:57.000Z</time>
      </trkpt>
      <trkpt lat="48.79724" lon="2.18331">
        <ele>145</ele>
        <time>2016-02-21T13:03:59.000Z</time>
      </trkpt>
      <trkpt lat="48.79724" lon="2.18331">
        <ele>145</ele>
        <time>2016-02-21T13:04:01.000Z</time>
      </trkpt>
      <trkpt lat="48.79724" lon="2.18331">
        <ele>145</ele>
        <time>2016-02-21T13:04:03.000Z</time>
      </trkpt>
      <trkpt lat="48.79724" lon="2.18331">
        <ele>145</ele>
        <time>2016-02-21T13:04:05.000Z</time>
      </trkpt>
      <trkpt lat="48.79724" lon="2.18305">
        <ele>150</ele>
        <time>2016-02-21T13:04:22.000Z</time>
      </trkpt>
      <trkpt lat="48.79724" lon="2.1829">
        <ele>151</ele>
        <time>2016-02-21T13:04:24.000Z</time>
      </trkpt>
      <trkpt lat="48.79724" lon="2.18282">
        <ele>151</ele>
        <time>2016-02-21T13:04:26.000Z</time>
      </trkpt>
      <trkpt lat="48.79724" lon="2.18276">
        <ele>151</ele>
        <time>2016-02-21T13:04:30.000Z</time>
      </trkpt>
      <trkpt lat="48.79724" lon="2.18276">
        <ele>151</ele>
        <time>2016-02-21T13:04:32.000Z</time>
      </trkpt>
      <trkpt lat="48.79724" lon="2.18276">
        <ele>151</ele>
        <time>2016-02-21T13:04:34.000Z</time>
      </trkpt>
      <trkpt lat="48.79724" lon="2.1827">
        <ele>152</ele>
        <time>2016-02-21T13:04:36.000Z</time>
      </trkpt>
      <trkpt lat="48.79724" lon="2.18266">
        <ele>152</ele>
        <time>2016-02-21T13:04:40.000Z</time>
      </trkpt>
      <trkpt lat="48.79724" lon="2.18266">
        <ele>152</ele>
        <time>2016-02-21T13:04:42.000Z</time>
      </trkpt>
      <trkpt lat="48.79724" lon="2.18261">
        <ele>153</ele>
        <time>2016-02-21T13:04:44.000Z</time>
      </trkpt>
      <trkpt lat="48.79723" lon="2.18256">
        <ele>153</ele>
        <time>2016-02-21T13:04:46.000Z</time>
      </trkpt>
      <trkpt lat="48.79724" lon="2.18249">
        <ele>154</ele>
        <time>2016-02-21T13:04:50.000Z</time>
      </trkpt>
      <trkpt lat="48.79724" lon="2.18249">
        <ele>154</ele>
        <time>2016-02-21T13:04:54.000Z</time>
      </trkpt>
      <trkpt lat="48.79724" lon="2.18249">
        <ele>154</ele>
        <time>2016-02-21T13:04:56.000Z</time>
      </trkpt>
      <trkpt lat="48.79724" lon="2.18249">
        <ele>154</ele>
        <time>2016-02-21T13:04:58.000Z</time>
      </trkpt>
      <trkpt lat="48.79724" lon="2.18215">
        <ele>157</ele>
        <time>2016-02-21T13:05:32.000Z</time>
      </trkpt>
      <trkpt lat="48.79724" lon="2.18215">
        <ele>157</ele>
        <time>2016-02-21T13:05:34.000Z</time>
      </trkpt>
      <trkpt lat="48.79724" lon="2.18215">
        <ele>157</ele>
        <time>2016-02-21T13:05:36.000Z</time>
      </trkpt>
      <trkpt lat="48.79724" lon="2.18215">
        <ele>157</ele>
        <time>2016-02-21T13:05:52.000Z</time>
      </trkpt>
      <trkpt lat="48.79722" lon="2.18191">
        <ele>160</ele>
        <time>2016-02-21T13:08:55.000Z</time>
      </trkpt>
      <trkpt lat="48.79722" lon="2.18191">
        <ele>160</ele>
        <time>2016-02-21T13:08:57.000Z</time>
      </trkpt>
      <trkpt lat="48.79722" lon="2.18191">
        <ele>160</ele>
        <time>2016-02-21T13:08:59.000Z</time>
      </trkpt>
      <trkpt lat="48.79722" lon="2.18191">
        <ele>160</ele>
        <time>2016-02-21T13:09:01.000Z</time>
      </trkpt>
      <trkpt lat="48.7972" lon="2.18163">
        <ele>164</ele>
        <time>2016-02-21T13:14:20.000Z</time>
      </trkpt>
      <trkpt lat="48.79719" lon="2.18147">
        <ele>164</ele>
        <time>2016-02-21T13:14:22.000Z</time>
      </trkpt>
      <trkpt lat="48.79718" lon="2.18138">
        <ele>164</ele>
        <time>2016-02-21T13:14:24.000Z</time>
      </trkpt>
      <trkpt lat="48.79718" lon="2.18131">
        <ele>164</ele>
        <time>2016-02-21T13:14:26.000Z</time>
      </trkpt>
      <trkpt lat="48.79717" lon="2.18126">
        <ele>164</ele>
        <time>2016-02-21T13:14:28.000Z</time>
      </trkpt>
      <trkpt lat="48.79717" lon="2.18126">
        <ele>164</ele>
        <time>2016-02-21T13:14:30.000Z</time>
      </trkpt>
      <trkpt lat="48.79715" lon="2.18116">
        <ele>164</ele>
        <time>2016-02-21T13:14:32.000Z</time>
      </trkpt>
      <trkpt lat="48.79715" lon="2.18116">
        <ele>164</ele>
        <time>2016-02-21T13:14:40.000Z</time>
      </trkpt>
      <trkpt lat="48.79715" lon="2.18116">
        <ele>164</ele>
        <time>2016-02-21T13:14:44.000Z</time>
      </trkpt>
      <trkpt lat="48.79715" lon="2.18116">
        <ele>164</ele>
        <time>2016-02-21T13:14:46.000Z</time>
      </trkpt>
      <trkpt lat="48.79718" lon="2.18024">
        <ele>165</ele>
        <time>2016-02-21T13:15:30.000Z</time>
      </trkpt>
      <trkpt lat="48.79718" lon="2.18024">
        <ele>165</ele>
        <time>2016-02-21T13:15:32.000Z</time>
      </trkpt>
      <trkpt lat="48.79718" lon="2.18024">
        <ele>165</ele>
        <time>2016-02-21T13:15:34.000Z</time>
      </trkpt>
      <trkpt lat="48.79718" lon="2.18024">
        <ele>165</ele>
        <time>2016-02-21T13:15:38.000Z</time>
      </trkpt>
      <trkpt lat="48.79718" lon="2.18024">
        <ele>165</ele>
        <time>2016-02-21T13:15:40.000Z</time>
      </trkpt>
      <trkpt lat="48.79717" lon="2.18011">
        <ele>164</ele>
        <time>2016-02-21T13:15:48.000Z</time>
      </trkpt>
      <trkpt lat="48.79716" lon="2.18004">
        <ele>164</ele>
        <time>2016-02-21T13:15:50.000Z</time>
      </trkpt>
      <trkpt lat="48.79717" lon="2.17999">
        <ele>164</ele>
        <time>2016-02-21T13:15:52.000Z</time>
      </trkpt>
      <trkpt lat="48.79717" lon="2.17999">
        <ele>164</ele>
        <time>2016-02-21T13:15:54.000Z</time>
      </trkpt>
      <trkpt lat="48.79717" lon="2.17999">
        <ele>164</ele>
        <time>2016-02-21T13:15:56.000Z</time>
      </trkpt>
      <trkpt lat="48.79716" lon="2.17981">
        <ele>165</ele>
        <time>2016-02-21T13:16:10.000Z</time>
      </trkpt>
      <trkpt lat="48.79715" lon="2.17968">
        <ele>165</ele>
        <time>2016-02-21T13:16:12.000Z</time>
      </trkpt>
      <trkpt lat="48.79715" lon="2.17961">
        <ele>165</ele>
        <time>2016-02-21T13:16:14.000Z</time>
      </trkpt>
      <trkpt lat="48.79714" lon="2.17954">
        <ele>166</ele>
        <time>2016-02-21T13:16:18.000Z</time>
      </trkpt>
      <trkpt lat="48.79714" lon="2.17954">
        <ele>166</ele>
        <time>2016-02-21T13:16:20.000Z</time>
      </trkpt>
      <trkpt lat="48.79714" lon="2.17947">
        <ele>166</ele>
        <time>2016-02-21T13:16:22.000Z</time>
      </trkpt>
      <trkpt lat="48.79714" lon="2.17943">
        <ele>167</ele>
        <time>2016-02-21T13:16:24.000Z</time>
      </trkpt>
      <trkpt lat="48.79713" lon="2.17938">
        <ele>167</ele>
        <time>2016-02-21T13:16:26.000Z</time>
      </trkpt>
      <trkpt lat="48.79713" lon="2.17933">
        <ele>167</ele>
        <time>2016-02-21T13:16:28.000Z</time>
      </trkpt>
      <trkpt lat="48.79713" lon="2.17933">
        <ele>167</ele>
        <time>2016-02-21T13:16:30.000Z</time>
      </trkpt>
      <trkpt lat="48.79713" lon="2.17933">
        <ele>167</ele>
        <time>2016-02-21T13:16:32.000Z</time>
      </trkpt>
      <trkpt lat="48.79712" lon="2.17925">
        <ele>167</ele>
        <time>2016-02-21T13:16:38.000Z</time>
      </trkpt>
      <trkpt lat="48.79711" lon="2.17919">
        <ele>167</ele>
        <time>2016-02-21T13:16:40.000Z</time>
      </trkpt>
      <trkpt lat="48.79711" lon="2.17919">
        <ele>167</ele>
        <time>2016-02-21T13:16:42.000Z</time>
      </trkpt>
      <trkpt lat="48.79711" lon="2.17913">
        <ele>167</ele>
        <time>2016-02-21T13:16:44.000Z</time>
      </trkpt>
      <trkpt lat="48.7971" lon="2.17909">
        <ele>167</ele>
        <time>2016-02-21T13:16:46.000Z</time>
      </trkpt>
      <trkpt lat="48.79708" lon="2.17901">
        <ele>167</ele>
        <time>2016-02-21T13:16:52.000Z</time>
      </trkpt>
      <trkpt lat="48.79708" lon="2.17892">
        <ele>168</ele>
        <time>2016-02-21T13:16:56.000Z</time>
      </trkpt>
      <trkpt lat="48.79708" lon="2.17886">
        <ele>168</ele>
        <time>2016-02-21T13:16:58.000Z</time>
      </trkpt>
      <trkpt lat="48.79708" lon="2.17886">
        <ele>168</ele>
        <time>2016-02-21T13:17:00.000Z</time>
      </trkpt>
      <trkpt lat="48.79708" lon="2.17886">
        <ele>168</ele>
        <time>2016-02-21T13:17:06.000Z</time>
      </trkpt>
      <trkpt lat="48.79707" lon="2.17868">
        <ele>168</ele>
        <time>2016-02-21T13:17:16.000Z</time>
      </trkpt>
      <trkpt lat="48.79706" lon="2.17854">
        <ele>168</ele>
        <time>2016-02-21T13:17:18.000Z</time>
      </trkpt>
      <trkpt lat="48.79706" lon="2.17854">
        <ele>168</ele>
        <time>2016-02-21T13:17:20.000Z</time>
      </trkpt>
      <trkpt lat="48.79706" lon="2.17854">
        <ele>168</ele>
        <time>2016-02-21T13:17:22.000Z</time>
      </trkpt>
      <trkpt lat="48.79707" lon="2.17839">
        <ele>168</ele>
        <time>2016-02-21T13:17:28.000Z</time>
      </trkpt>
      <trkpt lat="48.79707" lon="2.17839">
        <ele>168</ele>
        <time>2016-02-21T13:17:32.000Z</time>
      </trkpt>
      <trkpt lat="48.79707" lon="2.17839">
        <ele>168</ele>
        <time>2016-02-21T13:17:36.000Z</time>
      </trkpt>
      <trkpt lat="48.79707" lon="2.17839">
        <ele>168</ele>
        <time>2016-02-21T13:17:38.000Z</time>
      </trkpt>
      <trkpt lat="48.79707" lon="2.17793">
        <ele>167</ele>
        <time>2016-02-21T13:18:13.000Z</time>
      </trkpt>
      <trkpt lat="48.79707" lon="2.17768">
        <ele>168</ele>
        <time>2016-02-21T13:18:15.000Z</time>
      </trkpt>
      <trkpt lat="48.79707" lon="2.17754">
        <ele>168</ele>
        <time>2016-02-21T13:18:17.000Z</time>
      </trkpt>
      <trkpt lat="48.79707" lon="2.17754">
        <ele>168</ele>
        <time>2016-02-21T13:18:19.000Z</time>
      </trkpt>
      <trkpt lat="48.79707" lon="2.17754">
        <ele>168</ele>
        <time>2016-02-21T13:18:21.000Z</time>
      </trkpt>
      <trkpt lat="48.79707" lon="2.17754">
        <ele>168</ele>
        <time>2016-02-21T13:18:24.000Z</time>
      </trkpt>
      <trkpt lat="48.79707" lon="2.17754">
        <ele>168</ele>
        <time>2016-02-21T13:18:26.000Z</time>
      </trkpt>
      <trkpt lat="48.79706" lon="2.17729">
        <ele>169</ele>
        <time>2016-02-21T13:18:36.000Z</time>
      </trkpt>
      <trkpt lat="48.79705" lon="2.17714">
        <ele>169</ele>
        <time>2016-02-21T13:18:38.000Z</time>
      </trkpt>
      <trkpt lat="48.79705" lon="2.17706">
        <ele>170</ele>
        <time>2016-02-21T13:18:40.000Z</time>
      </trkpt>
      <trkpt lat="48.79705" lon="2.17706">
        <ele>170</ele>
        <time>2016-02-21T13:18:42.000Z</time>
      </trkpt>
      <trkpt lat="48.79705" lon="2.17706">
        <ele>170</ele>
        <time>2016-02-21T13:18:44.000Z</time>
      </trkpt>
      <trkpt lat="48.79706" lon="2.17697">
        <ele>171</ele>
        <time>2016-02-21T13:18:48.000Z</time>
      </trkpt>
      <trkpt lat="48.79706" lon="2.17697">
        <ele>171</ele>
        <time>2016-02-21T13:18:50.000Z</time>
      </trkpt>
      <trkpt lat="48.79706" lon="2.17697">
        <ele>171</ele>
        <time>2016-02-21T13:18:52.000Z</time>
      </trkpt>
      <trkpt lat="48.79706" lon="2.17697">
        <ele>171</ele>
        <time>2016-02-21T13:18:54.000Z</time>
      </trkpt>
      <trkpt lat="48.79707" lon="2.17657">
        <ele>172</ele>
        <time>2016-02-21T13:19:28.000Z</time>
      </trkpt>
      <trkpt lat="48.79707" lon="2.17637">
        <ele>172</ele>
        <time>2016-02-21T13:19:30.000Z</time>
      </trkpt>
      <trkpt lat="48.79707" lon="2.17625">
        <ele>172</ele>
        <time>2016-02-21T13:19:32.000Z</time>
      </trkpt>
      <trkpt lat="48.79707" lon="2.17619">
        <ele>172</ele>
        <time>2016-02-21T13:19:34.000Z</time>
      </trkpt>
      <trkpt lat="48.79708" lon="2.17614">
        <ele>172</ele>
        <time>2016-02-21T13:19:36.000Z</time>
      </trkpt>
      <trkpt lat="48.79708" lon="2.17602">
        <ele>172</ele>
        <time>2016-02-21T13:19:40.000Z</time>
      </trkpt>
      <trkpt lat="48.79708" lon="2.17592">
        <ele>171</ele>
        <time>2016-02-21T13:19:46.000Z</time>
      </trkpt>
      <trkpt lat="48.79708" lon="2.17592">
        <ele>171</ele>
        <time>2016-02-21T13:19:48.000Z</time>
      </trkpt>
      <trkpt lat="48.79708" lon="2.17592">
        <ele>171</ele>
        <time>2016-02-21T13:19:50.000Z</time>
      </trkpt>
      <trkpt lat="48.79709" lon="2.17581">
        <ele>171</ele>
        <time>2016-02-21T13:19:52.000Z</time>
      </trkpt>
      <trkpt lat="48.79705" lon="2.1757">
        <ele>171</ele>
        <time>2016-02-21T13:20:00.000Z</time>
      </trkpt>
      <trkpt lat="48.79706" lon="2.1756">
        <ele>171</ele>
        <time>2016-02-21T13:20:06.000Z</time>
      </trkpt>
      <trkpt lat="48.79706" lon="2.1756">
        <ele>171</ele>
        <time>2016-02-21T13:20:08.000Z</time>
      </trkpt>
      <trkpt lat="48.79706" lon="2.1756">
        <ele>171</ele>
        <time>2016-02-21T13:20:10.000Z</time>
      </trkpt>
      <trkpt lat="48.79705" lon="2.17549">
        <ele>172</ele>
        <time>2016-02-21T13:20:12.000Z</time>
      </trkpt>
      <trkpt lat="48.79705" lon="2.17549">
        <ele>172</ele>
        <time>2016-02-21T13:20:16.000Z</time>
      </trkpt>
      <trkpt lat="48.79705" lon="2.17549">
        <ele>172</ele>
        <time>2016-02-21T13:20:18.000Z</time>
      </trkpt>
      <trkpt lat="48.79706" lon="2.1754">
        <ele>172</ele>
        <time>2016-02-21T13:20:22.000Z</time>
      </trkpt>
      <trkpt lat="48.79706" lon="2.1754">
        <ele>172</ele>
        <time>2016-02-21T13:20:24.000Z</time>
      </trkpt>
      <trkpt lat="48.79706" lon="2.1754">
        <ele>172</ele>
        <time>2016-02-21T13:20:26.000Z</time>
      </trkpt>
      <trkpt lat="48.79706" lon="2.1754">
        <ele>172</ele>
        <time>2016-02-21T13:20:28.000Z</time>
      </trkpt>
      <trkpt lat="48.79692" lon="2.17537">
        <ele>172</ele>
        <time>2016-02-21T13:23:56.000Z</time>
      </trkpt>
      <trkpt lat="48.79684" lon="2.17536">
        <ele>172</ele>
        <time>2016-02-21T13:23:58.000Z</time>
      </trkpt>
      <trkpt lat="48.79679" lon="2.17536">
        <ele>172</ele>
        <time>2016-02-21T13:24:00.000Z</time>
      </trkpt>
      <trkpt lat="48.79675" lon="2.17537">
        <ele>173</ele>
        <time>2016-02-21T13:24:02.000Z</time>
      </trkpt>
      <trkpt lat="48.79672" lon="2.17537">
        <ele>173</ele>
        <time>2016-02-21T13:24:04.000Z</time>
      </trkpt>
      <trkpt lat="48.79666" lon="2.17539">
        <ele>173</ele>
        <time>2016-02-21T13:24:08.000Z</time>
      </trkpt>
      <trkpt lat="48.79666" lon="2.17539">
        <ele>173</ele>
        <time>2016-02-21T13:24:10.000Z</time>
      </trkpt>
      <trkpt lat="48.79666" lon="2.17539">
        <ele>173</ele>
        <time>2016-02-21T13:24:12.000Z</time>
      </trkpt>
      <trkpt lat="48.7966" lon="2.1754">
        <ele>174</ele>
        <time>2016-02-21T13:24:14.000Z</time>
      </trkpt>
      <trkpt lat="48.7966" lon="2.1754">
        <ele>174</ele>
        <time>2016-02-21T13:24:16.000Z</time>
      </trkpt>
      <trkpt lat="48.7966" lon="2.1754">
        <ele>174</ele>
        <time>2016-02-21T13:24:18.000Z</time>
      </trkpt>
      <trkpt lat="48.79653" lon="2.17541">
        <ele>176</ele>
        <time>2016-02-21T13:24:20.000Z</time>
      </trkpt>
      <trkpt lat="48.79653" lon="2.17541">
        <ele>176</ele>
        <time>2016-02-21T13:24:24.000Z</time>
      </trkpt>
      <trkpt lat="48.79653" lon="2.17541">
        <ele>176</ele>
        <time>2016-02-21T13:24:26.000Z</time>
      </trkpt>
      <trkpt lat="48.79653" lon="2.17541">
        <ele>176</ele>
        <time>2016-02-21T13:24:28.000Z</time>
      </trkpt>
      <trkpt lat="48.79639" lon="2.17563">
        <ele>180</ele>
        <time>2016-02-21T13:24:56.000Z</time>
      </trkpt>
      <trkpt lat="48.79639" lon="2.17563">
        <ele>180</ele>
        <time>2016-02-21T13:24:58.000Z</time>
      </trkpt>
      <trkpt lat="48.79639" lon="2.17563">
        <ele>180</ele>
        <time>2016-02-21T13:25:00.000Z</time>
      </trkpt>
      <trkpt lat="48.79638" lon="2.17572">
        <ele>180</ele>
        <time>2016-02-21T13:25:02.000Z</time>
      </trkpt>
      <trkpt lat="48.79638" lon="2.17572">
        <ele>180</ele>
        <time>2016-02-21T13:25:04.000Z</time>
      </trkpt>
      <trkpt lat="48.79638" lon="2.17572">
        <ele>180</ele>
        <time>2016-02-21T13:25:06.000Z</time>
      </trkpt>
      <trkpt lat="48.79638" lon="2.17572">
        <ele>180</ele>
        <time>2016-02-21T13:25:08.000Z</time>
      </trkpt>
      <trkpt lat="48.79637" lon="2.17584">
        <ele>180</ele>
        <time>2016-02-21T13:25:10.000Z</time>
      </trkpt>
      <trkpt lat="48.79637" lon="2.17584">
        <ele>180</ele>
        <time>2016-02-21T13:25:12.000Z</time>
      </trkpt>
      <trkpt lat="48.79635" lon="2.17597">
        <ele>180</ele>
        <time>2016-02-21T13:25:18.000Z</time>
      </trkpt>
      <trkpt lat="48.79633" lon="2.17603">
        <ele>180</ele>
        <time>2016-02-21T13:25:24.000Z</time>
      </trkpt>
      <trkpt lat="48.79632" lon="2.17608">
        <ele>180</ele>
        <time>2016-02-21T13:25:26.000Z</time>
      </trkpt>
      <trkpt lat="48.79631" lon="2.17612">
        <ele>180</ele>
        <time>2016-02-21T13:25:28.000Z</time>
      </trkpt>
      <trkpt lat="48.7963" lon="2.17617">
        <ele>180</ele>
        <time>2016-02-21T13:25:32.000Z</time>
      </trkpt>
      <trkpt lat="48.7963" lon="2.17617">
        <ele>180</ele>
        <time>2016-02-21T13:25:34.000Z</time>
      </trkpt>
      <trkpt lat="48.7963" lon="2.17617">
        <ele>180</ele>
        <time>2016-02-21T13:25:36.000Z</time>
      </trkpt>
      <trkpt lat="48.7963" lon="2.17624">
        <ele>180</ele>
        <time>2016-02-21T13:25:38.000Z</time>
      </trkpt>
      <trkpt lat="48.7963" lon="2.17624">
        <ele>180</ele>
        <time>2016-02-21T13:25:40.000Z</time>
      </trkpt>
      <trkpt lat="48.79629" lon="2.17631">
        <ele>180</ele>
        <time>2016-02-21T13:25:42.000Z</time>
      </trkpt>
      <trkpt lat="48.7963" lon="2.17636">
        <ele>180</ele>
        <time>2016-02-21T13:25:44.000Z</time>
      </trkpt>
      <trkpt lat="48.7963" lon="2.17636">
        <ele>180</ele>
        <time>2016-02-21T13:25:48.000Z</time>
      </trkpt>
      <trkpt lat="48.7963" lon="2.17643">
        <ele>181</ele>
        <time>2016-02-21T13:25:50.000Z</time>
      </trkpt>
      <trkpt lat="48.79631" lon="2.17653">
        <ele>182</ele>
        <time>2016-02-21T13:25:59.000Z</time>
      </trkpt>
      <trkpt lat="48.79631" lon="2.17653">
        <ele>182</ele>
        <time>2016-02-21T13:26:01.000Z</time>
      </trkpt>
      <trkpt lat="48.79631" lon="2.17653">
        <ele>182</ele>
        <time>2016-02-21T13:26:03.000Z</time>
      </trkpt>
      <trkpt lat="48.79631" lon="2.17653">
        <ele>182</ele>
        <time>2016-02-21T13:26:05.000Z</time>
      </trkpt>
      <trkpt lat="48.79631" lon="2.17653">
        <ele>182</ele>
        <time>2016-02-21T13:26:25.000Z</time>
      </trkpt>
      <trkpt lat="48.79628" lon="2.17742">
        <ele>183</ele>
        <time>2016-02-21T13:27:53.000Z</time>
      </trkpt>
      <trkpt lat="48.79626" lon="2.17787">
        <ele>183</ele>
        <time>2016-02-21T13:27:55.000Z</time>
      </trkpt>
      <trkpt lat="48.79626" lon="2.17787">
        <ele>183</ele>
        <time>2016-02-21T13:27:57.000Z</time>
      </trkpt>
      <trkpt lat="48.79626" lon="2.17787">
        <ele>183</ele>
        <time>2016-02-21T13:27:59.000Z</time>
      </trkpt>
      <trkpt lat="48.79626" lon="2.17787">
        <ele>183</ele>
        <time>2016-02-21T13:28:01.000Z</time>
      </trkpt>
      <trkpt lat="48.79623" lon="2.17818">
        <ele>182</ele>
        <time>2016-02-21T13:28:03.000Z</time>
      </trkpt>
      <trkpt lat="48.79622" lon="2.17835">
        <ele>182</ele>
        <time>2016-02-21T13:28:05.000Z</time>
      </trkpt>
      <trkpt lat="48.7962" lon="2.17844">
        <ele>182</ele>
        <time>2016-02-21T13:28:07.000Z</time>
      </trkpt>
      <trkpt lat="48.7962" lon="2.17844">
        <ele>182</ele>
        <time>2016-02-21T13:28:09.000Z</time>
      </trkpt>
      <trkpt lat="48.7962" lon="2.17844">
        <ele>182</ele>
        <time>2016-02-21T13:28:11.000Z</time>
      </trkpt>
      <trkpt lat="48.7962" lon="2.17844">
        <ele>182</ele>
        <time>2016-02-21T13:28:13.000Z</time>
      </trkpt>
      <trkpt lat="48.7962" lon="2.17844">
        <ele>182</ele>
        <time>2016-02-21T13:28:15.000Z</time>
      </trkpt>
      <trkpt lat="48.79617" lon="2.17868">
        <ele>180</ele>
        <time>2016-02-21T13:28:28.000Z</time>
      </trkpt>
      <trkpt lat="48.79615" lon="2.17882">
        <ele>180</ele>
        <time>2016-02-21T13:28:30.000Z</time>
      </trkpt>
      <trkpt lat="48.79613" lon="2.17891">
        <ele>180</ele>
        <time>2016-02-21T13:28:32.000Z</time>
      </trkpt>
      <trkpt lat="48.79612" lon="2.17897">
        <ele>180</ele>
        <time>2016-02-21T13:28:34.000Z</time>
      </trkpt>
      <trkpt lat="48.79612" lon="2.17897">
        <ele>180</ele>
        <time>2016-02-21T13:28:36.000Z</time>
      </trkpt>
      <trkpt lat="48.7961" lon="2.17905">
        <ele>180</ele>
        <time>2016-02-21T13:28:40.000Z</time>
      </trkpt>
      <trkpt lat="48.79609" lon="2.17912">
        <ele>180</ele>
        <time>2016-02-21T13:28:42.000Z</time>
      </trkpt>
      <trkpt lat="48.79608" lon="2.17917">
        <ele>180</ele>
        <time>2016-02-21T13:28:44.000Z</time>
      </trkpt>
      <trkpt lat="48.79608" lon="2.17917">
        <ele>180</ele>
        <time>2016-02-21T13:28:46.000Z</time>
      </trkpt>
      <trkpt lat="48.79608" lon="2.17917">
        <ele>180</ele>
        <time>2016-02-21T13:28:48.000Z</time>
      </trkpt>
      <trkpt lat="48.79608" lon="2.17917">
        <ele>180</ele>
        <time>2016-02-21T13:28:50.000Z</time>
      </trkpt>
      <trkpt lat="48.79608" lon="2.17917">
        <ele>180</ele>
        <time>2016-02-21T13:28:52.000Z</time>
      </trkpt>
      <trkpt lat="48.79603" lon="2.17941">
        <ele>181</ele>
        <time>2016-02-21T13:29:16.000Z</time>
      </trkpt>
      <trkpt lat="48.796" lon="2.17955">
        <ele>181</ele>
        <time>2016-02-21T13:29:18.000Z</time>
      </trkpt>
      <trkpt lat="48.79598" lon="2.17963">
        <ele>181</ele>
        <time>2016-02-21T13:29:20.000Z</time>
      </trkpt>
      <trkpt lat="48.79597" lon="2.17969">
        <ele>181</ele>
        <time>2016-02-21T13:29:22.000Z</time>
      </trkpt>
      <trkpt lat="48.79596" lon="2.17973">
        <ele>181</ele>
        <time>2016-02-21T13:29:24.000Z</time>
      </trkpt>
      <trkpt lat="48.79596" lon="2.17973">
        <ele>181</ele>
        <time>2016-02-21T13:29:26.000Z</time>
      </trkpt>
      <trkpt lat="48.79596" lon="2.17988">
        <ele>180</ele>
        <time>2016-02-21T13:29:28.000Z</time>
      </trkpt>
      <trkpt lat="48.79596" lon="2.17988">
        <ele>180</ele>
        <time>2016-02-21T13:29:30.000Z</time>
      </trkpt>
      <trkpt lat="48.79596" lon="2.17988">
        <ele>180</ele>
        <time>2016-02-21T13:29:32.000Z</time>
      </trkpt>
      <trkpt lat="48.79595" lon="2.18">
        <ele>179</ele>
        <time>2016-02-21T13:29:34.000Z</time>
      </trkpt>
      <trkpt lat="48.79595" lon="2.18">
        <ele>179</ele>
        <time>2016-02-21T13:29:36.000Z</time>
      </trkpt>
      <trkpt lat="48.79595" lon="2.18">
        <ele>179</ele>
        <time>2016-02-21T13:29:38.000Z</time>
      </trkpt>
      <trkpt lat="48.79595" lon="2.18">
        <ele>179</ele>
        <time>2016-02-21T13:29:40.000Z</time>
      </trkpt>
      <trkpt lat="48.79591" lon="2.1803">
        <ele>178</ele>
        <time>2016-02-21T13:29:54.000Z</time>
      </trkpt>
      <trkpt lat="48.79586" lon="2.18041">
        <ele>178</ele>
        <time>2016-02-21T13:30:02.000Z</time>
      </trkpt>
      <trkpt lat="48.79578" lon="2.18046">
        <ele>178</ele>
        <time>2016-02-21T13:30:06.000Z</time>
      </trkpt>
      <trkpt lat="48.79571" lon="2.1805">
        <ele>178</ele>
        <time>2016-02-21T13:30:12.000Z</time>
      </trkpt>
      <trkpt lat="48.79568" lon="2.18057">
        <ele>178</ele>
        <time>2016-02-21T13:30:18.000Z</time>
      </trkpt>
      <trkpt lat="48.79568" lon="2.18057">
        <ele>178</ele>
        <time>2016-02-21T13:30:20.000Z</time>
      </trkpt>
      <trkpt lat="48.79568" lon="2.18057">
        <ele>178</ele>
        <time>2016-02-21T13:30:22.000Z</time>
      </trkpt>
      <trkpt lat="48.79565" lon="2.18068">
        <ele>179</ele>
        <time>2016-02-21T13:30:24.000Z</time>
      </trkpt>
      <trkpt lat="48.79565" lon="2.18068">
        <ele>179</ele>
        <time>2016-02-21T13:30:26.000Z</time>
      </trkpt>
      <trkpt lat="48.79565" lon="2.18068">
        <ele>179</ele>
        <time>2016-02-21T13:30:28.000Z</time>
      </trkpt>
      <trkpt lat="48.79565" lon="2.18068">
        <ele>179</ele>
        <time>2016-02-21T13:30:30.000Z</time>
      </trkpt>
      <trkpt lat="48.79562" lon="2.18075">
        <ele>177</ele>
        <time>2016-02-21T13:30:42.000Z</time>
      </trkpt>
      <trkpt lat="48.79559" lon="2.18079">
        <ele>176</ele>
        <time>2016-02-21T13:30:44.000Z</time>
      </trkpt>
      <trkpt lat="48.79557" lon="2.18082">
        <ele>176</ele>
        <time>2016-02-21T13:30:46.000Z</time>
      </trkpt>
      <trkpt lat="48.79557" lon="2.18082">
        <ele>176</ele>
        <time>2016-02-21T13:30:48.000Z</time>
      </trkpt>
      <trkpt lat="48.79555" lon="2.18085">
        <ele>175</ele>
        <time>2016-02-21T13:30:50.000Z</time>
      </trkpt>
      <trkpt lat="48.79555" lon="2.18085">
        <ele>175</ele>
        <time>2016-02-21T13:30:52.000Z</time>
      </trkpt>
      <trkpt lat="48.79553" lon="2.18088">
        <ele>174</ele>
        <time>2016-02-21T13:30:54.000Z</time>
      </trkpt>
      <trkpt lat="48.79553" lon="2.18088">
        <ele>174</ele>
        <time>2016-02-21T13:30:56.000Z</time>
      </trkpt>
      <trkpt lat="48.79553" lon="2.18088">
        <ele>174</ele>
        <time>2016-02-21T13:30:58.000Z</time>
      </trkpt>
      <trkpt lat="48.79552" lon="2.18094">
        <ele>172</ele>
        <time>2016-02-21T13:31:00.000Z</time>
      </trkpt>
      <trkpt lat="48.79552" lon="2.18094">
        <ele>172</ele>
        <time>2016-02-21T13:31:02.000Z</time>
      </trkpt>
      <trkpt lat="48.79556" lon="2.18102">
        <ele>171</ele>
        <time>2016-02-21T13:31:05.000Z</time>
      </trkpt>
      <trkpt lat="48.79558" lon="2.18109">
        <ele>170</ele>
        <time>2016-02-21T13:31:07.000Z</time>
      </trkpt>
      <trkpt lat="48.7956" lon="2.18115">
        <ele>170</ele>
        <time>2016-02-21T13:31:09.000Z</time>
      </trkpt>
      <trkpt lat="48.7956" lon="2.18115">
        <ele>170</ele>
        <time>2016-02-21T13:31:11.000Z</time>
      </trkpt>
      <trkpt lat="48.7956" lon="2.18119">
        <ele>169</ele>
        <time>2016-02-21T13:31:13.000Z</time>
      </trkpt>
      <trkpt lat="48.7956" lon="2.18119">
        <ele>169</ele>
        <time>2016-02-21T13:31:15.000Z</time>
      </trkpt>
      <trkpt lat="48.79559" lon="2.18126">
        <ele>168</ele>
        <time>2016-02-21T13:31:19.000Z</time>
      </trkpt>
      <trkpt lat="48.79557" lon="2.18131">
        <ele>168</ele>
        <time>2016-02-21T13:31:21.000Z</time>
      </trkpt>
      <trkpt lat="48.79556" lon="2.18135">
        <ele>167</ele>
        <time>2016-02-21T13:31:25.000Z</time>
      </trkpt>
      <trkpt lat="48.79556" lon="2.18135">
        <ele>167</ele>
        <time>2016-02-21T13:31:27.000Z</time>
      </trkpt>
      <trkpt lat="48.79554" lon="2.1814">
        <ele>166</ele>
        <time>2016-02-21T13:31:29.000Z</time>
      </trkpt>
      <trkpt lat="48.79554" lon="2.1814">
        <ele>166</ele>
        <time>2016-02-21T13:31:31.000Z</time>
      </trkpt>
      <trkpt lat="48.79554" lon="2.18146">
        <ele>165</ele>
        <time>2016-02-21T13:31:33.000Z</time>
      </trkpt>
      <trkpt lat="48.79554" lon="2.18153">
        <ele>164</ele>
        <time>2016-02-21T13:31:37.000Z</time>
      </trkpt>
      <trkpt lat="48.79554" lon="2.18159">
        <ele>164</ele>
        <time>2016-02-21T13:31:39.000Z</time>
      </trkpt>
      <trkpt lat="48.79555" lon="2.18164">
        <ele>163</ele>
        <time>2016-02-21T13:31:41.000Z</time>
      </trkpt>
      <trkpt lat="48.79555" lon="2.18169">
        <ele>163</ele>
        <time>2016-02-21T13:31:43.000Z</time>
      </trkpt>
      <trkpt lat="48.79555" lon="2.18169">
        <ele>163</ele>
        <time>2016-02-21T13:31:45.000Z</time>
      </trkpt>
      <trkpt lat="48.79556" lon="2.18175">
        <ele>162</ele>
        <time>2016-02-21T13:31:47.000Z</time>
      </trkpt>
      <trkpt lat="48.79556" lon="2.18175">
        <ele>162</ele>
        <time>2016-02-21T13:31:49.000Z</time>
      </trkpt>
      <trkpt lat="48.79557" lon="2.1818">
        <ele>162</ele>
        <time>2016-02-21T13:31:51.000Z</time>
      </trkpt>
      <trkpt lat="48.79557" lon="2.1818">
        <ele>162</ele>
        <time>2016-02-21T13:31:53.000Z</time>
      </trkpt>
      <trkpt lat="48.79557" lon="2.1818">
        <ele>162</ele>
        <time>2016-02-21T13:31:55.000Z</time>
      </trkpt>
      <trkpt lat="48.79556" lon="2.18189">
        <ele>159</ele>
        <time>2016-02-21T13:32:07.000Z</time>
      </trkpt>
      <trkpt lat="48.79557" lon="2.18195">
        <ele>159</ele>
        <time>2016-02-21T13:32:09.000Z</time>
      </trkpt>
      <trkpt lat="48.79557" lon="2.18195">
        <ele>159</ele>
        <time>2016-02-21T13:32:11.000Z</time>
      </trkpt>
      <trkpt lat="48.79556" lon="2.18201">
        <ele>158</ele>
        <time>2016-02-21T13:32:13.000Z</time>
      </trkpt>
      <trkpt lat="48.79556" lon="2.18201">
        <ele>158</ele>
        <time>2016-02-21T13:32:15.000Z</time>
      </trkpt>
      <trkpt lat="48.79556" lon="2.18201">
        <ele>158</ele>
        <time>2016-02-21T13:32:17.000Z</time>
      </trkpt>
      <trkpt lat="48.79555" lon="2.18205">
        <ele>158</ele>
        <time>2016-02-21T13:32:19.000Z</time>
      </trkpt>
      <trkpt lat="48.79555" lon="2.18205">
        <ele>158</ele>
        <time>2016-02-21T13:32:23.000Z</time>
      </trkpt>
      <trkpt lat="48.79555" lon="2.18205">
        <ele>158</ele>
        <time>2016-02-21T13:32:25.000Z</time>
      </trkpt>
      <trkpt lat="48.79555" lon="2.18205">
        <ele>158</ele>
        <time>2016-02-21T13:32:27.000Z</time>
      </trkpt>
      <trkpt lat="48.79437" lon="2.18296">
        <ele>185</ele>
        <time>2016-02-21T13:36:50.000Z</time>
      </trkpt>
      <trkpt lat="48.79377" lon="2.18342">
        <ele>185</ele>
        <time>2016-02-21T13:36:52.000Z</time>
      </trkpt>
      <trkpt lat="48.79377" lon="2.18342">
        <ele>185</ele>
        <time>2016-02-21T13:36:54.000Z</time>
      </trkpt>
      <trkpt lat="48.79377" lon="2.18342">
        <ele>185</ele>
        <time>2016-02-21T13:36:56.000Z</time>
      </trkpt>
      <trkpt lat="48.79345" lon="2.18367">
        <ele>186</ele>
        <time>2016-02-21T13:37:01.000Z</time>
      </trkpt>
      <trkpt lat="48.79345" lon="2.18367">
        <ele>186</ele>
        <time>2016-02-21T13:37:03.000Z</time>
      </trkpt>
      <trkpt lat="48.79345" lon="2.18367">
        <ele>186</ele>
        <time>2016-02-21T13:37:05.000Z</time>
      </trkpt>
      <trkpt lat="48.79345" lon="2.18367">
        <ele>186</ele>
        <time>2016-02-21T13:37:07.000Z</time>
      </trkpt>
      <trkpt lat="48.79345" lon="2.18367">
        <ele>186</ele>
        <time>2016-02-21T13:37:09.000Z</time>
      </trkpt>
      <trkpt lat="48.79345" lon="2.18367">
        <ele>186</ele>
        <time>2016-02-21T13:37:25.000Z</time>
      </trkpt>
      <trkpt lat="48.79263" lon="2.18479">
        <ele>192</ele>
        <time>2016-02-21T13:40:41.000Z</time>
      </trkpt>
      <trkpt lat="48.79222" lon="2.18535">
        <ele>191</ele>
        <time>2016-02-21T13:40:43.000Z</time>
      </trkpt>
      <trkpt lat="48.79222" lon="2.18535">
        <ele>191</ele>
        <time>2016-02-21T13:40:45.000Z</time>
      </trkpt>
      <trkpt lat="48.79222" lon="2.18535">
        <ele>191</ele>
        <time>2016-02-21T13:41:05.000Z</time>
      </trkpt>
      <trkpt lat="48.79222" lon="2.18535">
        <ele>191</ele>
        <time>2016-02-21T13:41:07.000Z</time>
      </trkpt>
      <trkpt lat="48.79222" lon="2.18535">
        <ele>191</ele>
        <time>2016-02-21T13:41:09.000Z</time>
      </trkpt>
      <trkpt lat="48.79222" lon="2.18535">
        <ele>191</ele>
        <time>2016-02-21T13:41:13.000Z</time>
      </trkpt>
      <trkpt lat="48.79159" lon="2.18719">
        <ele>195</ele>
        <time>2016-02-21T13:45:33.000Z</time>
      </trkpt>
      <trkpt lat="48.79159" lon="2.18719">
        <ele>195</ele>
        <time>2016-02-21T13:45:35.000Z</time>
      </trkpt>
      <trkpt lat="48.79159" lon="2.18719">
        <ele>195</ele>
        <time>2016-02-21T13:45:37.000Z</time>
      </trkpt>
      <trkpt lat="48.79159" lon="2.18719">
        <ele>195</ele>
        <time>2016-02-21T13:45:39.000Z</time>
      </trkpt>
      <trkpt lat="48.79144" lon="2.18931">
        <ele>174</ele>
        <time>2016-02-21T13:49:27.000Z</time>
      </trkpt>
      <trkpt lat="48.79136" lon="2.19039">
        <ele>174</ele>
        <time>2016-02-21T13:49:29.000Z</time>
      </trkpt>
      <trkpt lat="48.79133" lon="2.19094">
        <ele>174</ele>
        <time>2016-02-21T13:49:31.000Z</time>
      </trkpt>
      <trkpt lat="48.79132" lon="2.19123">
        <ele>174</ele>
        <time>2016-02-21T13:49:33.000Z</time>
      </trkpt>
      <trkpt lat="48.79132" lon="2.19139">
        <ele>174</ele>
        <time>2016-02-21T13:49:35.000Z</time>
      </trkpt>
      <trkpt lat="48.79133" lon="2.19158">
        <ele>174</ele>
        <time>2016-02-21T13:49:37.000Z</time>
      </trkpt>
      <trkpt lat="48.79133" lon="2.19158">
        <ele>174</ele>
        <time>2016-02-21T13:49:39.000Z</time>
      </trkpt>
      <trkpt lat="48.79133" lon="2.19158">
        <ele>174</ele>
        <time>2016-02-21T13:49:41.000Z</time>
      </trkpt>
      <trkpt lat="48.79133" lon="2.19168">
        <ele>174</ele>
        <time>2016-02-21T13:49:43.000Z</time>
      </trkpt>
      <trkpt lat="48.79134" lon="2.1918">
        <ele>174</ele>
        <time>2016-02-21T13:49:49.000Z</time>
      </trkpt>
      <trkpt lat="48.79136" lon="2.19188">
        <ele>174</ele>
        <time>2016-02-21T13:49:55.000Z</time>
      </trkpt>
      <trkpt lat="48.79136" lon="2.19188">
        <ele>174</ele>
        <time>2016-02-21T13:50:02.000Z</time>
      </trkpt>
      <trkpt lat="48.79138" lon="2.19201">
        <ele>173</ele>
        <time>2016-02-21T13:50:04.000Z</time>
      </trkpt>
      <trkpt lat="48.79138" lon="2.19201">
        <ele>173</ele>
        <time>2016-02-21T13:50:08.000Z</time>
      </trkpt>
      <trkpt lat="48.79138" lon="2.19201">
        <ele>173</ele>
        <time>2016-02-21T13:50:10.000Z</time>
      </trkpt>
      <trkpt lat="48.79139" lon="2.19212">
        <ele>171</ele>
        <time>2016-02-21T13:50:12.000Z</time>
      </trkpt>
      <trkpt lat="48.79139" lon="2.19212">
        <ele>171</ele>
        <time>2016-02-21T13:50:14.000Z</time>
      </trkpt>
      <trkpt lat="48.79139" lon="2.19212">
        <ele>171</ele>
        <time>2016-02-21T13:50:16.000Z</time>
      </trkpt>
      <trkpt lat="48.79142" lon="2.19226">
        <ele>170</ele>
        <time>2016-02-21T13:50:18.000Z</time>
      </trkpt>
      <trkpt lat="48.79142" lon="2.19226">
        <ele>170</ele>
        <time>2016-02-21T13:50:20.000Z</time>
      </trkpt>
      <trkpt lat="48.79142" lon="2.19226">
        <ele>170</ele>
        <time>2016-02-21T13:50:22.000Z</time>
      </trkpt>
      <trkpt lat="48.79148" lon="2.1924">
        <ele>168</ele>
        <time>2016-02-21T13:50:26.000Z</time>
      </trkpt>
      <trkpt lat="48.79148" lon="2.1924">
        <ele>168</ele>
        <time>2016-02-21T13:50:28.000Z</time>
      </trkpt>
      <trkpt lat="48.79148" lon="2.1924">
        <ele>168</ele>
        <time>2016-02-21T13:50:30.000Z</time>
      </trkpt>
      <trkpt lat="48.79148" lon="2.1924">
        <ele>168</ele>
        <time>2016-02-21T13:50:32.000Z</time>
      </trkpt>
      <trkpt lat="48.79145" lon="2.19269">
        <ele>169</ele>
        <time>2016-02-21T13:52:45.000Z</time>
      </trkpt>
      <trkpt lat="48.79144" lon="2.19284">
        <ele>169</ele>
        <time>2016-02-21T13:52:47.000Z</time>
      </trkpt>
      <trkpt lat="48.79144" lon="2.19293">
        <ele>169</ele>
        <time>2016-02-21T13:52:49.000Z</time>
      </trkpt>
      <trkpt lat="48.79143" lon="2.19298">
        <ele>169</ele>
        <time>2016-02-21T13:52:51.000Z</time>
      </trkpt>
      <trkpt lat="48.79143" lon="2.19298">
        <ele>169</ele>
        <time>2016-02-21T13:52:53.000Z</time>
      </trkpt>
      <trkpt lat="48.79143" lon="2.19298">
        <ele>169</ele>
        <time>2016-02-21T13:52:55.000Z</time>
      </trkpt>
      <trkpt lat="48.7914" lon="2.19306">
        <ele>169</ele>
        <time>2016-02-21T13:52:57.000Z</time>
      </trkpt>
      <trkpt lat="48.79139" lon="2.19311">
        <ele>169</ele>
        <time>2016-02-21T13:52:59.000Z</time>
      </trkpt>
      <trkpt lat="48.79137" lon="2.19316">
        <ele>170</ele>
        <time>2016-02-21T13:53:03.000Z</time>
      </trkpt>
      <trkpt lat="48.79137" lon="2.19316">
        <ele>170</ele>
        <time>2016-02-21T13:53:05.000Z</time>
      </trkpt>
      <trkpt lat="48.79137" lon="2.19316">
        <ele>170</ele>
        <time>2016-02-21T13:53:07.000Z</time>
      </trkpt>
      <trkpt lat="48.79137" lon="2.19316">
        <ele>170</ele>
        <time>2016-02-21T13:53:09.000Z</time>
      </trkpt>
      <trkpt lat="48.79137" lon="2.19316">
        <ele>170</ele>
        <time>2016-02-21T13:53:21.000Z</time>
      </trkpt>
      <trkpt lat="48.79137" lon="2.19316">
        <ele>170</ele>
        <time>2016-02-21T13:53:23.000Z</time>
      </trkpt>
      <trkpt lat="48.79137" lon="2.19316">
        <ele>170</ele>
        <time>2016-02-21T13:53:25.000Z</time>
      </trkpt>
      <trkpt lat="48.79121" lon="2.19386">
        <ele>173</ele>
        <time>2016-02-21T13:54:33.000Z</time>
      </trkpt>
      <trkpt lat="48.79113" lon="2.19423">
        <ele>173</ele>
        <time>2016-02-21T13:54:35.000Z</time>
      </trkpt>
      <trkpt lat="48.79108" lon="2.19444">
        <ele>173</ele>
        <time>2016-02-21T13:54:37.000Z</time>
      </trkpt>
      <trkpt lat="48.79108" lon="2.19444">
        <ele>173</ele>
        <time>2016-02-21T13:54:39.000Z</time>
      </trkpt>
      <trkpt lat="48.79108" lon="2.19444">
        <ele>173</ele>
        <time>2016-02-21T13:54:41.000Z</time>
      </trkpt>
      <trkpt lat="48.79108" lon="2.19444">
        <ele>173</ele>
        <time>2016-02-21T13:54:43.000Z</time>
      </trkpt>
      <trkpt lat="48.79108" lon="2.19444">
        <ele>173</ele>
        <time>2016-02-21T13:54:49.000Z</time>
      </trkpt>
      <trkpt lat="48.79108" lon="2.19444">
        <ele>173</ele>
        <time>2016-02-21T13:55:25.000Z</time>
      </trkpt>
      <trkpt lat="48.79089" lon="2.1952">
        <ele>184</ele>
        <time>2016-02-21T13:56:40.000Z</time>
      </trkpt>
      <trkpt lat="48.79079" lon="2.19559">
        <ele>184</ele>
        <time>2016-02-21T13:56:42.000Z</time>
      </trkpt>
      <trkpt lat="48.79074" lon="2.19579">
        <ele>184</ele>
        <time>2016-02-21T13:56:44.000Z</time>
      </trkpt>
      <trkpt lat="48.79074" lon="2.19579">
        <ele>184</ele>
        <time>2016-02-21T13:56:46.000Z</time>
      </trkpt>
      <trkpt lat="48.79071" lon="2.19592">
        <ele>184</ele>
        <time>2016-02-21T13:56:50.000Z</time>
      </trkpt>
      <trkpt lat="48.7907" lon="2.19599">
        <ele>185</ele>
        <time>2016-02-21T13:56:52.000Z</time>
      </trkpt>
      <trkpt lat="48.7907" lon="2.19599">
        <ele>185</ele>
        <time>2016-02-21T13:56:54.000Z</time>
      </trkpt>
      <trkpt lat="48.7907" lon="2.19599">
        <ele>185</ele>
        <time>2016-02-21T13:56:56.000Z</time>
      </trkpt>
      <trkpt lat="48.7907" lon="2.19599">
        <ele>185</ele>
        <time>2016-02-21T13:56:58.000Z</time>
      </trkpt>
      <trkpt lat="48.7907" lon="2.19599">
        <ele>185</ele>
        <time>2016-02-21T13:57:02.000Z</time>
      </trkpt>
      <trkpt lat="48.7907" lon="2.19599">
        <ele>185</ele>
        <time>2016-02-21T13:57:04.000Z</time>
      </trkpt>
      <trkpt lat="48.7907" lon="2.19599">
        <ele>185</ele>
        <time>2016-02-21T13:57:36.000Z</time>
      </trkpt>
      <trkpt lat="48.78987" lon="2.19934">
        <ele>192</ele>
        <time>2016-02-21T14:04:24.000Z</time>
      </trkpt>
      <trkpt lat="48.78944" lon="2.20105">
        <ele>191</ele>
        <time>2016-02-21T14:04:26.000Z</time>
      </trkpt>
      <trkpt lat="48.78944" lon="2.20105">
        <ele>191</ele>
        <time>2016-02-21T14:04:28.000Z</time>
      </trkpt>
      <trkpt lat="48.78944" lon="2.20105">
        <ele>191</ele>
        <time>2016-02-21T14:04:30.000Z</time>
      </trkpt>
      <trkpt lat="48.78944" lon="2.20105">
        <ele>191</ele>
        <time>2016-02-21T14:04:32.000Z</time>
      </trkpt>
      <trkpt lat="48.78923" lon="2.20209">
        <ele>185</ele>
        <time>2016-02-21T14:14:08.000Z</time>
      </trkpt>
      <trkpt lat="48.78923" lon="2.20209">
        <ele>185</ele>
        <time>2016-02-21T14:14:10.000Z</time>
      </trkpt>
      <trkpt lat="48.78923" lon="2.20209">
        <ele>185</ele>
        <time>2016-02-21T14:14:40.000Z</time>
      </trkpt>
      <trkpt lat="48.78978" lon="2.20309">
        <ele>191</ele>
        <time>2016-02-21T14:18:39.000Z</time>
      </trkpt>
      <trkpt lat="48.78978" lon="2.20309">
        <ele>191</ele>
        <time>2016-02-21T14:18:42.000Z</time>
      </trkpt>
      <trkpt lat="48.78978" lon="2.20309">
        <ele>191</ele>
        <time>2016-02-21T14:18:44.000Z</time>
      </trkpt>
      <trkpt lat="48.79197" lon="2.20303">
        <ele>171</ele>
        <time>2016-02-21T14:25:28.000Z</time>
      </trkpt>
      <trkpt lat="48.79306" lon="2.203">
        <ele>171</ele>
        <time>2016-02-21T14:25:30.000Z</time>
      </trkpt>
      <trkpt lat="48.79306" lon="2.203">
        <ele>171</ele>
        <time>2016-02-21T14:25:32.000Z</time>
      </trkpt>
      <trkpt lat="48.79306" lon="2.203">
        <ele>171</ele>
        <time>2016-02-21T14:25:34.000Z</time>
      </trkpt>
      <trkpt lat="48.79306" lon="2.203">
        <ele>171</ele>
        <time>2016-02-21T14:25:36.000Z</time>
      </trkpt>
      <trkpt lat="48.79306" lon="2.203">
        <ele>171</ele>
        <time>2016-02-21T14:25:38.000Z</time>
      </trkpt>
      <trkpt lat="48.79306" lon="2.203">
        <ele>171</ele>
        <time>2016-02-21T14:25:40.000Z</time>
      </trkpt>
      <trkpt lat="48.79306" lon="2.203">
        <ele>171</ele>
        <time>2016-02-21T14:25:42.000Z</time>
      </trkpt>
      <trkpt lat="48.79306" lon="2.203">
        <ele>171</ele>
        <time>2016-02-21T14:25:44.000Z</time>
      </trkpt>
      <trkpt lat="48.79306" lon="2.203">
        <ele>171</ele>
        <time>2016-02-21T14:25:50.000Z</time>
      </trkpt>
      <trkpt lat="48.79306" lon="2.203">
        <ele>171</ele>
        <time>2016-02-21T14:25:53.000Z</time>
      </trkpt>
      <trkpt lat="48.79306" lon="2.203">
        <ele>171</ele>
        <time>2016-02-21T14:26:09.000Z</time>
      </trkpt>
      <trkpt lat="48.79377" lon="2.20406">
        <ele>190</ele>
        <time>2016-02-21T14:28:24.000Z</time>
      </trkpt>
      <trkpt lat="48.79412" lon="2.2046">
        <ele>190</ele>
        <time>2016-02-21T14:28:27.000Z</time>
      </trkpt>
      <trkpt lat="48.79412" lon="2.2046">
        <ele>190</ele>
        <time>2016-02-21T14:28:29.000Z</time>
      </trkpt>
      <trkpt lat="48.79425" lon="2.20505">
        <ele>192</ele>
        <time>2016-02-21T14:29:02.000Z</time>
      </trkpt>
      <trkpt lat="48.79433" lon="2.20529">
        <ele>193</ele>
        <time>2016-02-21T14:29:04.000Z</time>
      </trkpt>
      <trkpt lat="48.79433" lon="2.20529">
        <ele>193</ele>
        <time>2016-02-21T14:29:06.000Z</time>
      </trkpt>
      <trkpt lat="48.79433" lon="2.20529">
        <ele>193</ele>
        <time>2016-02-21T14:29:08.000Z</time>
      </trkpt>
      <trkpt lat="48.79437" lon="2.2058">
        <ele>193</ele>
        <time>2016-02-21T14:29:59.000Z</time>
      </trkpt>
      <trkpt lat="48.79437" lon="2.2058">
        <ele>193</ele>
        <time>2016-02-21T14:30:01.000Z</time>
      </trkpt>
      <trkpt lat="48.79437" lon="2.2058">
        <ele>193</ele>
        <time>2016-02-21T14:30:03.000Z</time>
      </trkpt>
      <trkpt lat="48.79437" lon="2.2058">
        <ele>193</ele>
        <time>2016-02-21T14:30:05.000Z</time>
      </trkpt>
      <trkpt lat="48.79437" lon="2.2058">
        <ele>193</ele>
        <time>2016-02-21T14:30:09.000Z</time>
      </trkpt>
      <trkpt lat="48.79437" lon="2.2058">
        <ele>193</ele>
        <time>2016-02-21T14:30:17.000Z</time>
      </trkpt>
      <trkpt lat="48.79413" lon="2.20697">
        <ele>196</ele>
        <time>2016-02-21T14:32:05.000Z</time>
      </trkpt>
      <trkpt lat="48.794" lon="2.20756">
        <ele>196</ele>
        <time>2016-02-21T14:32:07.000Z</time>
      </trkpt>
      <trkpt lat="48.794" lon="2.20756">
        <ele>196</ele>
        <time>2016-02-21T14:32:09.000Z</time>
      </trkpt>
      <trkpt lat="48.794" lon="2.20756">
        <ele>196</ele>
        <time>2016-02-21T14:32:11.000Z</time>
      </trkpt>
      <trkpt lat="48.794" lon="2.20756">
        <ele>196</ele>
        <time>2016-02-21T14:32:17.000Z</time>
      </trkpt>
      <trkpt lat="48.794" lon="2.20756">
        <ele>196</ele>
        <time>2016-02-21T14:32:19.000Z</time>
      </trkpt>
      <trkpt lat="48.794" lon="2.20756">
        <ele>196</ele>
        <time>2016-02-21T14:32:33.000Z</time>
      </trkpt>
      <trkpt lat="48.794" lon="2.20756">
        <ele>196</ele>
        <time>2016-02-21T14:33:10.000Z</time>
      </trkpt>
      <trkpt lat="48.794" lon="2.20756">
        <ele>196</ele>
        <time>2016-02-21T14:33:13.000Z</time>
      </trkpt>
      <trkpt lat="48.79354" lon="2.20804">
        <ele>204</ele>
        <time>2016-02-21T14:33:27.000Z</time>
      </trkpt>
      <trkpt lat="48.79354" lon="2.20804">
        <ele>204</ele>
        <time>2016-02-21T14:33:29.000Z</time>
      </trkpt>
      <trkpt lat="48.79354" lon="2.20804">
        <ele>204</ele>
        <time>2016-02-21T14:33:31.000Z</time>
      </trkpt>
      <trkpt lat="48.79328" lon="2.20832">
        <ele>205</ele>
        <time>2016-02-21T14:33:33.000Z</time>
      </trkpt>
      <trkpt lat="48.79328" lon="2.20832">
        <ele>205</ele>
        <time>2016-02-21T14:33:35.000Z</time>
      </trkpt>
      <trkpt lat="48.79328" lon="2.20832">
        <ele>205</ele>
        <time>2016-02-21T14:33:43.000Z</time>
      </trkpt>
      <trkpt lat="48.79328" lon="2.20832">
        <ele>205</ele>
        <time>2016-02-21T14:33:45.000Z</time>
      </trkpt>
      <trkpt lat="48.79328" lon="2.20832">
        <ele>205</ele>
        <time>2016-02-21T14:33:47.000Z</time>
      </trkpt>
      <trkpt lat="48.79328" lon="2.20832">
        <ele>205</ele>
        <time>2016-02-21T14:33:49.000Z</time>
      </trkpt>
      <trkpt lat="48.79342" lon="2.20905">
        <ele>218</ele>
        <time>2016-02-21T14:35:48.000Z</time>
      </trkpt>
      <trkpt lat="48.79349" lon="2.20943">
        <ele>219</ele>
        <time>2016-02-21T14:35:50.000Z</time>
      </trkpt>
      <trkpt lat="48.79353" lon="2.20962">
        <ele>219</ele>
        <time>2016-02-21T14:35:52.000Z</time>
      </trkpt>
      <trkpt lat="48.79353" lon="2.20962">
        <ele>219</ele>
        <time>2016-02-21T14:35:54.000Z</time>
      </trkpt>
      <trkpt lat="48.79365" lon="2.20984">
        <ele>220</ele>
        <time>2016-02-21T14:36:10.000Z</time>
      </trkpt>
      <trkpt lat="48.79372" lon="2.20997">
        <ele>220</ele>
        <time>2016-02-21T14:36:12.000Z</time>
      </trkpt>
      <trkpt lat="48.79372" lon="2.20997">
        <ele>220</ele>
        <time>2016-02-21T14:36:14.000Z</time>
      </trkpt>
      <trkpt lat="48.79372" lon="2.20997">
        <ele>220</ele>
        <time>2016-02-21T14:36:16.000Z</time>
      </trkpt>
      <trkpt lat="48.79381" lon="2.21016">
        <ele>219</ele>
        <time>2016-02-21T14:36:38.000Z</time>
      </trkpt>
      <trkpt lat="48.79381" lon="2.21016">
        <ele>219</ele>
        <time>2016-02-21T14:36:40.000Z</time>
      </trkpt>
      <trkpt lat="48.79381" lon="2.21016">
        <ele>219</ele>
        <time>2016-02-21T14:36:42.000Z</time>
      </trkpt>
      <trkpt lat="48.79388" lon="2.21045">
        <ele>218</ele>
        <time>2016-02-21T14:37:11.000Z</time>
      </trkpt>
      <trkpt lat="48.79388" lon="2.21045">
        <ele>218</ele>
        <time>2016-02-21T14:37:13.000Z</time>
      </trkpt>
      <trkpt lat="48.79388" lon="2.21045">
        <ele>218</ele>
        <time>2016-02-21T14:37:15.000Z</time>
      </trkpt>
      <trkpt lat="48.79388" lon="2.21045">
        <ele>218</ele>
        <time>2016-02-21T14:37:19.000Z</time>
      </trkpt>
      <trkpt lat="48.79388" lon="2.21045">
        <ele>218</ele>
        <time>2016-02-21T14:37:23.000Z</time>
      </trkpt>
      <trkpt lat="48.79388" lon="2.21045">
        <ele>218</ele>
        <time>2016-02-21T14:37:36.000Z</time>
      </trkpt>
      <trkpt lat="48.7939" lon="2.21312">
        <ele>222</ele>
        <time>2016-02-21T14:41:55.000Z</time>
      </trkpt>
      <trkpt lat="48.79391" lon="2.21447">
        <ele>222</ele>
        <time>2016-02-21T14:41:57.000Z</time>
      </trkpt>
      <trkpt lat="48.79391" lon="2.21447">
        <ele>222</ele>
        <time>2016-02-21T14:41:59.000Z</time>
      </trkpt>
      <trkpt lat="48.79391" lon="2.21447">
        <ele>222</ele>
        <time>2016-02-21T14:42:01.000Z</time>
      </trkpt>
      <trkpt lat="48.7939" lon="2.21536">
        <ele>222</ele>
        <time>2016-02-21T14:42:18.000Z</time>
      </trkpt>
      <trkpt lat="48.79387" lon="2.21584">
        <ele>222</ele>
        <time>2016-02-21T14:42:20.000Z</time>
      </trkpt>
      <trkpt lat="48.79385" lon="2.21611">
        <ele>222</ele>
        <time>2016-02-21T14:42:22.000Z</time>
      </trkpt>
      <trkpt lat="48.79383" lon="2.21626">
        <ele>223</ele>
        <time>2016-02-21T14:42:24.000Z</time>
      </trkpt>
      <trkpt lat="48.79383" lon="2.21633">
        <ele>223</ele>
        <time>2016-02-21T14:42:26.000Z</time>
      </trkpt>
      <trkpt lat="48.79383" lon="2.21633">
        <ele>223</ele>
        <time>2016-02-21T14:42:28.000Z</time>
      </trkpt>
      <trkpt lat="48.79383" lon="2.21633">
        <ele>223</ele>
        <time>2016-02-21T14:42:32.000Z</time>
      </trkpt>
      <trkpt lat="48.79392" lon="2.21666">
        <ele>225</ele>
        <time>2016-02-21T14:42:46.000Z</time>
      </trkpt>
      <trkpt lat="48.79392" lon="2.21666">
        <ele>225</ele>
        <time>2016-02-21T14:42:50.000Z</time>
      </trkpt>
      <trkpt lat="48.79392" lon="2.21666">
        <ele>225</ele>
        <time>2016-02-21T14:42:52.000Z</time>
      </trkpt>
      <trkpt lat="48.7939" lon="2.21697">
        <ele>224</ele>
        <time>2016-02-21T14:42:56.000Z</time>
      </trkpt>
      <trkpt lat="48.79389" lon="2.21712">
        <ele>224</ele>
        <time>2016-02-21T14:43:06.000Z</time>
      </trkpt>
      <trkpt lat="48.79384" lon="2.21727">
        <ele>225</ele>
        <time>2016-02-21T14:43:12.000Z</time>
      </trkpt>
      <trkpt lat="48.79384" lon="2.21727">
        <ele>225</ele>
        <time>2016-02-21T14:43:14.000Z</time>
      </trkpt>
      <trkpt lat="48.79384" lon="2.21727">
        <ele>225</ele>
        <time>2016-02-21T14:43:16.000Z</time>
      </trkpt>
      <trkpt lat="48.79384" lon="2.21727">
        <ele>225</ele>
        <time>2016-02-21T14:43:18.000Z</time>
      </trkpt>
      <trkpt lat="48.79384" lon="2.21727">
        <ele>225</ele>
        <time>2016-02-21T14:43:24.000Z</time>
      </trkpt>
      <trkpt lat="48.79384" lon="2.21727">
        <ele>225</ele>
        <time>2016-02-21T14:43:26.000Z</time>
      </trkpt>
      <trkpt lat="48.79385" lon="2.21745">
        <ele>224</ele>
        <time>2016-02-21T14:43:28.000Z</time>
      </trkpt>
      <trkpt lat="48.79388" lon="2.21755">
        <ele>223</ele>
        <time>2016-02-21T14:43:34.000Z</time>
      </trkpt>
      <trkpt lat="48.79388" lon="2.21755">
        <ele>223</ele>
        <time>2016-02-21T14:43:38.000Z</time>
      </trkpt>
      <trkpt lat="48.79389" lon="2.21767">
        <ele>224</ele>
        <time>2016-02-21T14:43:40.000Z</time>
      </trkpt>
      <trkpt lat="48.79389" lon="2.21767">
        <ele>224</ele>
        <time>2016-02-21T14:43:42.000Z</time>
      </trkpt>
      <trkpt lat="48.79389" lon="2.21767">
        <ele>224</ele>
        <time>2016-02-21T14:43:44.000Z</time>
      </trkpt>
      <trkpt lat="48.79389" lon="2.21767">
        <ele>224</ele>
        <time>2016-02-21T14:43:46.000Z</time>
      </trkpt>
      <trkpt lat="48.79389" lon="2.21767">
        <ele>224</ele>
        <time>2016-02-21T14:43:48.000Z</time>
      </trkpt>
      <trkpt lat="48.79389" lon="2.21767">
        <ele>224</ele>
        <time>2016-02-21T14:43:50.000Z</time>
      </trkpt>
      <trkpt lat="48.79391" lon="2.21788">
        <ele>223</ele>
        <time>2016-02-21T14:44:10.000Z</time>
      </trkpt>
      <trkpt lat="48.7939" lon="2.21802">
        <ele>223</ele>
        <time>2016-02-21T14:44:12.000Z</time>
      </trkpt>
      <trkpt lat="48.79389" lon="2.2181">
        <ele>223</ele>
        <time>2016-02-21T14:44:14.000Z</time>
      </trkpt>
      <trkpt lat="48.79389" lon="2.2181">
        <ele>223</ele>
        <time>2016-02-21T14:44:16.000Z</time>
      </trkpt>
      <trkpt lat="48.79388" lon="2.21818">
        <ele>222</ele>
        <time>2016-02-21T14:44:19.000Z</time>
      </trkpt>
      <trkpt lat="48.79387" lon="2.21826">
        <ele>222</ele>
        <time>2016-02-21T14:44:23.000Z</time>
      </trkpt>
      <trkpt lat="48.79387" lon="2.21826">
        <ele>222</ele>
        <time>2016-02-21T14:44:25.000Z</time>
      </trkpt>
      <trkpt lat="48.79387" lon="2.21826">
        <ele>222</ele>
        <time>2016-02-21T14:44:27.000Z</time>
      </trkpt>
      <trkpt lat="48.79383" lon="2.21833">
        <ele>220</ele>
        <time>2016-02-21T14:44:29.000Z</time>
      </trkpt>
      <trkpt lat="48.79383" lon="2.21833">
        <ele>220</ele>
        <time>2016-02-21T14:44:31.000Z</time>
      </trkpt>
      <trkpt lat="48.79383" lon="2.21833">
        <ele>220</ele>
        <time>2016-02-21T14:44:33.000Z</time>
      </trkpt>
      <trkpt lat="48.79383" lon="2.21833">
        <ele>220</ele>
        <time>2016-02-21T14:44:35.000Z</time>
      </trkpt>
      <trkpt lat="48.79383" lon="2.21833">
        <ele>220</ele>
        <time>2016-02-21T14:44:37.000Z</time>
      </trkpt>
      <trkpt lat="48.79383" lon="2.21833">
        <ele>220</ele>
        <time>2016-02-21T14:44:39.000Z</time>
      </trkpt>
      <trkpt lat="48.79379" lon="2.21852">
        <ele>216</ele>
        <time>2016-02-21T14:45:35.000Z</time>
      </trkpt>
      <trkpt lat="48.79377" lon="2.21862">
        <ele>216</ele>
        <time>2016-02-21T14:45:37.000Z</time>
      </trkpt>
      <trkpt lat="48.79377" lon="2.2187">
        <ele>216</ele>
        <time>2016-02-21T14:45:39.000Z</time>
      </trkpt>
      <trkpt lat="48.79377" lon="2.2187">
        <ele>216</ele>
        <time>2016-02-21T14:45:41.000Z</time>
      </trkpt>
      <trkpt lat="48.79378" lon="2.2188">
        <ele>216</ele>
        <time>2016-02-21T14:45:43.000Z</time>
      </trkpt>
      <trkpt lat="48.79379" lon="2.21888">
        <ele>217</ele>
        <time>2016-02-21T14:45:47.000Z</time>
      </trkpt>
      <trkpt lat="48.7938" lon="2.21896">
        <ele>217</ele>
        <time>2016-02-21T14:45:49.000Z</time>
      </trkpt>
      <trkpt lat="48.79381" lon="2.21901">
        <ele>217</ele>
        <time>2016-02-21T14:45:51.000Z</time>
      </trkpt>
      <trkpt lat="48.79382" lon="2.21907">
        <ele>218</ele>
        <time>2016-02-21T14:45:55.000Z</time>
      </trkpt>
      <trkpt lat="48.79383" lon="2.21912">
        <ele>219</ele>
        <time>2016-02-21T14:45:59.000Z</time>
      </trkpt>
      <trkpt lat="48.79383" lon="2.21912">
        <ele>219</ele>
        <time>2016-02-21T14:46:01.000Z</time>
      </trkpt>
      <trkpt lat="48.79383" lon="2.21912">
        <ele>219</ele>
        <time>2016-02-21T14:46:03.000Z</time>
      </trkpt>
      <trkpt lat="48.79383" lon="2.21912">
        <ele>219</ele>
        <time>2016-02-21T14:46:05.000Z</time>
      </trkpt>
      <trkpt lat="48.79383" lon="2.21912">
        <ele>219</ele>
        <time>2016-02-21T14:46:07.000Z</time>
      </trkpt>
      <trkpt lat="48.79383" lon="2.21912">
        <ele>219</ele>
        <time>2016-02-21T14:46:09.000Z</time>
      </trkpt>
      <trkpt lat="48.79383" lon="2.21912">
        <ele>219</ele>
        <time>2016-02-21T14:46:11.000Z</time>
      </trkpt>
      <trkpt lat="48.79383" lon="2.21912">
        <ele>219</ele>
        <time>2016-02-21T14:46:13.000Z</time>
      </trkpt>
      <trkpt lat="48.79383" lon="2.21912">
        <ele>219</ele>
        <time>2016-02-21T14:46:15.000Z</time>
      </trkpt>
      <trkpt lat="48.79378" lon="2.21927">
        <ele>217</ele>
        <time>2016-02-21T14:46:31.000Z</time>
      </trkpt>
      <trkpt lat="48.79376" lon="2.21935">
        <ele>217</ele>
        <time>2016-02-21T14:46:33.000Z</time>
      </trkpt>
      <trkpt lat="48.79375" lon="2.2194">
        <ele>217</ele>
        <time>2016-02-21T14:46:35.000Z</time>
      </trkpt>
      <trkpt lat="48.79374" lon="2.21946">
        <ele>217</ele>
        <time>2016-02-21T14:46:39.000Z</time>
      </trkpt>
      <trkpt lat="48.79374" lon="2.21946">
        <ele>217</ele>
        <time>2016-02-21T14:46:41.000Z</time>
      </trkpt>
      <trkpt lat="48.79374" lon="2.21951">
        <ele>217</ele>
        <time>2016-02-21T14:46:43.000Z</time>
      </trkpt>
      <trkpt lat="48.79374" lon="2.21951">
        <ele>217</ele>
        <time>2016-02-21T14:46:45.000Z</time>
      </trkpt>
      <trkpt lat="48.79374" lon="2.21951">
        <ele>217</ele>
        <time>2016-02-21T14:46:47.000Z</time>
      </trkpt>
      <trkpt lat="48.79378" lon="2.21963">
        <ele>217</ele>
        <time>2016-02-21T14:46:59.000Z</time>
      </trkpt>
      <trkpt lat="48.79381" lon="2.2197">
        <ele>217</ele>
        <time>2016-02-21T14:47:01.000Z</time>
      </trkpt>
      <trkpt lat="48.79381" lon="2.2197">
        <ele>217</ele>
        <time>2016-02-21T14:47:03.000Z</time>
      </trkpt>
      <trkpt lat="48.79381" lon="2.2197">
        <ele>217</ele>
        <time>2016-02-21T14:47:05.000Z</time>
      </trkpt>
      <trkpt lat="48.79386" lon="2.21991">
        <ele>216</ele>
        <time>2016-02-21T14:47:32.000Z</time>
      </trkpt>
      <trkpt lat="48.79389" lon="2.22004">
        <ele>216</ele>
        <time>2016-02-21T14:47:34.000Z</time>
      </trkpt>
      <trkpt lat="48.79391" lon="2.22012">
        <ele>217</ele>
        <time>2016-02-21T14:47:36.000Z</time>
      </trkpt>
      <trkpt lat="48.79392" lon="2.2202">
        <ele>217</ele>
        <time>2016-02-21T14:47:40.000Z</time>
      </trkpt>
      <trkpt lat="48.79393" lon="2.22028">
        <ele>217</ele>
        <time>2016-02-21T14:47:42.000Z</time>
      </trkpt>
      <trkpt lat="48.79396" lon="2.2204">
        <ele>217</ele>
        <time>2016-02-21T14:47:44.000Z</time>
      </trkpt>
      <trkpt lat="48.79403" lon="2.22047">
        <ele>218</ele>
        <time>2016-02-21T14:47:50.000Z</time>
      </trkpt>
      <trkpt lat="48.79403" lon="2.22047">
        <ele>218</ele>
        <time>2016-02-21T14:47:52.000Z</time>
      </trkpt>
      <trkpt lat="48.79403" lon="2.22047">
        <ele>218</ele>
        <time>2016-02-21T14:47:54.000Z</time>
      </trkpt>
      <trkpt lat="48.79403" lon="2.22047">
        <ele>218</ele>
        <time>2016-02-21T14:47:56.000Z</time>
      </trkpt>
      <trkpt lat="48.79411" lon="2.2206">
        <ele>219</ele>
        <time>2016-02-21T14:48:00.000Z</time>
      </trkpt>
      <trkpt lat="48.79418" lon="2.2207">
        <ele>219</ele>
        <time>2016-02-21T14:48:04.000Z</time>
      </trkpt>
      <trkpt lat="48.79418" lon="2.2207">
        <ele>219</ele>
        <time>2016-02-21T14:48:08.000Z</time>
      </trkpt>
      <trkpt lat="48.79418" lon="2.2207">
        <ele>219</ele>
        <time>2016-02-21T14:48:10.000Z</time>
      </trkpt>
      <trkpt lat="48.79426" lon="2.2208">
        <ele>219</ele>
        <time>2016-02-21T14:48:12.000Z</time>
      </trkpt>
      <trkpt lat="48.79433" lon="2.22091">
        <ele>221</ele>
        <time>2016-02-21T14:48:18.000Z</time>
      </trkpt>
      <trkpt lat="48.7944" lon="2.22105">
        <ele>221</ele>
        <time>2016-02-21T14:48:26.000Z</time>
      </trkpt>
      <trkpt lat="48.7944" lon="2.22105">
        <ele>221</ele>
        <time>2016-02-21T14:48:28.000Z</time>
      </trkpt>
      <trkpt lat="48.7944" lon="2.22105">
        <ele>221</ele>
        <time>2016-02-21T14:48:30.000Z</time>
      </trkpt>
      <trkpt lat="48.79449" lon="2.22113">
        <ele>223</ele>
        <time>2016-02-21T14:48:36.000Z</time>
      </trkpt>
      <trkpt lat="48.79449" lon="2.22113">
        <ele>223</ele>
        <time>2016-02-21T14:48:42.000Z</time>
      </trkpt>
      <trkpt lat="48.79456" lon="2.22132">
        <ele>224</ele>
        <time>2016-02-21T14:48:44.000Z</time>
      </trkpt>
      <trkpt lat="48.79456" lon="2.22132">
        <ele>224</ele>
        <time>2016-02-21T14:48:46.000Z</time>
      </trkpt>
      <trkpt lat="48.79456" lon="2.22132">
        <ele>224</ele>
        <time>2016-02-21T14:48:48.000Z</time>
      </trkpt>
      <trkpt lat="48.79456" lon="2.22132">
        <ele>224</ele>
        <time>2016-02-21T14:48:50.000Z</time>
      </trkpt>
      <trkpt lat="48.79459" lon="2.22139">
        <ele>225</ele>
        <time>2016-02-21T14:48:52.000Z</time>
      </trkpt>
      <trkpt lat="48.79459" lon="2.22139">
        <ele>225</ele>
        <time>2016-02-21T14:48:54.000Z</time>
      </trkpt>
      <trkpt lat="48.79459" lon="2.22139">
        <ele>225</ele>
        <time>2016-02-21T14:48:56.000Z</time>
      </trkpt>
      <trkpt lat="48.79465" lon="2.22151">
        <ele>227</ele>
        <time>2016-02-21T14:49:00.000Z</time>
      </trkpt>
      <trkpt lat="48.79469" lon="2.2217">
        <ele>227</ele>
        <time>2016-02-21T14:49:06.000Z</time>
      </trkpt>
      <trkpt lat="48.79471" lon="2.22175">
        <ele>227</ele>
        <time>2016-02-21T14:49:12.000Z</time>
      </trkpt>
      <trkpt lat="48.79473" lon="2.2218">
        <ele>227</ele>
        <time>2016-02-21T14:49:14.000Z</time>
      </trkpt>
      <trkpt lat="48.79474" lon="2.22184">
        <ele>227</ele>
        <time>2016-02-21T14:49:16.000Z</time>
      </trkpt>
      <trkpt lat="48.79474" lon="2.22184">
        <ele>227</ele>
        <time>2016-02-21T14:49:18.000Z</time>
      </trkpt>
      <trkpt lat="48.79476" lon="2.22192">
        <ele>228</ele>
        <time>2016-02-21T14:49:20.000Z</time>
      </trkpt>
      <trkpt lat="48.79476" lon="2.22192">
        <ele>228</ele>
        <time>2016-02-21T14:49:22.000Z</time>
      </trkpt>
      <trkpt lat="48.79477" lon="2.222">
        <ele>228</ele>
        <time>2016-02-21T14:49:24.000Z</time>
      </trkpt>
      <trkpt lat="48.79477" lon="2.222">
        <ele>228</ele>
        <time>2016-02-21T14:49:26.000Z</time>
      </trkpt>
      <trkpt lat="48.79479" lon="2.22206">
        <ele>228</ele>
        <time>2016-02-21T14:49:28.000Z</time>
      </trkpt>
      <trkpt lat="48.79479" lon="2.22206">
        <ele>228</ele>
        <time>2016-02-21T14:49:30.000Z</time>
      </trkpt>
      <trkpt lat="48.79479" lon="2.22206">
        <ele>228</ele>
        <time>2016-02-21T14:49:32.000Z</time>
      </trkpt>
      <trkpt lat="48.79481" lon="2.22213">
        <ele>228</ele>
        <time>2016-02-21T14:49:34.000Z</time>
      </trkpt>
      <trkpt lat="48.79481" lon="2.22213">
        <ele>228</ele>
        <time>2016-02-21T14:49:36.000Z</time>
      </trkpt>
      <trkpt lat="48.79483" lon="2.22222">
        <ele>228</ele>
        <time>2016-02-21T14:49:38.000Z</time>
      </trkpt>
      <trkpt lat="48.79485" lon="2.2223">
        <ele>228</ele>
        <time>2016-02-21T14:49:40.000Z</time>
      </trkpt>
      <trkpt lat="48.79486" lon="2.22237">
        <ele>228</ele>
        <time>2016-02-21T14:49:44.000Z</time>
      </trkpt>
      <trkpt lat="48.79488" lon="2.22244">
        <ele>228</ele>
        <time>2016-02-21T14:49:48.000Z</time>
      </trkpt>
      <trkpt lat="48.7949" lon="2.22252">
        <ele>228</ele>
        <time>2016-02-21T14:49:54.000Z</time>
      </trkpt>
      <trkpt lat="48.79491" lon="2.22257">
        <ele>228</ele>
        <time>2016-02-21T14:49:58.000Z</time>
      </trkpt>
      <trkpt lat="48.79491" lon="2.22257">
        <ele>228</ele>
        <time>2016-02-21T14:50:00.000Z</time>
      </trkpt>
      <trkpt lat="48.79491" lon="2.22257">
        <ele>228</ele>
        <time>2016-02-21T14:50:02.000Z</time>
      </trkpt>
      <trkpt lat="48.79494" lon="2.22263">
        <ele>228</ele>
        <time>2016-02-21T14:50:04.000Z</time>
      </trkpt>
      <trkpt lat="48.79497" lon="2.22267">
        <ele>227</ele>
        <time>2016-02-21T14:50:06.000Z</time>
      </trkpt>
      <trkpt lat="48.79497" lon="2.22267">
        <ele>227</ele>
        <time>2016-02-21T14:50:08.000Z</time>
      </trkpt>
      <trkpt lat="48.795" lon="2.22271">
        <ele>227</ele>
        <time>2016-02-21T14:50:10.000Z</time>
      </trkpt>
      <trkpt lat="48.795" lon="2.22271">
        <ele>227</ele>
        <time>2016-02-21T14:50:12.000Z</time>
      </trkpt>
      <trkpt lat="48.79502" lon="2.22275">
        <ele>226</ele>
        <time>2016-02-21T14:50:14.000Z</time>
      </trkpt>
      <trkpt lat="48.79502" lon="2.22275">
        <ele>226</ele>
        <time>2016-02-21T14:50:16.000Z</time>
      </trkpt>
      <trkpt lat="48.79507" lon="2.22279">
        <ele>225</ele>
        <time>2016-02-21T14:50:20.000Z</time>
      </trkpt>
      <trkpt lat="48.79513" lon="2.22282">
        <ele>224</ele>
        <time>2016-02-21T14:50:24.000Z</time>
      </trkpt>
      <trkpt lat="48.79518" lon="2.22285">
        <ele>224</ele>
        <time>2016-02-21T14:50:28.000Z</time>
      </trkpt>
      <trkpt lat="48.79524" lon="2.22289">
        <ele>223</ele>
        <time>2016-02-21T14:50:32.000Z</time>
      </trkpt>
      <trkpt lat="48.79528" lon="2.22291">
        <ele>223</ele>
        <time>2016-02-21T14:50:34.000Z</time>
      </trkpt>
      <trkpt lat="48.79533" lon="2.22294">
        <ele>222</ele>
        <time>2016-02-21T14:50:38.000Z</time>
      </trkpt>
      <trkpt lat="48.79538" lon="2.22295">
        <ele>222</ele>
        <time>2016-02-21T14:50:40.000Z</time>
      </trkpt>
      <trkpt lat="48.79538" lon="2.22295">
        <ele>222</ele>
        <time>2016-02-21T14:50:42.000Z</time>
      </trkpt>
      <trkpt lat="48.79542" lon="2.22296">
        <ele>222</ele>
        <time>2016-02-21T14:50:44.000Z</time>
      </trkpt>
      <trkpt lat="48.79545" lon="2.22297">
        <ele>221</ele>
        <time>2016-02-21T14:50:46.000Z</time>
      </trkpt>
      <trkpt lat="48.79545" lon="2.22297">
        <ele>221</ele>
        <time>2016-02-21T14:50:48.000Z</time>
      </trkpt>
      <trkpt lat="48.79545" lon="2.22297">
        <ele>221</ele>
        <time>2016-02-21T14:50:50.000Z</time>
      </trkpt>
      <trkpt lat="48.7955" lon="2.223">
        <ele>221</ele>
        <time>2016-02-21T14:50:52.000Z</time>
      </trkpt>
      <trkpt lat="48.79552" lon="2.22302">
        <ele>221</ele>
        <time>2016-02-21T14:50:54.000Z</time>
      </trkpt>
      <trkpt lat="48.79552" lon="2.22302">
        <ele>221</ele>
        <time>2016-02-21T14:50:56.000Z</time>
      </trkpt>
      <trkpt lat="48.79552" lon="2.22302">
        <ele>221</ele>
        <time>2016-02-21T14:50:58.000Z</time>
      </trkpt>
      <trkpt lat="48.79552" lon="2.22302">
        <ele>221</ele>
        <time>2016-02-21T14:51:14.000Z</time>
      </trkpt>
      <trkpt lat="48.79548" lon="2.22326">
        <ele>215</ele>
        <time>2016-02-21T14:51:29.000Z</time>
      </trkpt>
      <trkpt lat="48.79546" lon="2.22341">
        <ele>214</ele>
        <time>2016-02-21T14:51:31.000Z</time>
      </trkpt>
      <trkpt lat="48.79544" lon="2.22352">
        <ele>214</ele>
        <time>2016-02-21T14:51:33.000Z</time>
      </trkpt>
      <trkpt lat="48.79543" lon="2.2236">
        <ele>214</ele>
        <time>2016-02-21T14:51:35.000Z</time>
      </trkpt>
      <trkpt lat="48.7954" lon="2.22368">
        <ele>213</ele>
        <time>2016-02-21T14:51:39.000Z</time>
      </trkpt>
      <trkpt lat="48.7954" lon="2.22368">
        <ele>213</ele>
        <time>2016-02-21T14:51:43.000Z</time>
      </trkpt>
      <trkpt lat="48.79537" lon="2.22374">
        <ele>213</ele>
        <time>2016-02-21T14:51:45.000Z</time>
      </trkpt>
      <trkpt lat="48.79534" lon="2.2238">
        <ele>213</ele>
        <time>2016-02-21T14:51:47.000Z</time>
      </trkpt>
      <trkpt lat="48.7953" lon="2.22386">
        <ele>212</ele>
        <time>2016-02-21T14:51:51.000Z</time>
      </trkpt>
      <trkpt lat="48.79528" lon="2.2239">
        <ele>212</ele>
        <time>2016-02-21T14:51:53.000Z</time>
      </trkpt>
      <trkpt lat="48.79528" lon="2.2239">
        <ele>212</ele>
        <time>2016-02-21T14:51:55.000Z</time>
      </trkpt>
      <trkpt lat="48.79528" lon="2.2239">
        <ele>212</ele>
        <time>2016-02-21T14:51:57.000Z</time>
      </trkpt>
      <trkpt lat="48.79528" lon="2.2239">
        <ele>212</ele>
        <time>2016-02-21T14:51:59.000Z</time>
      </trkpt>
      <trkpt lat="48.79528" lon="2.2239">
        <ele>212</ele>
        <time>2016-02-21T14:52:03.000Z</time>
      </trkpt>
      <trkpt lat="48.79514" lon="2.2241">
        <ele>208</ele>
        <time>2016-02-21T14:52:28.000Z</time>
      </trkpt>
      <trkpt lat="48.79506" lon="2.22422">
        <ele>208</ele>
        <time>2016-02-21T14:52:30.000Z</time>
      </trkpt>
      <trkpt lat="48.79501" lon="2.2243">
        <ele>208</ele>
        <time>2016-02-21T14:52:32.000Z</time>
      </trkpt>
      <trkpt lat="48.79498" lon="2.22435">
        <ele>207</ele>
        <time>2016-02-21T14:52:34.000Z</time>
      </trkpt>
      <trkpt lat="48.79496" lon="2.22441">
        <ele>207</ele>
        <time>2016-02-21T14:52:40.000Z</time>
      </trkpt>
      <trkpt lat="48.79493" lon="2.22445">
        <ele>206</ele>
        <time>2016-02-21T14:52:42.000Z</time>
      </trkpt>
      <trkpt lat="48.79493" lon="2.22445">
        <ele>206</ele>
        <time>2016-02-21T14:52:44.000Z</time>
      </trkpt>
      <trkpt lat="48.79493" lon="2.22445">
        <ele>206</ele>
        <time>2016-02-21T14:52:46.000Z</time>
      </trkpt>
      <trkpt lat="48.79491" lon="2.2245">
        <ele>205</ele>
        <time>2016-02-21T14:52:48.000Z</time>
      </trkpt>
      <trkpt lat="48.79488" lon="2.22456">
        <ele>205</ele>
        <time>2016-02-21T14:52:52.000Z</time>
      </trkpt>
      <trkpt lat="48.79486" lon="2.22462">
        <ele>204</ele>
        <time>2016-02-21T14:52:56.000Z</time>
      </trkpt>
      <trkpt lat="48.79485" lon="2.22466">
        <ele>204</ele>
        <time>2016-02-21T14:52:58.000Z</time>
      </trkpt>
      <trkpt lat="48.79483" lon="2.22472">
        <ele>204</ele>
        <time>2016-02-21T14:53:02.000Z</time>
      </trkpt>
      <trkpt lat="48.79482" lon="2.22476">
        <ele>204</ele>
        <time>2016-02-21T14:53:04.000Z</time>
      </trkpt>
      <trkpt lat="48.7948" lon="2.22481">
        <ele>204</ele>
        <time>2016-02-21T14:53:08.000Z</time>
      </trkpt>
      <trkpt lat="48.7948" lon="2.22481">
        <ele>204</ele>
        <time>2016-02-21T14:53:10.000Z</time>
      </trkpt>
      <trkpt lat="48.7948" lon="2.22481">
        <ele>204</ele>
        <time>2016-02-21T14:53:12.000Z</time>
      </trkpt>
      <trkpt lat="48.79479" lon="2.22487">
        <ele>203</ele>
        <time>2016-02-21T14:53:14.000Z</time>
      </trkpt>
      <trkpt lat="48.79478" lon="2.22492">
        <ele>203</ele>
        <time>2016-02-21T14:53:16.000Z</time>
      </trkpt>
      <trkpt lat="48.79477" lon="2.22496">
        <ele>203</ele>
        <time>2016-02-21T14:53:18.000Z</time>
      </trkpt>
      <trkpt lat="48.79477" lon="2.22496">
        <ele>203</ele>
        <time>2016-02-21T14:53:22.000Z</time>
      </trkpt>
      <trkpt lat="48.79475" lon="2.22502">
        <ele>202</ele>
        <time>2016-02-21T14:53:24.000Z</time>
      </trkpt>
      <trkpt lat="48.79475" lon="2.22502">
        <ele>202</ele>
        <time>2016-02-21T14:53:26.000Z</time>
      </trkpt>
      <trkpt lat="48.79472" lon="2.22509">
        <ele>201</ele>
        <time>2016-02-21T14:53:28.000Z</time>
      </trkpt>
      <trkpt lat="48.79469" lon="2.22514">
        <ele>200</ele>
        <time>2016-02-21T14:53:34.000Z</time>
      </trkpt>
      <trkpt lat="48.79469" lon="2.22514">
        <ele>200</ele>
        <time>2016-02-21T14:53:36.000Z</time>
      </trkpt>
      <trkpt lat="48.79466" lon="2.22515">
        <ele>199</ele>
        <time>2016-02-21T14:53:38.000Z</time>
      </trkpt>
      <trkpt lat="48.79466" lon="2.22515">
        <ele>199</ele>
        <time>2016-02-21T14:53:40.000Z</time>
      </trkpt>
      <trkpt lat="48.79466" lon="2.22515">
        <ele>199</ele>
        <time>2016-02-21T14:53:42.000Z</time>
      </trkpt>
      <trkpt lat="48.79466" lon="2.22515">
        <ele>199</ele>
        <time>2016-02-21T14:53:48.000Z</time>
      </trkpt>
      <trkpt lat="48.79463" lon="2.22528">
        <ele>196</ele>
        <time>2016-02-21T14:54:08.000Z</time>
      </trkpt>
      <trkpt lat="48.79461" lon="2.22536">
        <ele>195</ele>
        <time>2016-02-21T14:54:10.000Z</time>
      </trkpt>
      <trkpt lat="48.79459" lon="2.22542">
        <ele>194</ele>
        <time>2016-02-21T14:54:14.000Z</time>
      </trkpt>
      <trkpt lat="48.79459" lon="2.22542">
        <ele>194</ele>
        <time>2016-02-21T14:54:16.000Z</time>
      </trkpt>
      <trkpt lat="48.79459" lon="2.22542">
        <ele>194</ele>
        <time>2016-02-21T14:54:18.000Z</time>
      </trkpt>
      <trkpt lat="48.79459" lon="2.22542">
        <ele>194</ele>
        <time>2016-02-21T14:54:20.000Z</time>
      </trkpt>
      <trkpt lat="48.79459" lon="2.22542">
        <ele>194</ele>
        <time>2016-02-21T14:54:22.000Z</time>
      </trkpt>
      <trkpt lat="48.79459" lon="2.22542">
        <ele>194</ele>
        <time>2016-02-21T14:54:30.000Z</time>
      </trkpt>
      <trkpt lat="48.79484" lon="2.22474">
        <ele>198</ele>
        <time>2016-02-21T14:58:01.000Z</time>
      </trkpt>
      <trkpt lat="48.79484" lon="2.22474">
        <ele>198</ele>
        <time>2016-02-21T14:58:03.000Z</time>
      </trkpt>
      <trkpt lat="48.795" lon="2.22437">
        <ele>200</ele>
        <time>2016-02-21T14:58:07.000Z</time>
      </trkpt>
      <trkpt lat="48.79509" lon="2.22417">
        <ele>201</ele>
        <time>2016-02-21T14:58:09.000Z</time>
      </trkpt>
      <trkpt lat="48.79513" lon="2.22407">
        <ele>202</ele>
        <time>2016-02-21T14:58:11.000Z</time>
      </trkpt>
      <trkpt lat="48.79513" lon="2.22407">
        <ele>202</ele>
        <time>2016-02-21T14:58:13.000Z</time>
      </trkpt>
      <trkpt lat="48.79513" lon="2.22407">
        <ele>202</ele>
        <time>2016-02-21T14:58:15.000Z</time>
      </trkpt>
      <trkpt lat="48.79517" lon="2.22399">
        <ele>205</ele>
        <time>2016-02-21T14:58:19.000Z</time>
      </trkpt>
      <trkpt lat="48.79522" lon="2.22394">
        <ele>206</ele>
        <time>2016-02-21T14:58:23.000Z</time>
      </trkpt>
      <trkpt lat="48.79525" lon="2.2239">
        <ele>206</ele>
        <time>2016-02-21T14:58:25.000Z</time>
      </trkpt>
      <trkpt lat="48.79527" lon="2.22387">
        <ele>206</ele>
        <time>2016-02-21T14:58:27.000Z</time>
      </trkpt>
      <trkpt lat="48.79527" lon="2.22387">
        <ele>206</ele>
        <time>2016-02-21T14:58:29.000Z</time>
      </trkpt>
      <trkpt lat="48.7953" lon="2.22383">
        <ele>206</ele>
        <time>2016-02-21T14:58:31.000Z</time>
      </trkpt>
      <trkpt lat="48.7953" lon="2.22383">
        <ele>206</ele>
        <time>2016-02-21T14:58:33.000Z</time>
      </trkpt>
      <trkpt lat="48.79533" lon="2.22379">
        <ele>206</ele>
        <time>2016-02-21T14:58:35.000Z</time>
      </trkpt>
      <trkpt lat="48.79533" lon="2.22379">
        <ele>206</ele>
        <time>2016-02-21T14:58:41.000Z</time>
      </trkpt>
      <trkpt lat="48.79535" lon="2.22371">
        <ele>206</ele>
        <time>2016-02-21T14:58:43.000Z</time>
      </trkpt>
      <trkpt lat="48.79537" lon="2.22365">
        <ele>206</ele>
        <time>2016-02-21T14:58:45.000Z</time>
      </trkpt>
      <trkpt lat="48.79539" lon="2.22359">
        <ele>205</ele>
        <time>2016-02-21T14:58:49.000Z</time>
      </trkpt>
      <trkpt lat="48.79541" lon="2.22353">
        <ele>205</ele>
        <time>2016-02-21T14:58:53.000Z</time>
      </trkpt>
      <trkpt lat="48.79541" lon="2.22353">
        <ele>205</ele>
        <time>2016-02-21T14:58:55.000Z</time>
      </trkpt>
      <trkpt lat="48.79541" lon="2.22353">
        <ele>205</ele>
        <time>2016-02-21T14:58:57.000Z</time>
      </trkpt>
      <trkpt lat="48.79545" lon="2.22344">
        <ele>205</ele>
        <time>2016-02-21T14:58:59.000Z</time>
      </trkpt>
      <trkpt lat="48.79545" lon="2.22344">
        <ele>205</ele>
        <time>2016-02-21T14:59:02.000Z</time>
      </trkpt>
      <trkpt lat="48.79548" lon="2.22336">
        <ele>204</ele>
        <time>2016-02-21T14:59:04.000Z</time>
      </trkpt>
      <trkpt lat="48.79548" lon="2.22336">
        <ele>204</ele>
        <time>2016-02-21T14:59:06.000Z</time>
      </trkpt>
      <trkpt lat="48.79548" lon="2.22336">
        <ele>204</ele>
        <time>2016-02-21T14:59:08.000Z</time>
      </trkpt>
      <trkpt lat="48.79548" lon="2.22336">
        <ele>204</ele>
        <time>2016-02-21T14:59:10.000Z</time>
      </trkpt>
      <trkpt lat="48.79533" lon="2.22305">
        <ele>201</ele>
        <time>2016-02-21T14:59:51.000Z</time>
      </trkpt>
      <trkpt lat="48.79523" lon="2.22288">
        <ele>201</ele>
        <time>2016-02-21T14:59:53.000Z</time>
      </trkpt>
      <trkpt lat="48.79519" lon="2.22279">
        <ele>201</ele>
        <time>2016-02-21T14:59:55.000Z</time>
      </trkpt>
      <trkpt lat="48.79515" lon="2.22274">
        <ele>201</ele>
        <time>2016-02-21T14:59:57.000Z</time>
      </trkpt>
      <trkpt lat="48.79515" lon="2.22274">
        <ele>201</ele>
        <time>2016-02-21T14:59:59.000Z</time>
      </trkpt>
      <trkpt lat="48.79511" lon="2.22269">
        <ele>200</ele>
        <time>2016-02-21T15:00:01.000Z</time>
      </trkpt>
      <trkpt lat="48.79511" lon="2.22269">
        <ele>200</ele>
        <time>2016-02-21T15:00:03.000Z</time>
      </trkpt>
      <trkpt lat="48.79511" lon="2.22269">
        <ele>200</ele>
        <time>2016-02-21T15:00:05.000Z</time>
      </trkpt>
      <trkpt lat="48.79506" lon="2.22265">
        <ele>200</ele>
        <time>2016-02-21T15:00:07.000Z</time>
      </trkpt>
      <trkpt lat="48.79501" lon="2.22262">
        <ele>199</ele>
        <time>2016-02-21T15:00:11.000Z</time>
      </trkpt>
      <trkpt lat="48.79496" lon="2.22257">
        <ele>199</ele>
        <time>2016-02-21T15:00:15.000Z</time>
      </trkpt>
      <trkpt lat="48.79492" lon="2.22254">
        <ele>199</ele>
        <time>2016-02-21T15:00:17.000Z</time>
      </trkpt>
      <trkpt lat="48.79489" lon="2.22252">
        <ele>198</ele>
        <time>2016-02-21T15:00:19.000Z</time>
      </trkpt>
      <trkpt lat="48.79489" lon="2.22252">
        <ele>198</ele>
        <time>2016-02-21T15:00:21.000Z</time>
      </trkpt>
      <trkpt lat="48.79485" lon="2.22247">
        <ele>198</ele>
        <time>2016-02-21T15:00:23.000Z</time>
      </trkpt>
      <trkpt lat="48.79482" lon="2.22241">
        <ele>198</ele>
        <time>2016-02-21T15:00:27.000Z</time>
      </trkpt>
      <trkpt lat="48.79482" lon="2.22241">
        <ele>198</ele>
        <time>2016-02-21T15:00:29.000Z</time>
      </trkpt>
      <trkpt lat="48.79479" lon="2.22237">
        <ele>197</ele>
        <time>2016-02-21T15:00:31.000Z</time>
      </trkpt>
      <trkpt lat="48.79475" lon="2.22232">
        <ele>197</ele>
        <time>2016-02-21T15:00:35.000Z</time>
      </trkpt>
      <trkpt lat="48.79475" lon="2.22232">
        <ele>197</ele>
        <time>2016-02-21T15:00:39.000Z</time>
      </trkpt>
      <trkpt lat="48.79475" lon="2.22232">
        <ele>197</ele>
        <time>2016-02-21T15:00:41.000Z</time>
      </trkpt>
      <trkpt lat="48.79475" lon="2.22232">
        <ele>197</ele>
        <time>2016-02-21T15:00:43.000Z</time>
      </trkpt>
      <trkpt lat="48.79475" lon="2.22232">
        <ele>197</ele>
        <time>2016-02-21T15:00:45.000Z</time>
      </trkpt>
      <trkpt lat="48.79467" lon="2.22214">
        <ele>194</ele>
        <time>2016-02-21T15:01:01.000Z</time>
      </trkpt>
      <trkpt lat="48.79462" lon="2.22204">
        <ele>195</ele>
        <time>2016-02-21T15:01:03.000Z</time>
      </trkpt>
      <trkpt lat="48.7946" lon="2.22198">
        <ele>195</ele>
        <time>2016-02-21T15:01:05.000Z</time>
      </trkpt>
      <trkpt lat="48.7946" lon="2.22198">
        <ele>195</ele>
        <time>2016-02-21T15:01:07.000Z</time>
      </trkpt>
      <trkpt lat="48.7946" lon="2.22198">
        <ele>195</ele>
        <time>2016-02-21T15:01:09.000Z</time>
      </trkpt>
      <trkpt lat="48.79455" lon="2.22177">
        <ele>199</ele>
        <time>2016-02-21T15:01:22.000Z</time>
      </trkpt>
      <trkpt lat="48.79453" lon="2.22165">
        <ele>200</ele>
        <time>2016-02-21T15:01:24.000Z</time>
      </trkpt>
      <trkpt lat="48.79451" lon="2.22157">
        <ele>200</ele>
        <time>2016-02-21T15:01:26.000Z</time>
      </trkpt>
      <trkpt lat="48.7945" lon="2.22151">
        <ele>200</ele>
        <time>2016-02-21T15:01:28.000Z</time>
      </trkpt>
      <trkpt lat="48.7945" lon="2.22151">
        <ele>200</ele>
        <time>2016-02-21T15:01:30.000Z</time>
      </trkpt>
      <trkpt lat="48.7945" lon="2.22151">
        <ele>200</ele>
        <time>2016-02-21T15:01:36.000Z</time>
      </trkpt>
      <trkpt lat="48.79446" lon="2.22138">
        <ele>201</ele>
        <time>2016-02-21T15:01:40.000Z</time>
      </trkpt>
      <trkpt lat="48.79444" lon="2.2213">
        <ele>201</ele>
        <time>2016-02-21T15:01:42.000Z</time>
      </trkpt>
      <trkpt lat="48.79442" lon="2.22126">
        <ele>201</ele>
        <time>2016-02-21T15:01:44.000Z</time>
      </trkpt>
      <trkpt lat="48.79442" lon="2.22126">
        <ele>201</ele>
        <time>2016-02-21T15:01:46.000Z</time>
      </trkpt>
      <trkpt lat="48.7944" lon="2.22119">
        <ele>201</ele>
        <time>2016-02-21T15:01:48.000Z</time>
      </trkpt>
      <trkpt lat="48.7944" lon="2.22119">
        <ele>201</ele>
        <time>2016-02-21T15:01:50.000Z</time>
      </trkpt>
      <trkpt lat="48.79437" lon="2.22113">
        <ele>200</ele>
        <time>2016-02-21T15:01:52.000Z</time>
      </trkpt>
      <trkpt lat="48.79434" lon="2.22107">
        <ele>199</ele>
        <time>2016-02-21T15:01:56.000Z</time>
      </trkpt>
      <trkpt lat="48.79434" lon="2.22107">
        <ele>199</ele>
        <time>2016-02-21T15:01:58.000Z</time>
      </trkpt>
      <trkpt lat="48.79434" lon="2.22107">
        <ele>199</ele>
        <time>2016-02-21T15:02:00.000Z</time>
      </trkpt>
      <trkpt lat="48.79431" lon="2.221">
        <ele>197</ele>
        <time>2016-02-21T15:02:02.000Z</time>
      </trkpt>
      <trkpt lat="48.79429" lon="2.22095">
        <ele>196</ele>
        <time>2016-02-21T15:02:04.000Z</time>
      </trkpt>
      <trkpt lat="48.79429" lon="2.22095">
        <ele>196</ele>
        <time>2016-02-21T15:02:10.000Z</time>
      </trkpt>
      <trkpt lat="48.79429" lon="2.22095">
        <ele>196</ele>
        <time>2016-02-21T15:02:12.000Z</time>
      </trkpt>
      <trkpt lat="48.79429" lon="2.22095">
        <ele>196</ele>
        <time>2016-02-21T15:02:14.000Z</time>
      </trkpt>
      <trkpt lat="48.79422" lon="2.2208">
        <ele>194</ele>
        <time>2016-02-21T15:02:28.000Z</time>
      </trkpt>
      <trkpt lat="48.79419" lon="2.2207">
        <ele>195</ele>
        <time>2016-02-21T15:02:30.000Z</time>
      </trkpt>
      <trkpt lat="48.79416" lon="2.22064">
        <ele>195</ele>
        <time>2016-02-21T15:02:32.000Z</time>
      </trkpt>
      <trkpt lat="48.79414" lon="2.22057">
        <ele>197</ele>
        <time>2016-02-21T15:02:38.000Z</time>
      </trkpt>
      <trkpt lat="48.79414" lon="2.22057">
        <ele>197</ele>
        <time>2016-02-21T15:02:40.000Z</time>
      </trkpt>
      <trkpt lat="48.79414" lon="2.22057">
        <ele>197</ele>
        <time>2016-02-21T15:02:42.000Z</time>
      </trkpt>
      <trkpt lat="48.7941" lon="2.22047">
        <ele>199</ele>
        <time>2016-02-21T15:02:45.000Z</time>
      </trkpt>
      <trkpt lat="48.79407" lon="2.22039">
        <ele>199</ele>
        <time>2016-02-21T15:02:47.000Z</time>
      </trkpt>
      <trkpt lat="48.79403" lon="2.22032">
        <ele>201</ele>
        <time>2016-02-21T15:02:51.000Z</time>
      </trkpt>
      <trkpt lat="48.794" lon="2.22026">
        <ele>201</ele>
        <time>2016-02-21T15:02:53.000Z</time>
      </trkpt>
      <trkpt lat="48.79397" lon="2.2202">
        <ele>203</ele>
        <time>2016-02-21T15:02:57.000Z</time>
      </trkpt>
      <trkpt lat="48.79394" lon="2.22012">
        <ele>204</ele>
        <time>2016-02-21T15:03:01.000Z</time>
      </trkpt>
      <trkpt lat="48.79394" lon="2.22012">
        <ele>204</ele>
        <time>2016-02-21T15:03:03.000Z</time>
      </trkpt>
      <trkpt lat="48.79391" lon="2.22006">
        <ele>206</ele>
        <time>2016-02-21T15:03:05.000Z</time>
      </trkpt>
      <trkpt lat="48.79391" lon="2.22006">
        <ele>206</ele>
        <time>2016-02-21T15:03:07.000Z</time>
      </trkpt>
      <trkpt lat="48.79391" lon="2.22006">
        <ele>206</ele>
        <time>2016-02-21T15:03:09.000Z</time>
      </trkpt>
      <trkpt lat="48.79389" lon="2.21999">
        <ele>208</ele>
        <time>2016-02-21T15:03:11.000Z</time>
      </trkpt>
      <trkpt lat="48.79389" lon="2.21999">
        <ele>208</ele>
        <time>2016-02-21T15:03:13.000Z</time>
      </trkpt>
      <trkpt lat="48.79389" lon="2.21999">
        <ele>208</ele>
        <time>2016-02-21T15:03:15.000Z</time>
      </trkpt>
      <trkpt lat="48.79387" lon="2.21991">
        <ele>209</ele>
        <time>2016-02-21T15:03:17.000Z</time>
      </trkpt>
      <trkpt lat="48.79386" lon="2.21987">
        <ele>210</ele>
        <time>2016-02-21T15:03:19.000Z</time>
      </trkpt>
      <trkpt lat="48.79386" lon="2.21987">
        <ele>210</ele>
        <time>2016-02-21T15:03:21.000Z</time>
      </trkpt>
      <trkpt lat="48.79385" lon="2.21983">
        <ele>210</ele>
        <time>2016-02-21T15:03:23.000Z</time>
      </trkpt>
      <trkpt lat="48.79385" lon="2.21983">
        <ele>210</ele>
        <time>2016-02-21T15:03:25.000Z</time>
      </trkpt>
      <trkpt lat="48.79384" lon="2.21978">
        <ele>211</ele>
        <time>2016-02-21T15:03:27.000Z</time>
      </trkpt>
      <trkpt lat="48.79384" lon="2.21978">
        <ele>211</ele>
        <time>2016-02-21T15:03:31.000Z</time>
      </trkpt>
      <trkpt lat="48.79384" lon="2.21978">
        <ele>211</ele>
        <time>2016-02-21T15:03:33.000Z</time>
      </trkpt>
      <trkpt lat="48.79383" lon="2.21961">
        <ele>214</ele>
        <time>2016-02-21T15:03:45.000Z</time>
      </trkpt>
      <trkpt lat="48.79382" lon="2.21951">
        <ele>214</ele>
        <time>2016-02-21T15:03:47.000Z</time>
      </trkpt>
      <trkpt lat="48.79382" lon="2.21951">
        <ele>214</ele>
        <time>2016-02-21T15:03:49.000Z</time>
      </trkpt>
      <trkpt lat="48.79381" lon="2.21941">
        <ele>214</ele>
        <time>2016-02-21T15:03:53.000Z</time>
      </trkpt>
      <trkpt lat="48.79381" lon="2.21941">
        <ele>214</ele>
        <time>2016-02-21T15:03:55.000Z</time>
      </trkpt>
      <trkpt lat="48.79381" lon="2.21941">
        <ele>214</ele>
        <time>2016-02-21T15:03:57.000Z</time>
      </trkpt>
      <trkpt lat="48.79381" lon="2.21941">
        <ele>214</ele>
        <time>2016-02-21T15:03:59.000Z</time>
      </trkpt>
      <trkpt lat="48.79379" lon="2.2193">
        <ele>214</ele>
        <time>2016-02-21T15:04:01.000Z</time>
      </trkpt>
      <trkpt lat="48.79377" lon="2.21923">
        <ele>214</ele>
        <time>2016-02-21T15:04:03.000Z</time>
      </trkpt>
      <trkpt lat="48.79377" lon="2.21923">
        <ele>214</ele>
        <time>2016-02-21T15:04:05.000Z</time>
      </trkpt>
      <trkpt lat="48.79377" lon="2.21923">
        <ele>214</ele>
        <time>2016-02-21T15:04:07.000Z</time>
      </trkpt>
      <trkpt lat="48.79377" lon="2.21923">
        <ele>214</ele>
        <time>2016-02-21T15:04:09.000Z</time>
      </trkpt>
      <trkpt lat="48.79377" lon="2.21923">
        <ele>214</ele>
        <time>2016-02-21T15:04:11.000Z</time>
      </trkpt>
      <trkpt lat="48.79377" lon="2.21913">
        <ele>213</ele>
        <time>2016-02-21T15:04:51.000Z</time>
      </trkpt>
      <trkpt lat="48.79377" lon="2.21907">
        <ele>213</ele>
        <time>2016-02-21T15:04:53.000Z</time>
      </trkpt>
      <trkpt lat="48.79377" lon="2.21907">
        <ele>213</ele>
        <time>2016-02-21T15:04:55.000Z</time>
      </trkpt>
      <trkpt lat="48.79376" lon="2.21901">
        <ele>213</ele>
        <time>2016-02-21T15:04:57.000Z</time>
      </trkpt>
      <trkpt lat="48.79376" lon="2.21901">
        <ele>213</ele>
        <time>2016-02-21T15:04:59.000Z</time>
      </trkpt>
      <trkpt lat="48.79375" lon="2.21895">
        <ele>212</ele>
        <time>2016-02-21T15:05:03.000Z</time>
      </trkpt>
      <trkpt lat="48.79375" lon="2.21895">
        <ele>212</ele>
        <time>2016-02-21T15:05:05.000Z</time>
      </trkpt>
      <trkpt lat="48.79373" lon="2.21888">
        <ele>212</ele>
        <time>2016-02-21T15:05:07.000Z</time>
      </trkpt>
      <trkpt lat="48.79372" lon="2.21883">
        <ele>212</ele>
        <time>2016-02-21T15:05:09.000Z</time>
      </trkpt>
      <trkpt lat="48.79372" lon="2.21883">
        <ele>212</ele>
        <time>2016-02-21T15:05:11.000Z</time>
      </trkpt>
      <trkpt lat="48.79372" lon="2.21883">
        <ele>212</ele>
        <time>2016-02-21T15:05:13.000Z</time>
      </trkpt>
      <trkpt lat="48.7937" lon="2.21876">
        <ele>211</ele>
        <time>2016-02-21T15:05:15.000Z</time>
      </trkpt>
      <trkpt lat="48.7937" lon="2.21876">
        <ele>211</ele>
        <time>2016-02-21T15:05:17.000Z</time>
      </trkpt>
      <trkpt lat="48.7937" lon="2.21876">
        <ele>211</ele>
        <time>2016-02-21T15:05:19.000Z</time>
      </trkpt>
      <trkpt lat="48.7937" lon="2.21876">
        <ele>211</ele>
        <time>2016-02-21T15:05:21.000Z</time>
      </trkpt>
      <trkpt lat="48.79376" lon="2.21841">
        <ele>210</ele>
        <time>2016-02-21T15:05:57.000Z</time>
      </trkpt>
      <trkpt lat="48.79379" lon="2.21822">
        <ele>210</ele>
        <time>2016-02-21T15:05:59.000Z</time>
      </trkpt>
      <trkpt lat="48.79379" lon="2.21822">
        <ele>210</ele>
        <time>2016-02-21T15:06:01.000Z</time>
      </trkpt>
      <trkpt lat="48.79379" lon="2.21822">
        <ele>210</ele>
        <time>2016-02-21T15:06:03.000Z</time>
      </trkpt>
      <trkpt lat="48.79379" lon="2.21822">
        <ele>210</ele>
        <time>2016-02-21T15:06:05.000Z</time>
      </trkpt>
      <trkpt lat="48.79379" lon="2.21822">
        <ele>210</ele>
        <time>2016-02-21T15:06:17.000Z</time>
      </trkpt>
      <trkpt lat="48.79378" lon="2.21772">
        <ele>213</ele>
        <time>2016-02-21T15:06:58.000Z</time>
      </trkpt>
      <trkpt lat="48.79378" lon="2.21745">
        <ele>213</ele>
        <time>2016-02-21T15:07:00.000Z</time>
      </trkpt>
      <trkpt lat="48.79379" lon="2.21728">
        <ele>213</ele>
        <time>2016-02-21T15:07:02.000Z</time>
      </trkpt>
      <trkpt lat="48.79379" lon="2.21719">
        <ele>212</ele>
        <time>2016-02-21T15:07:04.000Z</time>
      </trkpt>
      <trkpt lat="48.79379" lon="2.21719">
        <ele>212</ele>
        <time>2016-02-21T15:07:06.000Z</time>
      </trkpt>
      <trkpt lat="48.79379" lon="2.21719">
        <ele>212</ele>
        <time>2016-02-21T15:07:12.000Z</time>
      </trkpt>
      <trkpt lat="48.79379" lon="2.21719">
        <ele>212</ele>
        <time>2016-02-21T15:07:37.000Z</time>
      </trkpt>
      <trkpt lat="48.79379" lon="2.21671">
        <ele>220</ele>
        <time>2016-02-21T15:19:04.000Z</time>
      </trkpt>
      <trkpt lat="48.79379" lon="2.21647">
        <ele>220</ele>
        <time>2016-02-21T15:19:06.000Z</time>
      </trkpt>
      <trkpt lat="48.79379" lon="2.21633">
        <ele>220</ele>
        <time>2016-02-21T15:19:08.000Z</time>
      </trkpt>
      <trkpt lat="48.7938" lon="2.21625">
        <ele>221</ele>
        <time>2016-02-21T15:19:10.000Z</time>
      </trkpt>
      <trkpt lat="48.79381" lon="2.21618">
        <ele>221</ele>
        <time>2016-02-21T15:19:12.000Z</time>
      </trkpt>
      <trkpt lat="48.79383" lon="2.21608">
        <ele>221</ele>
        <time>2016-02-21T15:19:14.000Z</time>
      </trkpt>
      <trkpt lat="48.79383" lon="2.21608">
        <ele>221</ele>
        <time>2016-02-21T15:19:15.000Z</time>
      </trkpt>
      <trkpt lat="48.79383" lon="2.21608">
        <ele>221</ele>
        <time>2016-02-21T15:19:18.000Z</time>
      </trkpt>
      <trkpt lat="48.79383" lon="2.21608">
        <ele>221</ele>
        <time>2016-02-21T15:19:20.000Z</time>
      </trkpt>
      <trkpt lat="48.79387" lon="2.21599">
        <ele>223</ele>
        <time>2016-02-21T15:19:22.000Z</time>
      </trkpt>
      <trkpt lat="48.79386" lon="2.2159">
        <ele>224</ele>
        <time>2016-02-21T15:19:28.000Z</time>
      </trkpt>
      <trkpt lat="48.79386" lon="2.2159">
        <ele>224</ele>
        <time>2016-02-21T15:19:30.000Z</time>
      </trkpt>
      <trkpt lat="48.79386" lon="2.2159">
        <ele>224</ele>
        <time>2016-02-21T15:19:32.000Z</time>
      </trkpt>
      <trkpt lat="48.79385" lon="2.21581">
        <ele>225</ele>
        <time>2016-02-21T15:19:34.000Z</time>
      </trkpt>
      <trkpt lat="48.79385" lon="2.21581">
        <ele>225</ele>
        <time>2016-02-21T15:19:40.000Z</time>
      </trkpt>
      <trkpt lat="48.79385" lon="2.21581">
        <ele>225</ele>
        <time>2016-02-21T15:19:42.000Z</time>
      </trkpt>
      <trkpt lat="48.79385" lon="2.21581">
        <ele>225</ele>
        <time>2016-02-21T15:19:48.000Z</time>
      </trkpt>
      <trkpt lat="48.79382" lon="2.21531">
        <ele>225</ele>
        <time>2016-02-21T15:20:02.000Z</time>
      </trkpt>
      <trkpt lat="48.79379" lon="2.21513">
        <ele>225</ele>
        <time>2016-02-21T15:20:10.000Z</time>
      </trkpt>
      <trkpt lat="48.79379" lon="2.21497">
        <ele>226</ele>
        <time>2016-02-21T15:20:19.000Z</time>
      </trkpt>
      <trkpt lat="48.79379" lon="2.21497">
        <ele>226</ele>
        <time>2016-02-21T15:20:21.000Z</time>
      </trkpt>
      <trkpt lat="48.79381" lon="2.21488">
        <ele>226</ele>
        <time>2016-02-21T15:20:22.000Z</time>
      </trkpt>
      <trkpt lat="48.79381" lon="2.21488">
        <ele>226</ele>
        <time>2016-02-21T15:20:27.000Z</time>
      </trkpt>
      <trkpt lat="48.79381" lon="2.21488">
        <ele>226</ele>
        <time>2016-02-21T15:20:29.000Z</time>
      </trkpt>
      <trkpt lat="48.79381" lon="2.21488">
        <ele>226</ele>
        <time>2016-02-21T15:20:31.000Z</time>
      </trkpt>
      <trkpt lat="48.79381" lon="2.21488">
        <ele>226</ele>
        <time>2016-02-21T15:20:33.000Z</time>
      </trkpt>
      <trkpt lat="48.79381" lon="2.21439">
        <ele>227</ele>
        <time>2016-02-21T15:21:39.000Z</time>
      </trkpt>
      <trkpt lat="48.79381" lon="2.21439">
        <ele>227</ele>
        <time>2016-02-21T15:21:41.000Z</time>
      </trkpt>
      <trkpt lat="48.79381" lon="2.21439">
        <ele>227</ele>
        <time>2016-02-21T15:21:43.000Z</time>
      </trkpt>
      <trkpt lat="48.79381" lon="2.21403">
        <ele>229</ele>
        <time>2016-02-21T15:21:49.000Z</time>
      </trkpt>
      <trkpt lat="48.7938" lon="2.21383">
        <ele>229</ele>
        <time>2016-02-21T15:21:51.000Z</time>
      </trkpt>
      <trkpt lat="48.7938" lon="2.21372">
        <ele>229</ele>
        <time>2016-02-21T15:21:53.000Z</time>
      </trkpt>
      <trkpt lat="48.79379" lon="2.21364">
        <ele>230</ele>
        <time>2016-02-21T15:21:54.000Z</time>
      </trkpt>
      <trkpt lat="48.79379" lon="2.21364">
        <ele>230</ele>
        <time>2016-02-21T15:21:58.000Z</time>
      </trkpt>
      <trkpt lat="48.79379" lon="2.21364">
        <ele>230</ele>
        <time>2016-02-21T15:22:00.000Z</time>
      </trkpt>
      <trkpt lat="48.79379" lon="2.21364">
        <ele>230</ele>
        <time>2016-02-21T15:22:15.000Z</time>
      </trkpt>
      <trkpt lat="48.79379" lon="2.21364">
        <ele>230</ele>
        <time>2016-02-21T15:22:18.000Z</time>
      </trkpt>
      <trkpt lat="48.79379" lon="2.21332">
        <ele>232</ele>
        <time>2016-02-21T15:22:29.000Z</time>
      </trkpt>
      <trkpt lat="48.79379" lon="2.21314">
        <ele>231</ele>
        <time>2016-02-21T15:22:32.000Z</time>
      </trkpt>
      <trkpt lat="48.79379" lon="2.21302">
        <ele>231</ele>
        <time>2016-02-21T15:22:34.000Z</time>
      </trkpt>
      <trkpt lat="48.79378" lon="2.21294">
        <ele>231</ele>
        <time>2016-02-21T15:22:36.000Z</time>
      </trkpt>
      <trkpt lat="48.79378" lon="2.21286">
        <ele>230</ele>
        <time>2016-02-21T15:22:40.000Z</time>
      </trkpt>
      <trkpt lat="48.79378" lon="2.21279">
        <ele>230</ele>
        <time>2016-02-21T15:22:44.000Z</time>
      </trkpt>
      <trkpt lat="48.79378" lon="2.21279">
        <ele>230</ele>
        <time>2016-02-21T15:22:48.000Z</time>
      </trkpt>
      <trkpt lat="48.79378" lon="2.21279">
        <ele>230</ele>
        <time>2016-02-21T15:22:50.000Z</time>
      </trkpt>
      <trkpt lat="48.7938" lon="2.21274">
        <ele>229</ele>
        <time>2016-02-21T15:22:52.000Z</time>
      </trkpt>
      <trkpt lat="48.7938" lon="2.21274">
        <ele>229</ele>
        <time>2016-02-21T15:22:54.000Z</time>
      </trkpt>
      <trkpt lat="48.7938" lon="2.21274">
        <ele>229</ele>
        <time>2016-02-21T15:22:56.000Z</time>
      </trkpt>
      <trkpt lat="48.7938" lon="2.21274">
        <ele>229</ele>
        <time>2016-02-21T15:22:58.000Z</time>
      </trkpt>
      <trkpt lat="48.7938" lon="2.21274">
        <ele>229</ele>
        <time>2016-02-21T15:23:00.000Z</time>
      </trkpt>
      <trkpt lat="48.79379" lon="2.21232">
        <ele>225</ele>
        <time>2016-02-21T15:23:48.000Z</time>
      </trkpt>
      <trkpt lat="48.79379" lon="2.21211">
        <ele>225</ele>
        <time>2016-02-21T15:23:50.000Z</time>
      </trkpt>
      <trkpt lat="48.79379" lon="2.21211">
        <ele>225</ele>
        <time>2016-02-21T15:23:52.000Z</time>
      </trkpt>
      <trkpt lat="48.79379" lon="2.21211">
        <ele>225</ele>
        <time>2016-02-21T15:23:54.000Z</time>
      </trkpt>
      <trkpt lat="48.79379" lon="2.21211">
        <ele>225</ele>
        <time>2016-02-21T15:23:56.000Z</time>
      </trkpt>
      <trkpt lat="48.79379" lon="2.21211">
        <ele>225</ele>
        <time>2016-02-21T15:23:58.000Z</time>
      </trkpt>
      <trkpt lat="48.79378" lon="2.21183">
        <ele>225</ele>
        <time>2016-02-21T15:24:08.000Z</time>
      </trkpt>
      <trkpt lat="48.79378" lon="2.21168">
        <ele>225</ele>
        <time>2016-02-21T15:24:10.000Z</time>
      </trkpt>
      <trkpt lat="48.79378" lon="2.21159">
        <ele>225</ele>
        <time>2016-02-21T15:24:12.000Z</time>
      </trkpt>
      <trkpt lat="48.79379" lon="2.21153">
        <ele>225</ele>
        <time>2016-02-21T15:24:14.000Z</time>
      </trkpt>
      <trkpt lat="48.79379" lon="2.21147">
        <ele>225</ele>
        <time>2016-02-21T15:24:16.000Z</time>
      </trkpt>
      <trkpt lat="48.79379" lon="2.21147">
        <ele>225</ele>
        <time>2016-02-21T15:24:17.000Z</time>
      </trkpt>
      <trkpt lat="48.79379" lon="2.21135">
        <ele>226</ele>
        <time>2016-02-21T15:24:20.000Z</time>
      </trkpt>
      <trkpt lat="48.79379" lon="2.21135">
        <ele>226</ele>
        <time>2016-02-21T15:24:22.000Z</time>
      </trkpt>
      <trkpt lat="48.79379" lon="2.21135">
        <ele>226</ele>
        <time>2016-02-21T15:24:24.000Z</time>
      </trkpt>
      <trkpt lat="48.79379" lon="2.21135">
        <ele>226</ele>
        <time>2016-02-21T15:24:26.000Z</time>
      </trkpt>
      <trkpt lat="48.79379" lon="2.21135">
        <ele>226</ele>
        <time>2016-02-21T15:24:28.000Z</time>
      </trkpt>
      <trkpt lat="48.79379" lon="2.21135">
        <ele>226</ele>
        <time>2016-02-21T15:24:30.000Z</time>
      </trkpt>
      <trkpt lat="48.7938" lon="2.21103">
        <ele>227</ele>
        <time>2016-02-21T15:24:40.000Z</time>
      </trkpt>
      <trkpt lat="48.7938" lon="2.21103">
        <ele>227</ele>
        <time>2016-02-21T15:24:42.000Z</time>
      </trkpt>
      <trkpt lat="48.7938" lon="2.21103">
        <ele>227</ele>
        <time>2016-02-21T15:24:44.000Z</time>
      </trkpt>
      <trkpt lat="48.7938" lon="2.21103">
        <ele>227</ele>
        <time>2016-02-21T15:24:48.000Z</time>
      </trkpt>
      <trkpt lat="48.7938" lon="2.21103">
        <ele>227</ele>
        <time>2016-02-21T15:24:50.000Z</time>
      </trkpt>
      <trkpt lat="48.7938" lon="2.21103">
        <ele>227</ele>
        <time>2016-02-21T15:24:52.000Z</time>
      </trkpt>
      <trkpt lat="48.7938" lon="2.21103">
        <ele>227</ele>
        <time>2016-02-21T15:24:54.000Z</time>
      </trkpt>
      <trkpt lat="48.7938" lon="2.21103">
        <ele>227</ele>
        <time>2016-02-21T15:24:58.000Z</time>
      </trkpt>
      <trkpt lat="48.79379" lon="2.21052">
        <ele>226</ele>
        <time>2016-02-21T15:25:14.000Z</time>
      </trkpt>
      <trkpt lat="48.79379" lon="2.21052">
        <ele>226</ele>
        <time>2016-02-21T15:25:16.000Z</time>
      </trkpt>
      <trkpt lat="48.79379" lon="2.21052">
        <ele>226</ele>
        <time>2016-02-21T15:25:18.000Z</time>
      </trkpt>
      <trkpt lat="48.79379" lon="2.21052">
        <ele>226</ele>
        <time>2016-02-21T15:25:19.000Z</time>
      </trkpt>
      <trkpt lat="48.79382" lon="2.21041">
        <ele>224</ele>
        <time>2016-02-21T15:25:22.000Z</time>
      </trkpt>
      <trkpt lat="48.79382" lon="2.21041">
        <ele>224</ele>
        <time>2016-02-21T15:25:24.000Z</time>
      </trkpt>
      <trkpt lat="48.79383" lon="2.21037">
        <ele>222</ele>
        <time>2016-02-21T15:25:28.000Z</time>
      </trkpt>
      <trkpt lat="48.79384" lon="2.21033">
        <ele>221</ele>
        <time>2016-02-21T15:25:29.000Z</time>
      </trkpt>
      <trkpt lat="48.79385" lon="2.21026">
        <ele>220</ele>
        <time>2016-02-21T15:25:34.000Z</time>
      </trkpt>
      <trkpt lat="48.79386" lon="2.21022">
        <ele>220</ele>
        <time>2016-02-21T15:25:36.000Z</time>
      </trkpt>
      <trkpt lat="48.79386" lon="2.21022">
        <ele>220</ele>
        <time>2016-02-21T15:25:38.000Z</time>
      </trkpt>
      <trkpt lat="48.79388" lon="2.21016">
        <ele>219</ele>
        <time>2016-02-21T15:25:40.000Z</time>
      </trkpt>
      <trkpt lat="48.79388" lon="2.21009">
        <ele>219</ele>
        <time>2016-02-21T15:25:41.000Z</time>
      </trkpt>
      <trkpt lat="48.79389" lon="2.21005">
        <ele>219</ele>
        <time>2016-02-21T15:25:44.000Z</time>
      </trkpt>
      <trkpt lat="48.79389" lon="2.20999">
        <ele>218</ele>
        <time>2016-02-21T15:25:47.000Z</time>
      </trkpt>
      <trkpt lat="48.79389" lon="2.20994">
        <ele>218</ele>
        <time>2016-02-21T15:25:50.000Z</time>
      </trkpt>
      <trkpt lat="48.7939" lon="2.2099">
        <ele>219</ele>
        <time>2016-02-21T15:25:55.000Z</time>
      </trkpt>
      <trkpt lat="48.7939" lon="2.20984">
        <ele>219</ele>
        <time>2016-02-21T15:25:59.000Z</time>
      </trkpt>
      <trkpt lat="48.79391" lon="2.20979">
        <ele>219</ele>
        <time>2016-02-21T15:26:03.000Z</time>
      </trkpt>
      <trkpt lat="48.79391" lon="2.20979">
        <ele>219</ele>
        <time>2016-02-21T15:26:05.000Z</time>
      </trkpt>
      <trkpt lat="48.79391" lon="2.20979">
        <ele>219</ele>
        <time>2016-02-21T15:26:07.000Z</time>
      </trkpt>
      <trkpt lat="48.79393" lon="2.20972">
        <ele>224</ele>
        <time>2016-02-21T15:26:13.000Z</time>
      </trkpt>
      <trkpt lat="48.79393" lon="2.20967">
        <ele>225</ele>
        <time>2016-02-21T15:26:15.000Z</time>
      </trkpt>
      <trkpt lat="48.79395" lon="2.20962">
        <ele>225</ele>
        <time>2016-02-21T15:26:17.000Z</time>
      </trkpt>
      <trkpt lat="48.79395" lon="2.20962">
        <ele>225</ele>
        <time>2016-02-21T15:26:19.000Z</time>
      </trkpt>
      <trkpt lat="48.79396" lon="2.20958">
        <ele>224</ele>
        <time>2016-02-21T15:26:21.000Z</time>
      </trkpt>
      <trkpt lat="48.79396" lon="2.20958">
        <ele>224</ele>
        <time>2016-02-21T15:26:24.000Z</time>
      </trkpt>
      <trkpt lat="48.79396" lon="2.20958">
        <ele>224</ele>
        <time>2016-02-21T15:26:26.000Z</time>
      </trkpt>
      <trkpt lat="48.79396" lon="2.20958">
        <ele>224</ele>
        <time>2016-02-21T15:26:28.000Z</time>
      </trkpt>
      <trkpt lat="48.79403" lon="2.20941">
        <ele>220</ele>
        <time>2016-02-21T15:26:42.000Z</time>
      </trkpt>
      <trkpt lat="48.79407" lon="2.20931">
        <ele>220</ele>
        <time>2016-02-21T15:26:44.000Z</time>
      </trkpt>
      <trkpt lat="48.7941" lon="2.20926">
        <ele>219</ele>
        <time>2016-02-21T15:26:46.000Z</time>
      </trkpt>
      <trkpt lat="48.7941" lon="2.20926">
        <ele>219</ele>
        <time>2016-02-21T15:26:48.000Z</time>
      </trkpt>
      <trkpt lat="48.79412" lon="2.20919">
        <ele>218</ele>
        <time>2016-02-21T15:26:50.000Z</time>
      </trkpt>
      <trkpt lat="48.79412" lon="2.20919">
        <ele>218</ele>
        <time>2016-02-21T15:26:52.000Z</time>
      </trkpt>
      <trkpt lat="48.79414" lon="2.20911">
        <ele>217</ele>
        <time>2016-02-21T15:26:53.000Z</time>
      </trkpt>
      <trkpt lat="48.79414" lon="2.20906">
        <ele>216</ele>
        <time>2016-02-21T15:26:56.000Z</time>
      </trkpt>
      <trkpt lat="48.79414" lon="2.20906">
        <ele>216</ele>
        <time>2016-02-21T15:26:57.000Z</time>
      </trkpt>
      <trkpt lat="48.79414" lon="2.20906">
        <ele>216</ele>
        <time>2016-02-21T15:27:00.000Z</time>
      </trkpt>
      <trkpt lat="48.79419" lon="2.20893">
        <ele>213</ele>
        <time>2016-02-21T15:27:14.000Z</time>
      </trkpt>
      <trkpt lat="48.79421" lon="2.20884">
        <ele>213</ele>
        <time>2016-02-21T15:27:16.000Z</time>
      </trkpt>
      <trkpt lat="48.79424" lon="2.20877">
        <ele>212</ele>
        <time>2016-02-21T15:27:19.000Z</time>
      </trkpt>
      <trkpt lat="48.79426" lon="2.20874">
        <ele>212</ele>
        <time>2016-02-21T15:27:21.000Z</time>
      </trkpt>
      <trkpt lat="48.79426" lon="2.20874">
        <ele>212</ele>
        <time>2016-02-21T15:27:23.000Z</time>
      </trkpt>
      <trkpt lat="48.79426" lon="2.20874">
        <ele>212</ele>
        <time>2016-02-21T15:27:25.000Z</time>
      </trkpt>
      <trkpt lat="48.79426" lon="2.20874">
        <ele>212</ele>
        <time>2016-02-21T15:27:27.000Z</time>
      </trkpt>
      <trkpt lat="48.79426" lon="2.20874">
        <ele>212</ele>
        <time>2016-02-21T15:27:29.000Z</time>
      </trkpt>
      <trkpt lat="48.79426" lon="2.20874">
        <ele>212</ele>
        <time>2016-02-21T15:27:43.000Z</time>
      </trkpt>
      <trkpt lat="48.79426" lon="2.20874">
        <ele>212</ele>
        <time>2016-02-21T15:28:07.000Z</time>
      </trkpt>
      <trkpt lat="48.79447" lon="2.20865">
        <ele>206</ele>
        <time>2016-02-21T15:28:43.000Z</time>
      </trkpt>
      <trkpt lat="48.79457" lon="2.20861">
        <ele>206</ele>
        <time>2016-02-21T15:28:44.000Z</time>
      </trkpt>
      <trkpt lat="48.79464" lon="2.2086">
        <ele>206</ele>
        <time>2016-02-21T15:28:47.000Z</time>
      </trkpt>
      <trkpt lat="48.79464" lon="2.2086">
        <ele>206</ele>
        <time>2016-02-21T15:28:48.000Z</time>
      </trkpt>
      <trkpt lat="48.79464" lon="2.2086">
        <ele>206</ele>
        <time>2016-02-21T15:28:50.000Z</time>
      </trkpt>
      <trkpt lat="48.79464" lon="2.2086">
        <ele>206</ele>
        <time>2016-02-21T15:28:53.000Z</time>
      </trkpt>
      <trkpt lat="48.79464" lon="2.2086">
        <ele>206</ele>
        <time>2016-02-21T15:28:55.000Z</time>
      </trkpt>
      <trkpt lat="48.79464" lon="2.2086">
        <ele>206</ele>
        <time>2016-02-21T15:28:57.000Z</time>
      </trkpt>
      <trkpt lat="48.79464" lon="2.2086">
        <ele>206</ele>
        <time>2016-02-21T15:28:59.000Z</time>
      </trkpt>
      <trkpt lat="48.79464" lon="2.2086">
        <ele>206</ele>
        <time>2016-02-21T15:29:01.000Z</time>
      </trkpt>
      <trkpt lat="48.79464" lon="2.2086">
        <ele>206</ele>
        <time>2016-02-21T15:29:03.000Z</time>
      </trkpt>
      <trkpt lat="48.79474" lon="2.20795">
        <ele>209</ele>
        <time>2016-02-21T15:35:57.000Z</time>
      </trkpt>
      <trkpt lat="48.7948" lon="2.20762">
        <ele>209</ele>
        <time>2016-02-21T15:35:58.000Z</time>
      </trkpt>
      <trkpt lat="48.79483" lon="2.20745">
        <ele>210</ele>
        <time>2016-02-21T15:36:00.000Z</time>
      </trkpt>
      <trkpt lat="48.79487" lon="2.20733">
        <ele>210</ele>
        <time>2016-02-21T15:36:02.000Z</time>
      </trkpt>
      <trkpt lat="48.79487" lon="2.20733">
        <ele>210</ele>
        <time>2016-02-21T15:36:05.000Z</time>
      </trkpt>
      <trkpt lat="48.79487" lon="2.20733">
        <ele>210</ele>
        <time>2016-02-21T15:36:07.000Z</time>
      </trkpt>
      <trkpt lat="48.79492" lon="2.20678">
        <ele>211</ele>
        <time>2016-02-21T15:36:55.000Z</time>
      </trkpt>
      <trkpt lat="48.79495" lon="2.20647">
        <ele>211</ele>
        <time>2016-02-21T15:36:57.000Z</time>
      </trkpt>
      <trkpt lat="48.79497" lon="2.20631">
        <ele>211</ele>
        <time>2016-02-21T15:36:59.000Z</time>
      </trkpt>
      <trkpt lat="48.79497" lon="2.20621">
        <ele>211</ele>
        <time>2016-02-21T15:37:00.000Z</time>
      </trkpt>
      <trkpt lat="48.79497" lon="2.20621">
        <ele>211</ele>
        <time>2016-02-21T15:37:02.000Z</time>
      </trkpt>
      <trkpt lat="48.79497" lon="2.20621">
        <ele>211</ele>
        <time>2016-02-21T15:37:15.000Z</time>
      </trkpt>
      <trkpt lat="48.79497" lon="2.20621">
        <ele>211</ele>
        <time>2016-02-21T15:37:16.000Z</time>
      </trkpt>
      <trkpt lat="48.79502" lon="2.20595">
        <ele>210</ele>
        <time>2016-02-21T15:37:28.000Z</time>
      </trkpt>
      <trkpt lat="48.79504" lon="2.20579">
        <ele>209</ele>
        <time>2016-02-21T15:37:30.000Z</time>
      </trkpt>
      <trkpt lat="48.79506" lon="2.20569">
        <ele>209</ele>
        <time>2016-02-21T15:37:33.000Z</time>
      </trkpt>
      <trkpt lat="48.79506" lon="2.20569">
        <ele>209</ele>
        <time>2016-02-21T15:37:35.000Z</time>
      </trkpt>
      <trkpt lat="48.79509" lon="2.20561">
        <ele>209</ele>
        <time>2016-02-21T15:37:36.000Z</time>
      </trkpt>
      <trkpt lat="48.7951" lon="2.20557">
        <ele>209</ele>
        <time>2016-02-21T15:37:39.000Z</time>
      </trkpt>
      <trkpt lat="48.79512" lon="2.20553">
        <ele>209</ele>
        <time>2016-02-21T15:37:41.000Z</time>
      </trkpt>
      <trkpt lat="48.79512" lon="2.20553">
        <ele>209</ele>
        <time>2016-02-21T15:37:42.000Z</time>
      </trkpt>
      <trkpt lat="48.79512" lon="2.20553">
        <ele>209</ele>
        <time>2016-02-21T15:37:45.000Z</time>
      </trkpt>
      <trkpt lat="48.79512" lon="2.20553">
        <ele>209</ele>
        <time>2016-02-21T15:37:46.000Z</time>
      </trkpt>
      <trkpt lat="48.79512" lon="2.20553">
        <ele>209</ele>
        <time>2016-02-21T15:37:49.000Z</time>
      </trkpt>
      <trkpt lat="48.79512" lon="2.20553">
        <ele>209</ele>
        <time>2016-02-21T15:37:58.000Z</time>
      </trkpt>
      <trkpt lat="48.7953" lon="2.20526">
        <ele>208</ele>
        <time>2016-02-21T15:38:19.000Z</time>
      </trkpt>
      <trkpt lat="48.7954" lon="2.20511">
        <ele>208</ele>
        <time>2016-02-21T15:38:21.000Z</time>
      </trkpt>
      <trkpt lat="48.79546" lon="2.20503">
        <ele>208</ele>
        <time>2016-02-21T15:38:22.000Z</time>
      </trkpt>
      <trkpt lat="48.79549" lon="2.20498">
        <ele>208</ele>
        <time>2016-02-21T15:38:25.000Z</time>
      </trkpt>
      <trkpt lat="48.79549" lon="2.20498">
        <ele>208</ele>
        <time>2016-02-21T15:38:27.000Z</time>
      </trkpt>
      <trkpt lat="48.79549" lon="2.20498">
        <ele>208</ele>
        <time>2016-02-21T15:38:28.000Z</time>
      </trkpt>
      <trkpt lat="48.79552" lon="2.20492">
        <ele>208</ele>
        <time>2016-02-21T15:38:31.000Z</time>
      </trkpt>
      <trkpt lat="48.79555" lon="2.20487">
        <ele>208</ele>
        <time>2016-02-21T15:38:33.000Z</time>
      </trkpt>
      <trkpt lat="48.7956" lon="2.20483">
        <ele>208</ele>
        <time>2016-02-21T15:38:37.000Z</time>
      </trkpt>
      <trkpt lat="48.79564" lon="2.2048">
        <ele>208</ele>
        <time>2016-02-21T15:38:39.000Z</time>
      </trkpt>
      <trkpt lat="48.79567" lon="2.20478">
        <ele>208</ele>
        <time>2016-02-21T15:38:41.000Z</time>
      </trkpt>
      <trkpt lat="48.79567" lon="2.20478">
        <ele>208</ele>
        <time>2016-02-21T15:38:43.000Z</time>
      </trkpt>
      <trkpt lat="48.79571" lon="2.20476">
        <ele>208</ele>
        <time>2016-02-21T15:38:45.000Z</time>
      </trkpt>
      <trkpt lat="48.79573" lon="2.20471">
        <ele>208</ele>
        <time>2016-02-21T15:38:47.000Z</time>
      </trkpt>
      <trkpt lat="48.79576" lon="2.20466">
        <ele>208</ele>
        <time>2016-02-21T15:38:48.000Z</time>
      </trkpt>
      <trkpt lat="48.79578" lon="2.20462">
        <ele>208</ele>
        <time>2016-02-21T15:38:52.000Z</time>
      </trkpt>
      <trkpt lat="48.79578" lon="2.20462">
        <ele>208</ele>
        <time>2016-02-21T15:38:55.000Z</time>
      </trkpt>
      <trkpt lat="48.79578" lon="2.20462">
        <ele>208</ele>
        <time>2016-02-21T15:38:57.000Z</time>
      </trkpt>
      <trkpt lat="48.79578" lon="2.20462">
        <ele>208</ele>
        <time>2016-02-21T15:38:58.000Z</time>
      </trkpt>
      <trkpt lat="48.79578" lon="2.20462">
        <ele>208</ele>
        <time>2016-02-21T15:39:00.000Z</time>
      </trkpt>
      <trkpt lat="48.79578" lon="2.20462">
        <ele>208</ele>
        <time>2016-02-21T15:39:02.000Z</time>
      </trkpt>
      <trkpt lat="48.79578" lon="2.20462">
        <ele>208</ele>
        <time>2016-02-21T15:39:04.000Z</time>
      </trkpt>
      <trkpt lat="48.79578" lon="2.20462">
        <ele>208</ele>
        <time>2016-02-21T15:39:06.000Z</time>
      </trkpt>
      <trkpt lat="48.7959" lon="2.20458">
        <ele>208</ele>
        <time>2016-02-21T15:39:20.000Z</time>
      </trkpt>
      <trkpt lat="48.79597" lon="2.20456">
        <ele>208</ele>
        <time>2016-02-21T15:39:22.000Z</time>
      </trkpt>
      <trkpt lat="48.79601" lon="2.20455">
        <ele>207</ele>
        <time>2016-02-21T15:39:24.000Z</time>
      </trkpt>
      <trkpt lat="48.79601" lon="2.20455">
        <ele>207</ele>
        <time>2016-02-21T15:39:26.000Z</time>
      </trkpt>
      <trkpt lat="48.79601" lon="2.20455">
        <ele>207</ele>
        <time>2016-02-21T15:39:28.000Z</time>
      </trkpt>
      <trkpt lat="48.79605" lon="2.20457">
        <ele>207</ele>
        <time>2016-02-21T15:39:30.000Z</time>
      </trkpt>
      <trkpt lat="48.79609" lon="2.20458">
        <ele>206</ele>
        <time>2016-02-21T15:39:32.000Z</time>
      </trkpt>
      <trkpt lat="48.79609" lon="2.20458">
        <ele>206</ele>
        <time>2016-02-21T15:39:34.000Z</time>
      </trkpt>
      <trkpt lat="48.79609" lon="2.20458">
        <ele>206</ele>
        <time>2016-02-21T15:39:37.000Z</time>
      </trkpt>
      <trkpt lat="48.79609" lon="2.20458">
        <ele>206</ele>
        <time>2016-02-21T15:39:45.000Z</time>
      </trkpt>
      <trkpt lat="48.79609" lon="2.20458">
        <ele>206</ele>
        <time>2016-02-21T15:39:47.000Z</time>
      </trkpt>
      <trkpt lat="48.79609" lon="2.20458">
        <ele>206</ele>
        <time>2016-02-21T15:40:07.000Z</time>
      </trkpt>
      <trkpt lat="48.79665" lon="2.20443">
        <ele>201</ele>
        <time>2016-02-21T15:41:43.000Z</time>
      </trkpt>
      <trkpt lat="48.79694" lon="2.20434">
        <ele>202</ele>
        <time>2016-02-21T15:41:45.000Z</time>
      </trkpt>
      <trkpt lat="48.7971" lon="2.20429">
        <ele>202</ele>
        <time>2016-02-21T15:41:46.000Z</time>
      </trkpt>
      <trkpt lat="48.79719" lon="2.20427">
        <ele>202</ele>
        <time>2016-02-21T15:41:48.000Z</time>
      </trkpt>
      <trkpt lat="48.79725" lon="2.20425">
        <ele>203</ele>
        <time>2016-02-21T15:41:50.000Z</time>
      </trkpt>
      <trkpt lat="48.79732" lon="2.2042">
        <ele>204</ele>
        <time>2016-02-21T15:41:52.000Z</time>
      </trkpt>
      <trkpt lat="48.79732" lon="2.2042">
        <ele>204</ele>
        <time>2016-02-21T15:41:56.000Z</time>
      </trkpt>
      <trkpt lat="48.79732" lon="2.2042">
        <ele>204</ele>
        <time>2016-02-21T15:41:59.000Z</time>
      </trkpt>
      <trkpt lat="48.79737" lon="2.2041">
        <ele>206</ele>
        <time>2016-02-21T15:42:00.000Z</time>
      </trkpt>
      <trkpt lat="48.79737" lon="2.2041">
        <ele>206</ele>
        <time>2016-02-21T15:42:02.000Z</time>
      </trkpt>
      <trkpt lat="48.79737" lon="2.2041">
        <ele>206</ele>
        <time>2016-02-21T15:42:05.000Z</time>
      </trkpt>
      <trkpt lat="48.79742" lon="2.20402">
        <ele>208</ele>
        <time>2016-02-21T15:42:07.000Z</time>
      </trkpt>
      <trkpt lat="48.79742" lon="2.20402">
        <ele>208</ele>
        <time>2016-02-21T15:42:08.000Z</time>
      </trkpt>
      <trkpt lat="48.79742" lon="2.20402">
        <ele>208</ele>
        <time>2016-02-21T15:42:10.000Z</time>
      </trkpt>
      <trkpt lat="48.79742" lon="2.20393">
        <ele>209</ele>
        <time>2016-02-21T15:42:12.000Z</time>
      </trkpt>
      <trkpt lat="48.79742" lon="2.20393">
        <ele>209</ele>
        <time>2016-02-21T15:42:14.000Z</time>
      </trkpt>
      <trkpt lat="48.79743" lon="2.20384">
        <ele>209</ele>
        <time>2016-02-21T15:42:18.000Z</time>
      </trkpt>
      <trkpt lat="48.79743" lon="2.20384">
        <ele>209</ele>
        <time>2016-02-21T15:42:21.000Z</time>
      </trkpt>
      <trkpt lat="48.79743" lon="2.20384">
        <ele>209</ele>
        <time>2016-02-21T15:42:23.000Z</time>
      </trkpt>
      <trkpt lat="48.79746" lon="2.20375">
        <ele>210</ele>
        <time>2016-02-21T15:42:29.000Z</time>
      </trkpt>
      <trkpt lat="48.79751" lon="2.20368">
        <ele>210</ele>
        <time>2016-02-21T15:42:33.000Z</time>
      </trkpt>
      <trkpt lat="48.79751" lon="2.20368">
        <ele>210</ele>
        <time>2016-02-21T15:42:35.000Z</time>
      </trkpt>
      <trkpt lat="48.79751" lon="2.20368">
        <ele>210</ele>
        <time>2016-02-21T15:42:36.000Z</time>
      </trkpt>
      <trkpt lat="48.79751" lon="2.20368">
        <ele>210</ele>
        <time>2016-02-21T15:42:38.000Z</time>
      </trkpt>
      <trkpt lat="48.79751" lon="2.20368">
        <ele>210</ele>
        <time>2016-02-21T15:42:40.000Z</time>
      </trkpt>
      <trkpt lat="48.79751" lon="2.20368">
        <ele>210</ele>
        <time>2016-02-21T15:42:42.000Z</time>
      </trkpt>
      <trkpt lat="48.79763" lon="2.20345">
        <ele>211</ele>
        <time>2016-02-21T15:42:50.000Z</time>
      </trkpt>
      <trkpt lat="48.79763" lon="2.20345">
        <ele>211</ele>
        <time>2016-02-21T15:42:52.000Z</time>
      </trkpt>
      <trkpt lat="48.79765" lon="2.20336">
        <ele>211</ele>
        <time>2016-02-21T15:42:55.000Z</time>
      </trkpt>
      <trkpt lat="48.79765" lon="2.20336">
        <ele>211</ele>
        <time>2016-02-21T15:42:57.000Z</time>
      </trkpt>
      <trkpt lat="48.79765" lon="2.20336">
        <ele>211</ele>
        <time>2016-02-21T15:42:58.000Z</time>
      </trkpt>
      <trkpt lat="48.79771" lon="2.20323">
        <ele>211</ele>
        <time>2016-02-21T15:43:02.000Z</time>
      </trkpt>
      <trkpt lat="48.79775" lon="2.20314">
        <ele>210</ele>
        <time>2016-02-21T15:43:08.000Z</time>
      </trkpt>
      <trkpt lat="48.79775" lon="2.20314">
        <ele>210</ele>
        <time>2016-02-21T15:43:12.000Z</time>
      </trkpt>
      <trkpt lat="48.79775" lon="2.20314">
        <ele>210</ele>
        <time>2016-02-21T15:43:15.000Z</time>
      </trkpt>
      <trkpt lat="48.7978" lon="2.20311">
        <ele>209</ele>
        <time>2016-02-21T15:43:17.000Z</time>
      </trkpt>
      <trkpt lat="48.7978" lon="2.20311">
        <ele>209</ele>
        <time>2016-02-21T15:43:18.000Z</time>
      </trkpt>
      <trkpt lat="48.79784" lon="2.20307">
        <ele>208</ele>
        <time>2016-02-21T15:43:20.000Z</time>
      </trkpt>
      <trkpt lat="48.79787" lon="2.20304">
        <ele>208</ele>
        <time>2016-02-21T15:43:22.000Z</time>
      </trkpt>
      <trkpt lat="48.79789" lon="2.203">
        <ele>207</ele>
        <time>2016-02-21T15:43:25.000Z</time>
      </trkpt>
      <trkpt lat="48.79791" lon="2.20297">
        <ele>207</ele>
        <time>2016-02-21T15:43:29.000Z</time>
      </trkpt>
      <trkpt lat="48.79791" lon="2.20297">
        <ele>207</ele>
        <time>2016-02-21T15:43:32.000Z</time>
      </trkpt>
      <trkpt lat="48.79794" lon="2.20292">
        <ele>207</ele>
        <time>2016-02-21T15:43:36.000Z</time>
      </trkpt>
      <trkpt lat="48.79796" lon="2.20289">
        <ele>207</ele>
        <time>2016-02-21T15:43:38.000Z</time>
      </trkpt>
      <trkpt lat="48.79797" lon="2.20282">
        <ele>206</ele>
        <time>2016-02-21T15:43:41.000Z</time>
      </trkpt>
      <trkpt lat="48.79798" lon="2.20277">
        <ele>206</ele>
        <time>2016-02-21T15:43:43.000Z</time>
      </trkpt>
      <trkpt lat="48.79798" lon="2.20277">
        <ele>206</ele>
        <time>2016-02-21T15:43:47.000Z</time>
      </trkpt>
      <trkpt lat="48.79798" lon="2.20277">
        <ele>206</ele>
        <time>2016-02-21T15:43:49.000Z</time>
      </trkpt>
      <trkpt lat="48.79798" lon="2.20277">
        <ele>206</ele>
        <time>2016-02-21T15:44:19.000Z</time>
      </trkpt>
      <trkpt lat="48.79855" lon="2.20223">
        <ele>186</ele>
        <time>2016-02-21T15:47:19.000Z</time>
      </trkpt>
      <trkpt lat="48.79885" lon="2.20196">
        <ele>186</ele>
        <time>2016-02-21T15:47:20.000Z</time>
      </trkpt>
      <trkpt lat="48.799" lon="2.20182">
        <ele>186</ele>
        <time>2016-02-21T15:47:22.000Z</time>
      </trkpt>
      <trkpt lat="48.79908" lon="2.20175">
        <ele>187</ele>
        <time>2016-02-21T15:47:24.000Z</time>
      </trkpt>
      <trkpt lat="48.79908" lon="2.20175">
        <ele>187</ele>
        <time>2016-02-21T15:47:27.000Z</time>
      </trkpt>
      <trkpt lat="48.79908" lon="2.20175">
        <ele>187</ele>
        <time>2016-02-21T15:47:29.000Z</time>
      </trkpt>
      <trkpt lat="48.79908" lon="2.20175">
        <ele>187</ele>
        <time>2016-02-21T15:47:30.000Z</time>
      </trkpt>
      <trkpt lat="48.79908" lon="2.20175">
        <ele>187</ele>
        <time>2016-02-21T15:47:32.000Z</time>
      </trkpt>
      <trkpt lat="48.80132" lon="2.20019">
        <ele>180</ele>
        <time>2016-02-21T15:59:26.000Z</time>
      </trkpt>
      <trkpt lat="48.80247" lon="2.19938">
        <ele>180</ele>
        <time>2016-02-21T15:59:28.000Z</time>
      </trkpt>
      <trkpt lat="48.80247" lon="2.19938">
        <ele>180</ele>
        <time>2016-02-21T15:59:30.000Z</time>
      </trkpt>
      <trkpt lat="48.80247" lon="2.19938">
        <ele>180</ele>
        <time>2016-02-21T15:59:32.000Z</time>
      </trkpt>
      <trkpt lat="48.80247" lon="2.19938">
        <ele>180</ele>
        <time>2016-02-21T15:59:34.000Z</time>
      </trkpt>
      <trkpt lat="48.80247" lon="2.19938">
        <ele>180</ele>
        <time>2016-02-21T15:59:36.000Z</time>
      </trkpt>
      <trkpt lat="48.80306" lon="2.1989">
        <ele>183</ele>
        <time>2016-02-21T15:59:47.000Z</time>
      </trkpt>
      <trkpt lat="48.80306" lon="2.1989">
        <ele>183</ele>
        <time>2016-02-21T15:59:50.000Z</time>
      </trkpt>
      <trkpt lat="48.80333" lon="2.19862">
        <ele>184</ele>
        <time>2016-02-21T15:59:54.000Z</time>
      </trkpt>
      <trkpt lat="48.80347" lon="2.19846">
        <ele>184</ele>
        <time>2016-02-21T15:59:55.000Z</time>
      </trkpt>
      <trkpt lat="48.80352" lon="2.19837">
        <ele>185</ele>
        <time>2016-02-21T15:59:57.000Z</time>
      </trkpt>
      <trkpt lat="48.80354" lon="2.19831">
        <ele>185</ele>
        <time>2016-02-21T15:59:59.000Z</time>
      </trkpt>
      <trkpt lat="48.80354" lon="2.19823">
        <ele>186</ele>
        <time>2016-02-21T16:00:04.000Z</time>
      </trkpt>
      <trkpt lat="48.80352" lon="2.19816">
        <ele>187</ele>
        <time>2016-02-21T16:00:06.000Z</time>
      </trkpt>
      <trkpt lat="48.80351" lon="2.19811">
        <ele>187</ele>
        <time>2016-02-21T16:00:07.000Z</time>
      </trkpt>
      <trkpt lat="48.8035" lon="2.19807">
        <ele>187</ele>
        <time>2016-02-21T16:00:10.000Z</time>
      </trkpt>
      <trkpt lat="48.8035" lon="2.19802">
        <ele>188</ele>
        <time>2016-02-21T16:00:13.000Z</time>
      </trkpt>
      <trkpt lat="48.8035" lon="2.19802">
        <ele>188</ele>
        <time>2016-02-21T16:00:15.000Z</time>
      </trkpt>
      <trkpt lat="48.80347" lon="2.19796">
        <ele>189</ele>
        <time>2016-02-21T16:00:20.000Z</time>
      </trkpt>
      <trkpt lat="48.80344" lon="2.19793">
        <ele>189</ele>
        <time>2016-02-21T16:00:21.000Z</time>
      </trkpt>
      <trkpt lat="48.80344" lon="2.19793">
        <ele>189</ele>
        <time>2016-02-21T16:00:23.000Z</time>
      </trkpt>
      <trkpt lat="48.80344" lon="2.19793">
        <ele>189</ele>
        <time>2016-02-21T16:00:25.000Z</time>
      </trkpt>
      <trkpt lat="48.80344" lon="2.19793">
        <ele>189</ele>
        <time>2016-02-21T16:00:27.000Z</time>
      </trkpt>
      <trkpt lat="48.80339" lon="2.19787">
        <ele>188</ele>
        <time>2016-02-21T16:00:40.000Z</time>
      </trkpt>
      <trkpt lat="48.80335" lon="2.19783">
        <ele>188</ele>
        <time>2016-02-21T16:00:41.000Z</time>
      </trkpt>
      <trkpt lat="48.80333" lon="2.1978">
        <ele>188</ele>
        <time>2016-02-21T16:00:43.000Z</time>
      </trkpt>
      <trkpt lat="48.80333" lon="2.1978">
        <ele>188</ele>
        <time>2016-02-21T16:00:45.000Z</time>
      </trkpt>
      <trkpt lat="48.80333" lon="2.1978">
        <ele>188</ele>
        <time>2016-02-21T16:00:48.000Z</time>
      </trkpt>
      <trkpt lat="48.80333" lon="2.1978">
        <ele>188</ele>
        <time>2016-02-21T16:00:49.000Z</time>
      </trkpt>
      <trkpt lat="48.80325" lon="2.19767">
        <ele>187</ele>
        <time>2016-02-21T16:00:59.000Z</time>
      </trkpt>
      <trkpt lat="48.80322" lon="2.19759">
        <ele>187</ele>
        <time>2016-02-21T16:01:01.000Z</time>
      </trkpt>
      <trkpt lat="48.80318" lon="2.19755">
        <ele>187</ele>
        <time>2016-02-21T16:01:03.000Z</time>
      </trkpt>
      <trkpt lat="48.80316" lon="2.1975">
        <ele>186</ele>
        <time>2016-02-21T16:01:05.000Z</time>
      </trkpt>
      <trkpt lat="48.80314" lon="2.19747">
        <ele>186</ele>
        <time>2016-02-21T16:01:08.000Z</time>
      </trkpt>
      <trkpt lat="48.80314" lon="2.19747">
        <ele>186</ele>
        <time>2016-02-21T16:01:10.000Z</time>
      </trkpt>
      <trkpt lat="48.80314" lon="2.19747">
        <ele>186</ele>
        <time>2016-02-21T16:01:11.000Z</time>
      </trkpt>
      <trkpt lat="48.80314" lon="2.19747">
        <ele>186</ele>
        <time>2016-02-21T16:01:13.000Z</time>
      </trkpt>
      <trkpt lat="48.80314" lon="2.19747">
        <ele>186</ele>
        <time>2016-02-21T16:01:15.000Z</time>
      </trkpt>
      <trkpt lat="48.80314" lon="2.19747">
        <ele>186</ele>
        <time>2016-02-21T16:01:18.000Z</time>
      </trkpt>
      <trkpt lat="48.80314" lon="2.19747">
        <ele>186</ele>
        <time>2016-02-21T16:01:19.000Z</time>
      </trkpt>
      <trkpt lat="48.80311" lon="2.1972">
        <ele>184</ele>
        <time>2016-02-21T16:01:31.000Z</time>
      </trkpt>
      <trkpt lat="48.80311" lon="2.1972">
        <ele>184</ele>
        <time>2016-02-21T16:01:35.000Z</time>
      </trkpt>
      <trkpt lat="48.80311" lon="2.1972">
        <ele>184</ele>
        <time>2016-02-21T16:01:37.000Z</time>
      </trkpt>
      <trkpt lat="48.80311" lon="2.1972">
        <ele>184</ele>
        <time>2016-02-21T16:01:39.000Z</time>
      </trkpt>
      <trkpt lat="48.80306" lon="2.19712">
        <ele>183</ele>
        <time>2016-02-21T16:01:41.000Z</time>
      </trkpt>
      <trkpt lat="48.80301" lon="2.197">
        <ele>182</ele>
        <time>2016-02-21T16:01:47.000Z</time>
      </trkpt>
      <trkpt lat="48.80301" lon="2.197">
        <ele>182</ele>
        <time>2016-02-21T16:01:53.000Z</time>
      </trkpt>
      <trkpt lat="48.80304" lon="2.19691">
        <ele>181</ele>
        <time>2016-02-21T16:01:55.000Z</time>
      </trkpt>
      <trkpt lat="48.80304" lon="2.19691">
        <ele>181</ele>
        <time>2016-02-21T16:01:58.000Z</time>
      </trkpt>
      <trkpt lat="48.80304" lon="2.19691">
        <ele>181</ele>
        <time>2016-02-21T16:01:59.000Z</time>
      </trkpt>
      <trkpt lat="48.80304" lon="2.19691">
        <ele>181</ele>
        <time>2016-02-21T16:02:01.000Z</time>
      </trkpt>
      <trkpt lat="48.80304" lon="2.19691">
        <ele>181</ele>
        <time>2016-02-21T16:02:03.000Z</time>
      </trkpt>
      <trkpt lat="48.80304" lon="2.19691">
        <ele>181</ele>
        <time>2016-02-21T16:02:24.000Z</time>
      </trkpt>
      <trkpt lat="48.80304" lon="2.19691">
        <ele>181</ele>
        <time>2016-02-21T16:02:25.000Z</time>
      </trkpt>
      <trkpt lat="48.80304" lon="2.19691">
        <ele>181</ele>
        <time>2016-02-21T16:02:28.000Z</time>
      </trkpt>
      <trkpt lat="48.80304" lon="2.19691">
        <ele>181</ele>
        <time>2016-02-21T16:02:32.000Z</time>
      </trkpt>
      <trkpt lat="48.80304" lon="2.19691">
        <ele>181</ele>
        <time>2016-02-21T16:02:33.000Z</time>
      </trkpt>
      <trkpt lat="48.80304" lon="2.19691">
        <ele>181</ele>
        <time>2016-02-21T16:02:35.000Z</time>
      </trkpt>
      <trkpt lat="48.80304" lon="2.19691">
        <ele>181</ele>
        <time>2016-02-21T16:02:39.000Z</time>
      </trkpt>
      <trkpt lat="48.80304" lon="2.19691">
        <ele>181</ele>
        <time>2016-02-21T16:02:41.000Z</time>
      </trkpt>
      <trkpt lat="48.80304" lon="2.19691">
        <ele>181</ele>
        <time>2016-02-21T16:02:55.000Z</time>
      </trkpt>
      <trkpt lat="48.80304" lon="2.19691">
        <ele>181</ele>
        <time>2016-02-21T16:02:58.000Z</time>
      </trkpt>
      <trkpt lat="48.80329" lon="2.19651">
        <ele>175</ele>
        <time>2016-02-21T16:03:22.000Z</time>
      </trkpt>
      <trkpt lat="48.8034" lon="2.19631">
        <ele>176</ele>
        <time>2016-02-21T16:03:23.000Z</time>
      </trkpt>
      <trkpt lat="48.80344" lon="2.19619">
        <ele>176</ele>
        <time>2016-02-21T16:03:25.000Z</time>
      </trkpt>
      <trkpt lat="48.80343" lon="2.19612">
        <ele>177</ele>
        <time>2016-02-21T16:03:30.000Z</time>
      </trkpt>
      <trkpt lat="48.80343" lon="2.19612">
        <ele>177</ele>
        <time>2016-02-21T16:03:35.000Z</time>
      </trkpt>
      <trkpt lat="48.8034" lon="2.19609">
        <ele>178</ele>
        <time>2016-02-21T16:03:37.000Z</time>
      </trkpt>
      <trkpt lat="48.8034" lon="2.19609">
        <ele>178</ele>
        <time>2016-02-21T16:03:39.000Z</time>
      </trkpt>
      <trkpt lat="48.8034" lon="2.19609">
        <ele>178</ele>
        <time>2016-02-21T16:03:41.000Z</time>
      </trkpt>
      <trkpt lat="48.8034" lon="2.19609">
        <ele>178</ele>
        <time>2016-02-21T16:03:43.000Z</time>
      </trkpt>
      <trkpt lat="48.8034" lon="2.19609">
        <ele>178</ele>
        <time>2016-02-21T16:03:45.000Z</time>
      </trkpt>
      <trkpt lat="48.8034" lon="2.19609">
        <ele>178</ele>
        <time>2016-02-21T16:03:47.000Z</time>
      </trkpt>
      <trkpt lat="48.8034" lon="2.19609">
        <ele>178</ele>
        <time>2016-02-21T16:03:51.000Z</time>
      </trkpt>
      <trkpt lat="48.8034" lon="2.19609">
        <ele>178</ele>
        <time>2016-02-21T16:03:53.000Z</time>
      </trkpt>
      <trkpt lat="48.8034" lon="2.19609">
        <ele>178</ele>
        <time>2016-02-21T16:03:55.000Z</time>
      </trkpt>
      <trkpt lat="48.8034" lon="2.19609">
        <ele>178</ele>
        <time>2016-02-21T16:03:57.000Z</time>
      </trkpt>
      <trkpt lat="48.8034" lon="2.19609">
        <ele>178</ele>
        <time>2016-02-21T16:03:59.000Z</time>
      </trkpt>
      <trkpt lat="48.8034" lon="2.19609">
        <ele>178</ele>
        <time>2016-02-21T16:04:02.000Z</time>
      </trkpt>
      <trkpt lat="48.8034" lon="2.19609">
        <ele>178</ele>
        <time>2016-02-21T16:04:07.000Z</time>
      </trkpt>
      <trkpt lat="48.80286" lon="2.19573">
        <ele>172</ele>
        <time>2016-02-21T16:06:27.000Z</time>
      </trkpt>
      <trkpt lat="48.80262" lon="2.19554">
        <ele>172</ele>
        <time>2016-02-21T16:06:29.000Z</time>
      </trkpt>
      <trkpt lat="48.80251" lon="2.19544">
        <ele>173</ele>
        <time>2016-02-21T16:06:31.000Z</time>
      </trkpt>
      <trkpt lat="48.80246" lon="2.19538">
        <ele>173</ele>
        <time>2016-02-21T16:06:33.000Z</time>
      </trkpt>
      <trkpt lat="48.80246" lon="2.19538">
        <ele>173</ele>
        <time>2016-02-21T16:06:35.000Z</time>
      </trkpt>
      <trkpt lat="48.80246" lon="2.19538">
        <ele>173</ele>
        <time>2016-02-21T16:06:37.000Z</time>
      </trkpt>
      <trkpt lat="48.80246" lon="2.19538">
        <ele>173</ele>
        <time>2016-02-21T16:06:39.000Z</time>
      </trkpt>
      <trkpt lat="48.80251" lon="2.1953">
        <ele>176</ele>
        <time>2016-02-21T16:06:43.000Z</time>
      </trkpt>
      <trkpt lat="48.80251" lon="2.1953">
        <ele>176</ele>
        <time>2016-02-21T16:06:47.000Z</time>
      </trkpt>
      <trkpt lat="48.80251" lon="2.1953">
        <ele>176</ele>
        <time>2016-02-21T16:06:50.000Z</time>
      </trkpt>
      <trkpt lat="48.80251" lon="2.1953">
        <ele>176</ele>
        <time>2016-02-21T16:06:51.000Z</time>
      </trkpt>
      <trkpt lat="48.80251" lon="2.1953">
        <ele>176</ele>
        <time>2016-02-21T16:06:56.000Z</time>
      </trkpt>
      <trkpt lat="48.80251" lon="2.1953">
        <ele>176</ele>
        <time>2016-02-21T16:07:51.000Z</time>
      </trkpt>
      <trkpt lat="48.80319" lon="2.19453">
        <ele>173</ele>
        <time>2016-02-21T16:10:20.000Z</time>
      </trkpt>
      <trkpt lat="48.80355" lon="2.19413">
        <ele>173</ele>
        <time>2016-02-21T16:10:23.000Z</time>
      </trkpt>
      <trkpt lat="48.80376" lon="2.19392">
        <ele>173</ele>
        <time>2016-02-21T16:10:25.000Z</time>
      </trkpt>
      <trkpt lat="48.80388" lon="2.19382">
        <ele>174</ele>
        <time>2016-02-21T16:10:26.000Z</time>
      </trkpt>
      <trkpt lat="48.80396" lon="2.19377">
        <ele>174</ele>
        <time>2016-02-21T16:10:28.000Z</time>
      </trkpt>
      <trkpt lat="48.80396" lon="2.19377">
        <ele>174</ele>
        <time>2016-02-21T16:10:30.000Z</time>
      </trkpt>
      <trkpt lat="48.80396" lon="2.19377">
        <ele>174</ele>
        <time>2016-02-21T16:10:36.000Z</time>
      </trkpt>
      <trkpt lat="48.80423" lon="2.19379">
        <ele>174</ele>
        <time>2016-02-21T16:10:56.000Z</time>
      </trkpt>
      <trkpt lat="48.80423" lon="2.19379">
        <ele>174</ele>
        <time>2016-02-21T16:10:59.000Z</time>
      </trkpt>
      <trkpt lat="48.80423" lon="2.19379">
        <ele>174</ele>
        <time>2016-02-21T16:11:00.000Z</time>
      </trkpt>
      <trkpt lat="48.80423" lon="2.19379">
        <ele>174</ele>
        <time>2016-02-21T16:11:02.000Z</time>
      </trkpt>
      <trkpt lat="48.80423" lon="2.19379">
        <ele>174</ele>
        <time>2016-02-21T16:11:04.000Z</time>
      </trkpt>
      <trkpt lat="48.80423" lon="2.19379">
        <ele>174</ele>
        <time>2016-02-21T16:11:06.000Z</time>
      </trkpt>
      <trkpt lat="48.80448" lon="2.19353">
        <ele>174</ele>
        <time>2016-02-21T16:11:20.000Z</time>
      </trkpt>
      <trkpt lat="48.80448" lon="2.19353">
        <ele>174</ele>
        <time>2016-02-21T16:11:25.000Z</time>
      </trkpt>
      <trkpt lat="48.80448" lon="2.19353">
        <ele>174</ele>
        <time>2016-02-21T16:11:26.000Z</time>
      </trkpt>
      <trkpt lat="48.80465" lon="2.19322">
        <ele>174</ele>
        <time>2016-02-21T16:12:15.000Z</time>
      </trkpt>
      <trkpt lat="48.80475" lon="2.19305">
        <ele>174</ele>
        <time>2016-02-21T16:12:16.000Z</time>
      </trkpt>
      <trkpt lat="48.8048" lon="2.19296">
        <ele>174</ele>
        <time>2016-02-21T16:12:19.000Z</time>
      </trkpt>
      <trkpt lat="48.8048" lon="2.19296">
        <ele>174</ele>
        <time>2016-02-21T16:12:20.000Z</time>
      </trkpt>
      <trkpt lat="48.8048" lon="2.19296">
        <ele>174</ele>
        <time>2016-02-21T16:12:22.000Z</time>
      </trkpt>
      <trkpt lat="48.80485" lon="2.19286">
        <ele>173</ele>
        <time>2016-02-21T16:12:24.000Z</time>
      </trkpt>
      <trkpt lat="48.80485" lon="2.19286">
        <ele>173</ele>
        <time>2016-02-21T16:12:28.000Z</time>
      </trkpt>
      <trkpt lat="48.80485" lon="2.19286">
        <ele>173</ele>
        <time>2016-02-21T16:12:30.000Z</time>
      </trkpt>
      <trkpt lat="48.80492" lon="2.19271">
        <ele>171</ele>
        <time>2016-02-21T16:12:40.000Z</time>
      </trkpt>
      <trkpt lat="48.80495" lon="2.19261">
        <ele>171</ele>
        <time>2016-02-21T16:12:42.000Z</time>
      </trkpt>
      <trkpt lat="48.80498" lon="2.19255">
        <ele>171</ele>
        <time>2016-02-21T16:12:44.000Z</time>
      </trkpt>
      <trkpt lat="48.80499" lon="2.19251">
        <ele>171</ele>
        <time>2016-02-21T16:12:47.000Z</time>
      </trkpt>
      <trkpt lat="48.80499" lon="2.19251">
        <ele>171</ele>
        <time>2016-02-21T16:12:48.000Z</time>
      </trkpt>
      <trkpt lat="48.80499" lon="2.19251">
        <ele>171</ele>
        <time>2016-02-21T16:12:50.000Z</time>
      </trkpt>
      <trkpt lat="48.80501" lon="2.19247">
        <ele>171</ele>
        <time>2016-02-21T16:12:53.000Z</time>
      </trkpt>
      <trkpt lat="48.80504" lon="2.19241">
        <ele>170</ele>
        <time>2016-02-21T16:12:58.000Z</time>
      </trkpt>
      <trkpt lat="48.80506" lon="2.19237">
        <ele>170</ele>
        <time>2016-02-21T16:13:00.000Z</time>
      </trkpt>
      <trkpt lat="48.80506" lon="2.19237">
        <ele>170</ele>
        <time>2016-02-21T16:13:02.000Z</time>
      </trkpt>
      <trkpt lat="48.80508" lon="2.19233">
        <ele>169</ele>
        <time>2016-02-21T16:13:04.000Z</time>
      </trkpt>
      <trkpt lat="48.80511" lon="2.19227">
        <ele>169</ele>
        <time>2016-02-21T16:13:11.000Z</time>
      </trkpt>
      <trkpt lat="48.80511" lon="2.19227">
        <ele>169</ele>
        <time>2016-02-21T16:13:12.000Z</time>
      </trkpt>
      <trkpt lat="48.80514" lon="2.19221">
        <ele>168</ele>
        <time>2016-02-21T16:13:14.000Z</time>
      </trkpt>
      <trkpt lat="48.80516" lon="2.19216">
        <ele>168</ele>
        <time>2016-02-21T16:13:18.000Z</time>
      </trkpt>
      <trkpt lat="48.80518" lon="2.19213">
        <ele>168</ele>
        <time>2016-02-21T16:13:20.000Z</time>
      </trkpt>
      <trkpt lat="48.80518" lon="2.19213">
        <ele>168</ele>
        <time>2016-02-21T16:13:22.000Z</time>
      </trkpt>
      <trkpt lat="48.80521" lon="2.19209">
        <ele>169</ele>
        <time>2016-02-21T16:13:25.000Z</time>
      </trkpt>
      <trkpt lat="48.80521" lon="2.19209">
        <ele>169</ele>
        <time>2016-02-21T16:13:26.000Z</time>
      </trkpt>
      <trkpt lat="48.80523" lon="2.19206">
        <ele>168</ele>
        <time>2016-02-21T16:13:28.000Z</time>
      </trkpt>
      <trkpt lat="48.80523" lon="2.19206">
        <ele>168</ele>
        <time>2016-02-21T16:13:31.000Z</time>
      </trkpt>
      <trkpt lat="48.80523" lon="2.19206">
        <ele>168</ele>
        <time>2016-02-21T16:13:32.000Z</time>
      </trkpt>
      <trkpt lat="48.80523" lon="2.19206">
        <ele>168</ele>
        <time>2016-02-21T16:13:35.000Z</time>
      </trkpt>
      <trkpt lat="48.80527" lon="2.19201">
        <ele>167</ele>
        <time>2016-02-21T16:13:36.000Z</time>
      </trkpt>
      <trkpt lat="48.8053" lon="2.19198">
        <ele>167</ele>
        <time>2016-02-21T16:13:38.000Z</time>
      </trkpt>
      <trkpt lat="48.8053" lon="2.19198">
        <ele>167</ele>
        <time>2016-02-21T16:13:41.000Z</time>
      </trkpt>
      <trkpt lat="48.80533" lon="2.19195">
        <ele>167</ele>
        <time>2016-02-21T16:13:42.000Z</time>
      </trkpt>
      <trkpt lat="48.80535" lon="2.19191">
        <ele>167</ele>
        <time>2016-02-21T16:13:45.000Z</time>
      </trkpt>
      <trkpt lat="48.80535" lon="2.19191">
        <ele>167</ele>
        <time>2016-02-21T16:13:47.000Z</time>
      </trkpt>
      <trkpt lat="48.80535" lon="2.19191">
        <ele>167</ele>
        <time>2016-02-21T16:13:49.000Z</time>
      </trkpt>
      <trkpt lat="48.80539" lon="2.19186">
        <ele>166</ele>
        <time>2016-02-21T16:13:50.000Z</time>
      </trkpt>
      <trkpt lat="48.80542" lon="2.19178">
        <ele>165</ele>
        <time>2016-02-21T16:13:52.000Z</time>
      </trkpt>
      <trkpt lat="48.80545" lon="2.19173">
        <ele>165</ele>
        <time>2016-02-21T16:13:55.000Z</time>
      </trkpt>
      <trkpt lat="48.80546" lon="2.19168">
        <ele>165</ele>
        <time>2016-02-21T16:13:58.000Z</time>
      </trkpt>
      <trkpt lat="48.80548" lon="2.19164">
        <ele>165</ele>
        <time>2016-02-21T16:14:01.000Z</time>
      </trkpt>
      <trkpt lat="48.8055" lon="2.19161">
        <ele>164</ele>
        <time>2016-02-21T16:14:05.000Z</time>
      </trkpt>
      <trkpt lat="48.80552" lon="2.19157">
        <ele>163</ele>
        <time>2016-02-21T16:14:09.000Z</time>
      </trkpt>
      <trkpt lat="48.80555" lon="2.19152">
        <ele>162</ele>
        <time>2016-02-21T16:14:16.000Z</time>
      </trkpt>
      <trkpt lat="48.80557" lon="2.19146">
        <ele>161</ele>
        <time>2016-02-21T16:14:19.000Z</time>
      </trkpt>
      <trkpt lat="48.80558" lon="2.19142">
        <ele>161</ele>
        <time>2016-02-21T16:14:22.000Z</time>
      </trkpt>
      <trkpt lat="48.8056" lon="2.19137">
        <ele>161</ele>
        <time>2016-02-21T16:14:25.000Z</time>
      </trkpt>
      <trkpt lat="48.80561" lon="2.19133">
        <ele>160</ele>
        <time>2016-02-21T16:14:27.000Z</time>
      </trkpt>
      <trkpt lat="48.80563" lon="2.19127">
        <ele>160</ele>
        <time>2016-02-21T16:14:31.000Z</time>
      </trkpt>
      <trkpt lat="48.80564" lon="2.19123">
        <ele>160</ele>
        <time>2016-02-21T16:14:33.000Z</time>
      </trkpt>
      <trkpt lat="48.80564" lon="2.19118">
        <ele>161</ele>
        <time>2016-02-21T16:14:38.000Z</time>
      </trkpt>
      <trkpt lat="48.80564" lon="2.19118">
        <ele>161</ele>
        <time>2016-02-21T16:14:39.000Z</time>
      </trkpt>
      <trkpt lat="48.80564" lon="2.19118">
        <ele>161</ele>
        <time>2016-02-21T16:14:41.000Z</time>
      </trkpt>
      <trkpt lat="48.80561" lon="2.19113">
        <ele>161</ele>
        <time>2016-02-21T16:14:43.000Z</time>
      </trkpt>
      <trkpt lat="48.80561" lon="2.19113">
        <ele>161</ele>
        <time>2016-02-21T16:14:46.000Z</time>
      </trkpt>
      <trkpt lat="48.80558" lon="2.19108">
        <ele>162</ele>
        <time>2016-02-21T16:14:49.000Z</time>
      </trkpt>
      <trkpt lat="48.80556" lon="2.19105">
        <ele>162</ele>
        <time>2016-02-21T16:14:52.000Z</time>
      </trkpt>
      <trkpt lat="48.80556" lon="2.19105">
        <ele>162</ele>
        <time>2016-02-21T16:14:53.000Z</time>
      </trkpt>
      <trkpt lat="48.80556" lon="2.19105">
        <ele>162</ele>
        <time>2016-02-21T16:14:55.000Z</time>
      </trkpt>
      <trkpt lat="48.80556" lon="2.19105">
        <ele>162</ele>
        <time>2016-02-21T16:15:01.000Z</time>
      </trkpt>
      <trkpt lat="48.80556" lon="2.19105">
        <ele>162</ele>
        <time>2016-02-21T16:15:03.000Z</time>
      </trkpt>
      <trkpt lat="48.80544" lon="2.19087">
        <ele>161</ele>
        <time>2016-02-21T16:15:32.000Z</time>
      </trkpt>
      <trkpt lat="48.80544" lon="2.19087">
        <ele>161</ele>
        <time>2016-02-21T16:15:34.000Z</time>
      </trkpt>
      <trkpt lat="48.80544" lon="2.19087">
        <ele>161</ele>
        <time>2016-02-21T16:15:36.000Z</time>
      </trkpt>
      <trkpt lat="48.80544" lon="2.19087">
        <ele>161</ele>
        <time>2016-02-21T16:15:39.000Z</time>
      </trkpt>
      <trkpt lat="48.80544" lon="2.19087">
        <ele>161</ele>
        <time>2016-02-21T16:16:08.000Z</time>
      </trkpt>
      <trkpt lat="48.80516" lon="2.19028">
        <ele>157</ele>
        <time>2016-02-21T16:17:01.000Z</time>
      </trkpt>
      <trkpt lat="48.80502" lon="2.18997">
        <ele>157</ele>
        <time>2016-02-21T16:17:03.000Z</time>
      </trkpt>
      <trkpt lat="48.80494" lon="2.18979">
        <ele>157</ele>
        <time>2016-02-21T16:17:05.000Z</time>
      </trkpt>
      <trkpt lat="48.80489" lon="2.18969">
        <ele>157</ele>
        <time>2016-02-21T16:17:08.000Z</time>
      </trkpt>
      <trkpt lat="48.80486" lon="2.18963">
        <ele>157</ele>
        <time>2016-02-21T16:17:09.000Z</time>
      </trkpt>
      <trkpt lat="48.80482" lon="2.18955">
        <ele>158</ele>
        <time>2016-02-21T16:17:11.000Z</time>
      </trkpt>
      <trkpt lat="48.80482" lon="2.18955">
        <ele>158</ele>
        <time>2016-02-21T16:17:13.000Z</time>
      </trkpt>
      <trkpt lat="48.80475" lon="2.18944">
        <ele>157</ele>
        <time>2016-02-21T16:17:17.000Z</time>
      </trkpt>
      <trkpt lat="48.80475" lon="2.18944">
        <ele>157</ele>
        <time>2016-02-21T16:17:19.000Z</time>
      </trkpt>
      <trkpt lat="48.80475" lon="2.18944">
        <ele>157</ele>
        <time>2016-02-21T16:17:21.000Z</time>
      </trkpt>
      <trkpt lat="48.8047" lon="2.18933">
        <ele>157</ele>
        <time>2016-02-21T16:17:27.000Z</time>
      </trkpt>
      <trkpt lat="48.8047" lon="2.18933">
        <ele>157</ele>
        <time>2016-02-21T16:17:29.000Z</time>
      </trkpt>
      <trkpt lat="48.8047" lon="2.18933">
        <ele>157</ele>
        <time>2016-02-21T16:17:31.000Z</time>
      </trkpt>
      <trkpt lat="48.8047" lon="2.18933">
        <ele>157</ele>
        <time>2016-02-21T16:17:34.000Z</time>
      </trkpt>
      <trkpt lat="48.80464" lon="2.1892">
        <ele>157</ele>
        <time>2016-02-21T16:17:38.000Z</time>
      </trkpt>
      <trkpt lat="48.80464" lon="2.1892">
        <ele>157</ele>
        <time>2016-02-21T16:17:39.000Z</time>
      </trkpt>
      <trkpt lat="48.80464" lon="2.1892">
        <ele>157</ele>
        <time>2016-02-21T16:17:41.000Z</time>
      </trkpt>
      <trkpt lat="48.80464" lon="2.1892">
        <ele>157</ele>
        <time>2016-02-21T16:17:44.000Z</time>
      </trkpt>
      <trkpt lat="48.80453" lon="2.1891">
        <ele>157</ele>
        <time>2016-02-21T16:17:50.000Z</time>
      </trkpt>
      <trkpt lat="48.80453" lon="2.1891">
        <ele>157</ele>
        <time>2016-02-21T16:17:51.000Z</time>
      </trkpt>
      <trkpt lat="48.80453" lon="2.1891">
        <ele>157</ele>
        <time>2016-02-21T16:17:53.000Z</time>
      </trkpt>
      <trkpt lat="48.80447" lon="2.18903">
        <ele>157</ele>
        <time>2016-02-21T16:17:57.000Z</time>
      </trkpt>
      <trkpt lat="48.80447" lon="2.18903">
        <ele>157</ele>
        <time>2016-02-21T16:18:00.000Z</time>
      </trkpt>
      <trkpt lat="48.80447" lon="2.18903">
        <ele>157</ele>
        <time>2016-02-21T16:18:01.000Z</time>
      </trkpt>
      <trkpt lat="48.80443" lon="2.18893">
        <ele>154</ele>
        <time>2016-02-21T16:18:07.000Z</time>
      </trkpt>
      <trkpt lat="48.8044" lon="2.18884">
        <ele>153</ele>
        <time>2016-02-21T16:18:11.000Z</time>
      </trkpt>
      <trkpt lat="48.8044" lon="2.18884">
        <ele>153</ele>
        <time>2016-02-21T16:18:14.000Z</time>
      </trkpt>
      <trkpt lat="48.80436" lon="2.18873">
        <ele>152</ele>
        <time>2016-02-21T16:18:17.000Z</time>
      </trkpt>
      <trkpt lat="48.80433" lon="2.18864">
        <ele>152</ele>
        <time>2016-02-21T16:18:23.000Z</time>
      </trkpt>
      <trkpt lat="48.80433" lon="2.18864">
        <ele>152</ele>
        <time>2016-02-21T16:18:26.000Z</time>
      </trkpt>
      <trkpt lat="48.80433" lon="2.18864">
        <ele>152</ele>
        <time>2016-02-21T16:18:27.000Z</time>
      </trkpt>
      <trkpt lat="48.80428" lon="2.18857">
        <ele>151</ele>
        <time>2016-02-21T16:18:29.000Z</time>
      </trkpt>
      <trkpt lat="48.80428" lon="2.18857">
        <ele>151</ele>
        <time>2016-02-21T16:18:31.000Z</time>
      </trkpt>
      <trkpt lat="48.80428" lon="2.18857">
        <ele>151</ele>
        <time>2016-02-21T16:18:33.000Z</time>
      </trkpt>
      <trkpt lat="48.80428" lon="2.18857">
        <ele>151</ele>
        <time>2016-02-21T16:18:36.000Z</time>
      </trkpt>
      <trkpt lat="48.80424" lon="2.18855">
        <ele>151</ele>
        <time>2016-02-21T16:18:37.000Z</time>
      </trkpt>
      <trkpt lat="48.80423" lon="2.18851">
        <ele>151</ele>
        <time>2016-02-21T16:18:41.000Z</time>
      </trkpt>
      <trkpt lat="48.80419" lon="2.18845">
        <ele>152</ele>
        <time>2016-02-21T16:18:48.000Z</time>
      </trkpt>
      <trkpt lat="48.80419" lon="2.18845">
        <ele>152</ele>
        <time>2016-02-21T16:18:49.000Z</time>
      </trkpt>
      <trkpt lat="48.80415" lon="2.18839">
        <ele>152</ele>
        <time>2016-02-21T16:18:51.000Z</time>
      </trkpt>
      <trkpt lat="48.80415" lon="2.18839">
        <ele>152</ele>
        <time>2016-02-21T16:18:54.000Z</time>
      </trkpt>
      <trkpt lat="48.80412" lon="2.18834">
        <ele>153</ele>
        <time>2016-02-21T16:18:55.000Z</time>
      </trkpt>
      <trkpt lat="48.80412" lon="2.18834">
        <ele>153</ele>
        <time>2016-02-21T16:19:01.000Z</time>
      </trkpt>
      <trkpt lat="48.80424" lon="2.1883">
        <ele>151</ele>
        <time>2016-02-21T16:19:22.000Z</time>
      </trkpt>
      <trkpt lat="48.80424" lon="2.1883">
        <ele>151</ele>
        <time>2016-02-21T16:19:27.000Z</time>
      </trkpt>
      <trkpt lat="48.80424" lon="2.1883">
        <ele>151</ele>
        <time>2016-02-21T16:19:50.000Z</time>
      </trkpt>
      <trkpt lat="48.80424" lon="2.1883">
        <ele>151</ele>
        <time>2016-02-21T16:21:12.000Z</time>
      </trkpt>
    </trkseg>
  </trk>
</gpx>